[[{"header":{"parameterUnit":"m.s-1","parameterCategory":1,"la1":30.6,"la2":29.2853,"lo1":-89.7004,"lo2":-87.6739,"dy":0.0162,"dx":0.0183,"nx":112,"ny":82,"refTime":"2023-10-29T06:00:00:Z","depth":0,"parameterNumber":2,"parameterNumberName":"U-component_of_WINDS"},"data":[0.0,0.0,0.0,0.0,0.0,0.0,0.0,0.0,0.0,0.0,0.0,0.0,0.0,0.0,0.0,0.0,0.0,0.0,0.0,0.0,0.0,0.0,0.0,0.0,0.0,0.0,0.0,0.0,0.0,0.0,0.0,0.0,0.0,0.0,0.0,0.0,0.0,0.0,0.0,0.0,0.0,0.0,0.0,0.0,0.0,0.0,0.0,0.0,0.0,0.0,0.0,0.0,0.0,0.0,0.0,0.0,0.0,0.0,0.0,0.0,0.0,0.0,0.0,0.0,0.0,0.0,0.0,0.0,0.0,0.0,0.0,0.0,0.0,0.0,0.0,0.0,0.0,0.0,0.0,0.0,0.0,0.0,0.0,0.0,0.0,0.0,0.0,0.0,0.0,0.0,0.0,6.1963,6.4077,6.5413,6.5413,6.4771,6.3243,6.0568,0.0,0.0,0.0,0.0,0.0,0.0,0.0,0.0,0.0,0.0,0.0,0.0,0.0,0.0,0.0,0.0,0.0,0.0,0.0,0.0,0.0,0.0,0.0,0.0,0.0,0.0,0.0,0.0,0.0,0.0,0.0,0.0,0.0,0.0,0.0,0.0,0.0,0.0,0.0,0.0,0.0,0.0,0.0,0.0,0.0,0.0,0.0,0.0,0.0,0.0,0.0,0.0,0.0,0.0,0.0,0.0,0.0,0.0,0.0,0.0,0.0,0.0,0.0,0.0,0.0,0.0,0.0,0.0,0.0,0.0,0.0,0.0,0.0,0.0,0.0,0.0,0.0,0.0,0.0,0.0,0.0,0.0,0.0,0.0,0.0,0.0,0.0,0.0,0.0,0.0,0.0,0.0,0.0,0.0,0.0,0.0,0.0,0.0,0.0,0.0,0.0,0.0,0.0,0.0,5.9994,6.4332,6.5177,6.5413,6.5413,6.5299,6.3851,6.0606,0.0,0.0,0.0,0.0,0.0,0.0,0.0,0.0,0.0,0.0,0.0,0.0,0.0,0.0,0.0,0.0,0.0,0.0,0.0,0.0,0.0,0.0,0.0,0.0,0.0,0.0,0.0,0.0,0.0,0.0,0.0,0.0,0.0,0.0,0.0,0.0,0.0,0.0,0.0,0.0,0.0,0.0,0.0,0.0,0.0,0.0,0.0,0.0,0.0,0.0,0.0,0.0,0.0,0.0,0.0,0.0,0.0,0.0,0.0,0.0,0.0,0.0,0.0,0.0,0.0,0.0,0.0,0.0,0.0,0.0,0.0,0.0,0.0,0.0,0.0,0.0,0.0,0.0,0.0,0.0,0.0,0.0,0.0,0.0,0.0,0.0,0.0,0.0,0.0,0.0,0.0,0.0,0.0,0.0,0.0,0.0,0.0,0.0,0.0,0.0,0.0,0.0,0.0,5.9286,6.0775,6.4951,6.5413,6.5413,6.5413,6.5216,6.3736,6.0596,5.8219,0.0,0.0,0.0,0.0,0.0,0.0,0.0,0.0,0.0,0.0,0.0,0.0,0.0,0.0,0.0,0.0,0.0,0.0,0.0,0.0,0.0,0.0,0.0,0.0,0.0,0.0,0.0,0.0,0.0,0.0,0.0,0.0,0.0,0.0,0.0,0.0,0.0,0.0,0.0,0.0,0.0,0.0,0.0,0.0,0.0,0.0,0.0,0.0,0.0,0.0,0.0,0.0,0.0,0.0,0.0,0.0,0.0,0.0,0.0,0.0,0.0,0.0,0.0,0.0,0.0,0.0,0.0,0.0,0.0,0.0,0.0,0.0,0.0,0.0,0.0,0.0,0.0,0.0,0.0,0.0,0.0,0.0,0.0,0.0,0.0,0.0,0.0,0.0,0.0,0.0,0.0,0.0,0.0,0.0,0.0,0.0,0.0,0.0,0.0,0.0,0.0,0.0,6.0993,6.2279,6.4826,6.5022,6.5018,6.5097,6.4693,6.3218,6.0398,5.8241,0.0,0.0,0.0,0.0,0.0,0.0,0.0,0.0,0.0,0.0,0.0,0.0,0.0,0.0,0.0,0.0,0.0,0.0,0.0,0.0,0.0,0.0,0.0,0.0,0.0,0.0,0.0,0.0,0.0,0.0,0.0,0.0,0.0,0.0,0.0,0.0,0.0,0.0,0.0,0.0,0.0,0.0,0.0,0.0,0.0,0.0,0.0,0.0,0.0,0.0,0.0,0.0,0.0,0.0,0.0,0.0,0.0,0.0,0.0,0.0,0.0,0.0,0.0,0.0,0.0,0.0,0.0,0.0,0.0,0.0,0.0,0.0,0.0,0.0,0.0,0.0,0.0,0.0,0.0,0.0,0.0,0.0,0.0,0.0,0.0,0.0,0.0,0.0,0.0,0.0,0.0,0.0,0.0,0.0,0.0,0.0,0.0,0.0,0.0,0.0,0.0,0.0,6.1603,6.4407,6.422,6.3963,6.3922,6.4166,6.3702,6.2318,5.9832,5.7747,0.0,0.0,0.0,0.0,0.0,0.0,0.0,0.0,0.0,0.0,0.0,0.0,0.0,0.0,0.0,0.0,0.0,0.0,0.0,0.0,0.0,0.0,0.0,0.0,0.0,0.0,0.0,0.0,0.0,0.0,0.0,0.0,0.0,0.0,0.0,0.0,0.0,0.0,0.0,0.0,0.0,0.0,0.0,0.0,0.0,0.0,0.0,0.0,0.0,0.0,0.0,0.0,0.0,0.0,0.0,0.0,0.0,0.0,0.0,0.0,0.0,0.0,0.0,0.0,0.0,0.0,0.0,0.0,0.0,0.0,0.0,0.0,0.0,0.0,0.0,0.0,0.0,0.0,0.0,0.0,0.0,0.0,0.0,0.0,0.0,0.0,0.0,0.0,0.0,0.0,0.0,0.0,0.0,0.0,0.0,0.0,0.0,0.0,0.0,0.0,0.0,0.0,5.9739,6.2168,0.0,6.3519,6.3502,6.3589,6.3165,6.1608,5.8674,0.0,0.0,0.0,0.0,0.0,0.0,0.0,0.0,0.0,0.0,0.0,0.0,0.0,0.0,0.0,0.0,0.0,0.0,0.0,0.0,0.0,0.0,0.0,0.0,0.0,0.0,0.0,0.0,0.0,0.0,0.0,0.0,0.0,0.0,0.0,0.0,0.0,0.0,0.0,0.0,0.0,0.0,0.0,0.0,0.0,0.0,0.0,0.0,0.0,0.0,0.0,0.0,0.0,0.0,0.0,0.0,0.0,0.0,0.0,0.0,0.0,0.0,0.0,0.0,0.0,0.0,0.0,0.0,0.0,0.0,0.0,0.0,0.0,0.0,0.0,0.0,0.0,0.0,0.0,0.0,0.0,0.0,0.0,0.0,0.0,0.0,0.0,0.0,0.0,0.0,0.0,0.0,0.0,0.0,0.0,0.0,0.0,0.0,0.0,0.0,0.0,0.0,5.6814,5.917,6.124,0.0,6.2787,6.2775,6.2897,6.2414,6.0836,5.7786,0.0,0.0,0.0,0.0,0.0,0.0,0.0,0.0,0.0,0.0,0.0,0.0,0.0,0.0,0.0,0.0,0.0,0.0,0.0,0.0,0.0,0.0,0.0,0.0,0.0,0.0,0.0,0.0,0.0,0.0,0.0,0.0,0.0,0.0,0.0,0.0,0.0,0.0,0.0,0.0,0.0,0.0,0.0,0.0,0.0,0.0,0.0,0.0,0.0,0.0,0.0,0.0,0.0,0.0,0.0,0.0,0.0,0.0,0.0,0.0,0.0,0.0,0.0,0.0,0.0,0.0,0.0,0.0,0.0,0.0,0.0,0.0,0.0,0.0,0.0,0.0,0.0,0.0,0.0,0.0,0.0,0.0,0.0,0.0,0.0,0.0,0.0,0.0,0.0,0.0,0.0,0.0,0.0,0.0,0.0,0.0,0.0,0.0,0.0,0.0,0.0,0.0,5.7245,6.0407,6.2438,6.2073,6.1706,6.1643,6.1985,6.1458,5.9991,0.0,0.0,0.0,0.0,0.0,0.0,0.0,0.0,0.0,0.0,0.0,0.0,0.0,0.0,0.0,0.0,0.0,0.0,0.0,0.0,0.0,0.0,0.0,0.0,0.0,0.0,0.0,0.0,0.0,0.0,0.0,0.0,0.0,0.0,0.0,0.0,0.0,0.0,0.0,0.0,0.0,0.0,0.0,0.0,0.0,0.0,0.0,0.0,0.0,0.0,0.0,0.0,0.0,0.0,0.0,0.0,0.0,0.0,0.0,0.0,0.0,0.0,0.0,0.0,0.0,0.0,0.0,0.0,0.0,0.0,0.0,0.0,0.0,0.0,0.0,0.0,0.0,0.0,0.0,0.0,0.0,0.0,0.0,0.0,0.0,0.0,0.0,0.0,0.0,0.0,0.0,0.0,0.0,0.0,0.0,0.0,0.0,0.0,0.0,0.0,0.0,0.0,0.0,5.7601,6.0622,6.2744,6.2958,6.2903,6.2888,6.2985,6.2813,6.1227,5.7732,0.0,0.0,0.0,0.0,0.0,0.0,0.0,0.0,0.0,0.0,0.0,0.0,0.0,0.0,0.0,0.0,0.0,0.0,0.0,0.0,0.0,0.0,0.0,0.0,0.0,0.0,0.0,0.0,0.0,0.0,0.0,0.0,0.0,0.0,0.0,0.0,0.0,0.0,0.0,0.0,0.0,0.0,0.0,0.0,0.0,0.0,0.0,0.0,0.0,0.0,0.0,0.0,0.0,0.0,0.0,0.0,0.0,0.0,0.0,0.0,0.0,0.0,0.0,0.0,0.0,0.0,0.0,0.0,0.0,0.0,0.0,0.0,0.0,0.0,0.0,0.0,0.0,0.0,0.0,0.0,0.0,0.0,0.0,0.0,0.0,0.0,0.0,0.0,0.0,0.0,0.0,0.0,0.0,0.0,0.0,0.0,0.0,0.0,0.0,0.0,0.0,0.0,5.8688,6.1292,6.3097,6.3372,6.3385,6.3385,6.3385,6.3385,6.2083,5.9006,0.0,0.0,0.0,0.0,0.0,0.0,0.0,0.0,0.0,0.0,0.0,0.0,0.0,0.0,0.0,0.0,0.0,0.0,0.0,0.0,0.0,0.0,0.0,0.0,0.0,0.0,0.0,0.0,0.0,0.0,0.0,0.0,0.0,0.0,0.0,0.0,0.0,0.0,0.0,0.0,0.0,0.0,0.0,0.0,0.0,0.0,0.0,0.0,0.0,0.0,0.0,0.0,0.0,0.0,0.0,0.0,0.0,0.0,0.0,0.0,0.0,0.0,0.0,0.0,0.0,0.0,0.0,0.0,0.0,0.0,0.0,0.0,0.0,0.0,0.0,0.0,0.0,0.0,0.0,0.0,0.0,0.0,0.0,0.0,0.0,0.0,0.0,0.0,0.0,0.0,0.0,0.0,0.0,0.0,0.0,0.0,0.0,0.0,0.0,0.0,0.0,0.0,6.0266,6.2314,6.3528,6.3599,6.3635,6.3635,6.3635,6.3635,6.2803,6.0839,0.0,0.0,0.0,0.0,0.0,0.0,0.0,0.0,0.0,0.0,0.0,0.0,0.0,0.0,0.0,0.0,0.0,0.0,0.0,0.0,0.0,0.0,0.0,0.0,0.0,0.0,0.0,0.0,0.0,0.0,0.0,0.0,0.0,0.0,0.0,0.0,0.0,0.0,0.0,0.0,0.0,0.0,0.0,0.0,0.0,0.0,0.0,0.0,0.0,0.0,0.0,0.0,0.0,0.0,0.0,0.0,0.0,0.0,0.0,0.0,5.4138,0.0,0.0,0.0,0.0,0.0,0.0,0.0,0.0,0.0,0.0,0.0,0.0,0.0,0.0,0.0,0.0,0.0,0.0,0.0,0.0,0.0,0.0,0.0,0.0,0.0,0.0,0.0,0.0,0.0,0.0,0.0,0.0,0.0,0.0,0.0,0.0,0.0,0.0,0.0,0.0,0.0,6.171,6.3423,6.4583,6.5233,6.5304,6.5304,6.5304,6.5304,6.4458,6.252,6.1417,0.0,0.0,0.0,0.0,0.0,0.0,0.0,0.0,0.0,0.0,0.0,0.0,0.0,0.0,0.0,0.0,0.0,0.0,0.0,0.0,0.0,0.0,0.0,0.0,0.0,0.0,0.0,0.0,0.0,0.0,0.0,0.0,0.0,0.0,0.0,0.0,0.0,0.0,0.0,0.0,0.0,0.0,0.0,0.0,0.0,0.0,0.0,0.0,0.0,0.0,0.0,0.0,0.0,0.0,0.0,0.0,0.0,0.0,0.0,0.0,5.5298,0.0,0.0,0.0,0.0,0.0,0.0,0.0,0.0,0.0,0.0,0.0,0.0,0.0,0.0,0.0,0.0,0.0,0.0,0.0,0.0,0.0,0.0,0.0,0.0,0.0,0.0,0.0,0.0,0.0,0.0,0.0,0.0,0.0,0.0,0.0,0.0,0.0,0.0,0.0,0.0,6.2227,6.4108,6.5332,6.5768,6.5804,6.5804,6.5804,6.5804,6.5387,6.4366,6.3019,0.0,0.0,0.0,0.0,0.0,0.0,0.0,0.0,0.0,0.0,0.0,0.0,0.0,0.0,0.0,0.0,0.0,0.0,0.0,0.0,0.0,0.0,0.0,0.0,0.0,0.0,0.0,0.0,0.0,0.0,0.0,0.0,0.0,0.0,0.0,0.0,0.0,0.0,0.0,0.0,0.0,0.0,0.0,0.0,0.0,0.0,0.0,0.0,0.0,0.0,0.0,0.0,0.0,5.7884,5.8141,5.8094,5.8094,5.7966,5.7623,5.6592,5.6765,5.779,5.7672,0.0,0.0,0.0,0.0,0.0,0.0,0.0,0.0,0.0,0.0,0.0,0.0,0.0,0.0,0.0,0.0,0.0,0.0,0.0,0.0,0.0,0.0,0.0,0.0,6.0681,6.0433,5.7947,0.0,0.0,0.0,0.0,0.0,0.0,0.0,0.0,0.0,0.0,0.0,6.2978,6.4879,6.6053,6.6196,6.6196,6.6196,6.6196,6.6089,6.6018,6.6018,6.4381,6.3077,0.0,0.0,0.0,0.0,0.0,0.0,0.0,0.0,0.0,0.0,0.0,0.0,0.0,0.0,0.0,0.0,0.0,0.0,0.0,0.0,0.0,0.0,0.0,0.0,0.0,0.0,0.0,0.0,0.0,0.0,0.0,0.0,5.1881,5.2029,0.0,0.0,0.0,0.0,0.0,0.0,0.0,0.0,0.0,0.0,0.0,0.0,0.0,5.8163,5.797,5.7797,5.7715,5.7697,5.7456,5.7363,5.7351,5.7351,5.732,5.7276,5.7114,0.0,5.7785,5.7769,0.0,0.0,0.0,0.0,0.0,0.0,0.0,0.0,0.0,0.0,0.0,0.0,0.0,0.0,0.0,0.0,0.0,0.0,0.0,0.0,0.0,0.0,6.0623,6.1495,6.1779,6.1911,0.0,5.9615,5.736,5.7781,5.7231,0.0,0.0,0.0,0.0,0.0,0.0,0.0,6.5721,6.6523,6.7096,6.7739,6.781,6.781,6.781,6.7204,6.6847,6.6847,6.5939,6.5254,6.4947,6.3506,0.0,0.0,0.0,0.0,0.0,0.0,0.0,0.0,0.0,0.0,0.0,0.0,0.0,0.0,0.0,0.0,0.0,0.0,0.0,0.0,0.0,0.0,0.0,0.0,0.0,0.0,0.0,0.0,0.0,5.396,5.5081,5.5974,5.5725,5.5734,0.0,0.0,0.0,0.0,0.0,0.0,0.0,0.0,0.0,5.8065,5.8458,5.8574,5.8354,5.8221,5.8353,5.8819,5.8648,5.8565,5.8565,5.8565,5.8565,5.8565,5.8565,5.8661,5.8771,5.8087,5.7971,5.8318,0.0,0.0,0.0,0.0,6.0082,5.9987,5.9329,5.9096,5.9028,5.8576,0.0,0.0,0.0,0.0,0.0,0.0,0.0,0.0,0.0,0.0,6.1362,6.2422,6.2657,6.2875,6.3715,6.2559,6.1221,0.0,6.0943,6.0522,5.8511,0.0,0.0,0.0,0.0,6.4314,6.6278,6.7179,6.7739,6.806,6.8096,6.8096,6.8096,6.781,6.7632,6.7632,6.6918,6.6431,6.6312,6.5032,6.3602,0.0,0.0,0.0,0.0,0.0,0.0,0.0,0.0,0.0,0.0,0.0,0.0,0.0,0.0,0.0,0.0,0.0,0.0,0.0,0.0,0.0,0.0,0.0,0.0,0.0,0.0,0.0,0.0,5.6197,5.699,5.894,5.76,5.7099,0.0,0.0,0.0,0.0,0.0,0.0,5.7297,5.9008,5.9363,5.8008,5.8726,5.9094,5.8999,5.8993,5.9427,6.0217,6.0217,6.0217,6.0217,6.0217,6.0217,6.0217,6.0217,6.0217,6.0099,5.8809,5.8452,5.8797,5.9644,6.0168,6.0538,6.1441,6.1827,6.1791,6.1165,6.0966,6.081,5.9725,5.9277,5.8934,5.7504,0.0,0.0,0.0,0.0,6.032,6.1479,6.1873,6.2213,6.3268,6.3497,6.3715,6.4548,6.5111,6.5027,0.0,6.4179,6.4076,6.1371,0.0,0.0,0.0,0.0,6.5946,6.7452,6.8351,6.897,6.9349,6.9376,6.936,6.9309,6.8952,6.8703,6.8703,6.781,6.7275,6.7275,6.6323,6.5198,6.3855,0.0,0.0,0.0,0.0,0.0,0.0,0.0,0.0,0.0,0.0,0.0,0.0,0.0,0.0,0.0,0.0,0.0,0.0,0.0,0.0,0.0,0.0,0.0,0.0,0.0,0.0,0.0,0.0,0.0,5.9257,5.7814,0.0,0.0,0.0,0.0,5.719,5.927,5.9788,5.7863,6.003,6.0406,5.8428,5.9134,5.9918,6.0652,6.0688,6.1086,6.1883,6.1883,6.1883,6.1883,6.1883,6.1883,6.1883,6.1883,6.1883,6.1774,6.0171,6.0178,6.1232,6.1287,6.1961,6.279,6.1802,6.1334,6.1086,6.0042,5.9598,5.996,6.2696,6.3346,6.2645,6.0518,5.9692,0.0,0.0,6.1182,6.1497,6.2765,6.3104,6.3322,6.4156,6.433,6.4548,6.5381,6.7039,6.7806,0.0,6.6105,6.6729,6.6859,0.0,6.8051,6.7954,6.8043,6.8748,7.0546,7.08,7.1364,7.272,7.2846,7.2776,7.2566,7.1228,7.0371,7.0371,6.8908,6.8024,6.8024,6.7308,6.678,6.6415,6.4115,0.0,0.0,0.0,0.0,0.0,0.0,0.0,0.0,0.0,0.0,0.0,0.0,0.0,0.0,0.0,0.0,0.0,0.0,0.0,0.0,0.0,0.0,0.0,0.0,0.0,0.0,0.0,0.0,6.0152,5.8606,0.0,5.9353,5.8567,5.8081,5.8308,5.8896,5.8944,5.8206,5.9987,6.0679,5.997,6.0724,6.1528,6.2331,6.2875,6.3526,6.4316,6.4823,6.5077,6.5077,6.5077,6.5077,6.5077,6.5077,6.5077,6.504,6.4461,6.3291,6.1835,6.2351,6.248,6.2403,6.252,6.2208,6.1669,6.1272,6.1125,6.1234,6.234,6.2927,6.3106,6.2318,6.2378,6.2768,6.3177,6.3276,6.3387,6.3858,6.4367,6.4946,6.5736,6.6351,6.6931,6.7735,6.8493,6.8923,6.8715,6.9113,6.9026,6.7548,6.8633,6.9557,6.9063,7.0163,7.1368,7.2404,7.2542,7.2733,7.324,7.3303,7.3278,7.3182,7.2671,7.2324,7.2195,7.0701,6.9801,6.9658,6.8417,6.7452,6.6852,6.6197,6.4808,0.0,0.0,0.0,0.0,0.0,0.0,0.0,0.0,0.0,0.0,0.0,0.0,0.0,0.0,0.0,0.0,0.0,0.0,0.0,0.0,0.0,0.0,0.0,0.0,0.0,0.0,5.8663,6.0992,5.9115,5.8372,6.0388,5.9035,5.8349,5.9157,5.9227,5.921,5.921,6.0738,6.1745,6.1998,6.2795,6.3737,6.4801,6.5337,6.6033,6.683,6.7337,6.7627,6.7627,6.7627,6.7627,6.7627,6.7627,6.7627,6.7627,6.7627,6.6351,6.4389,6.4113,6.3526,6.2868,6.3425,6.3273,6.2795,6.2795,6.2795,6.2795,6.2795,6.3164,6.3606,6.3606,6.3968,6.4475,6.4729,6.4801,6.4946,6.5482,6.6025,6.6605,6.7402,6.8235,6.8967,6.9481,7.0025,7.0524,7.1068,7.1185,7.0733,6.9355,7.0505,7.1467,7.1184,7.22,7.3276,7.4101,7.406,7.4062,7.4255,7.4291,7.4257,7.4197,7.3854,7.3613,7.3629,7.2282,7.1469,7.1367,6.9796,6.8646,6.808,6.7603,6.6033,6.3264,0.0,0.0,0.0,0.0,0.0,0.0,0.0,0.0,0.0,0.0,0.0,0.0,0.0,0.0,0.0,0.0,0.0,0.0,0.0,0.0,0.0,0.0,0.0,5.9161,5.8483,5.88,6.1564,5.9134,5.8011,5.9981,5.914,5.8812,5.9572,6.0441,6.0905,6.0905,6.244,6.3722,6.4475,6.5301,6.646,6.8046,6.8119,6.8525,6.93,6.9337,6.9344,6.9344,6.9344,6.9344,6.9344,6.9344,6.9344,6.9344,6.9344,6.9337,6.9091,6.6649,6.5236,6.4511,6.4511,6.4511,6.4475,6.4475,6.4475,6.4475,6.4475,6.4475,6.4511,6.4511,6.4511,6.4729,6.5482,6.57,6.6098,6.7648,6.8082,6.83,6.9119,6.9916,7.0496,7.0496,7.1675,7.2754,7.2754,7.2138,7.1849,7.2609,7.3406,7.4091,7.4536,7.4242,0.0,7.5669,7.5427,7.5367,7.5974,7.6029,7.5996,7.585,7.4757,7.4252,7.4608,7.3599,7.3023,7.3149,7.1496,7.0466,7.0253,6.8219,6.6359,6.4637,0.0,0.0,0.0,0.0,0.0,0.0,0.0,0.0,0.0,0.0,0.0,0.0,0.0,0.0,0.0,0.0,0.0,0.0,0.0,0.0,0.0,0.0,5.7626,5.8182,5.7753,5.7879,5.9247,5.8609,5.8501,5.9632,6.0007,6.0224,6.0435,6.2295,6.3418,6.3418,6.5482,6.6786,6.7003,6.7808,6.8685,6.9727,7.0263,7.0951,7.1748,7.2327,7.2609,7.2609,7.2609,7.2609,7.2609,7.2609,7.2609,7.2609,7.2609,7.2247,7.1494,6.9112,6.7735,6.6996,6.6996,6.6641,6.6134,6.6134,6.6134,6.6134,6.6134,6.6533,6.6996,6.6996,6.7409,6.7924,6.8141,6.8214,6.8467,6.9474,7.0154,7.0734,7.1567,7.2364,7.2935,7.2935,7.3261,7.3724,7.4339,7.4267,7.4013,7.3615,7.4231,7.4823,7.4942,7.5352,0.0,7.612,7.6041,7.6147,7.6664,7.6733,7.6717,7.6668,7.6359,7.6021,7.5644,7.4808,7.4316,7.4208,7.3155,7.2098,7.1015,6.9569,6.7802,0.0,0.0,0.0,0.0,0.0,0.0,0.0,0.0,0.0,0.0,0.0,0.0,0.0,0.0,0.0,0.0,0.0,0.0,0.0,0.0,0.0,0.0,5.7785,5.768,5.8002,5.7847,5.7876,5.8347,5.8993,5.9717,6.0543,6.1347,6.2078,6.2759,6.4432,6.5555,6.5881,6.7873,6.914,6.9459,7.0271,7.1068,7.1857,7.2283,7.2754,7.3225,7.3687,7.3905,7.3905,7.3905,7.3905,7.3905,7.3905,7.3905,7.3905,7.3905,7.3615,0.0,0.0,0.0,0.0,0.0,6.8206,6.7808,6.7808,6.7808,6.7808,6.7808,6.8134,6.8568,6.8887,6.9329,6.9844,7.0488,7.0669,7.085,7.1647,7.2183,7.2609,7.308,7.3832,7.4412,7.4412,7.4673,7.5044,7.5506,7.5615,0.0,7.4999,7.5289,7.5653,7.5875,7.6127,7.6367,7.6582,7.6426,7.6401,7.6668,7.67,7.67,7.67,7.6564,0.0,0.0,0.0,7.5058,7.4573,7.4065,0.0,0.0,0.0,7.0069,6.8874,6.8747,0.0,0.0,6.524,6.5118,0.0,0.0,0.0,0.0,0.0,0.0,0.0,0.0,0.0,0.0,0.0,0.0,0.0,0.0,0.0,0.0,5.7674,5.7629,5.842,5.8709,5.8818,5.8818,6.0079,6.1304,6.2317,6.3128,6.4222,6.5772,6.6786,6.7648,6.8372,0.0,0.0,0.0,0.0,7.3217,7.4013,7.405,7.4086,7.4166,7.4166,7.4166,7.4166,7.4166,7.4166,7.4166,7.4166,7.4166,7.4166,7.4166,7.4166,7.4086,7.3189,7.2001,7.0713,6.9989,6.9735,6.9735,6.9735,0.0,0.0,6.9735,6.9735,6.9844,7.0568,7.0778,7.1068,7.2464,7.2826,7.3008,7.3832,7.405,7.405,7.4166,7.4701,7.5244,7.5244,7.5804,7.6284,7.6284,7.6284,7.6284,7.6284,7.6284,7.6442,7.6869,7.6582,7.645,7.6877,7.6574,7.6309,7.6367,0.0,0.0,7.6376,7.6129,7.6023,7.6281,7.6012,7.5512,7.4743,7.4595,7.4223,7.359,7.2875,7.2633,7.2818,7.2102,7.1776,7.1691,6.8653,6.782,0.0,0.0,0.0,0.0,0.0,0.0,0.0,0.0,0.0,0.0,0.0,0.0,0.0,0.0,0.0,5.9493,5.8851,5.8456,5.9246,6.0471,6.1304,6.1304,6.1593,6.2607,6.4685,6.5627,6.6489,6.7467,6.9422,7.0654,7.0798,7.2356,7.3297,7.3442,7.3579,7.405,7.4846,7.4882,7.518,7.5841,0.0,0.0,7.5841,7.5841,7.5841,7.5841,7.5841,7.5841,7.5841,7.5841,7.5841,7.5696,7.4239,7.3478,7.3189,7.3044,7.2971,7.2971,7.2971,7.2971,7.2971,7.2971,7.2971,7.3008,7.3189,7.3225,0.0,7.3579,7.3651,7.3832,7.4665,7.4882,7.5027,7.5659,7.5949,7.6066,7.6066,7.6175,7.6284,7.6284,7.6284,7.6284,7.6284,7.6284,7.6317,7.6426,7.6351,7.6317,7.6426,7.6351,7.645,7.6829,7.6869,7.6869,7.6869,7.681,7.6615,7.6317,7.6231,7.6135,7.5946,7.5912,7.5542,7.4804,7.4623,7.4248,7.3651,7.3506,7.3434,7.3406,7.1477,7.0717,0.0,0.0,0.0,0.0,0.0,0.0,0.0,0.0,0.0,0.0,0.0,5.713,0.0,0.0,5.9085,5.929,5.9468,5.9898,6.0688,6.1854,6.2433,6.2057,6.3404,6.504,6.6634,6.7518,6.8633,7.0219,7.1052,7.1849,7.2645,7.3832,7.4484,7.4484,7.4891,7.5297,7.5687,7.5687,7.5913,7.6284,7.6284,7.6284,7.6284,7.6284,7.6284,7.6284,7.6284,7.6284,7.6284,7.6284,7.6284,7.6211,7.5406,7.4854,7.4448,7.405,7.3905,7.3905,7.3905,7.3905,7.3905,7.3905,7.3905,7.3977,7.4375,7.4484,7.4593,7.4999,7.5116,7.5189,7.5615,7.5687,7.5804,7.6211,7.6284,7.6284,7.6284,7.6284,7.6428,7.6827,7.6899,7.7044,7.7443,7.7507,7.737,7.6972,7.7225,7.7507,7.7507,7.7507,7.7581,7.784,7.7865,7.7865,7.7865,7.7865,7.7576,7.6953,7.6899,7.6718,7.632,7.6284,7.6094,7.5696,7.5687,7.5506,7.5116,7.5116,7.5116,7.508,7.4283,7.3486,0.0,0.0,0.0,0.0,0.0,0.0,0.0,0.0,5.7148,5.6258,5.727,5.8232,5.7976,5.9103,5.9917,5.942,6.0296,6.1412,6.2535,6.3526,6.3816,6.3042,6.5366,6.7474,6.8553,6.9401,7.0669,7.2573,7.2392,7.2754,7.405,7.4882,7.5317,7.5317,7.5949,7.6284,7.6284,7.6284,7.6284,7.6284,7.6284,7.6284,7.6284,7.6284,7.6284,7.6284,7.6284,7.6284,7.6284,7.6284,7.6284,7.6284,7.6284,7.5913,7.5244,7.4601,7.4384,7.4384,7.4384,7.4384,7.4384,7.4384,7.4384,7.4492,7.5136,7.5317,7.547,7.6139,7.6284,7.6284,7.6284,7.6284,7.6284,7.6284,7.6428,7.6537,7.6537,7.6646,7.6972,7.7624,7.7724,7.7941,7.8593,7.8955,7.8847,7.7869,7.8267,7.8702,7.8702,7.8702,7.8702,7.8702,7.8702,7.8702,7.8702,7.8702,7.8412,7.776,7.7724,7.7434,7.6791,7.661,7.6537,7.6537,7.6392,7.6284,7.6284,7.6284,7.6284,7.6284,7.6284,7.5623,5.6056,5.6608,0.0,5.5863,5.5691,5.577,0.0,0.0,5.6707,5.6994,5.7755,5.8396,5.8345,5.9064,6.032,6.2345,6.2216,6.2643,6.4867,6.6496,6.7141,6.6344,6.7213,6.8734,7.0907,7.1849,7.2428,7.2682,7.3941,7.4774,7.4955,7.5724,7.6175,7.6175,7.6247,7.6284,7.6284,7.6284,7.6284,7.6284,7.6284,7.6284,7.6284,7.6284,7.6284,7.6284,7.6284,7.6284,7.6284,7.6284,7.6284,7.6284,7.6284,7.6247,7.6139,7.6066,7.603,7.603,7.603,7.603,7.603,7.603,7.603,7.6066,7.6139,7.6175,7.6175,7.6284,7.6284,7.6284,7.6284,7.6284,7.6284,7.6284,7.6863,7.737,7.737,7.7941,7.8448,7.8557,7.8557,7.8593,7.8666,7.9897,8.0323,7.8774,7.8629,7.8702,7.8702,7.8702,7.8702,7.8702,7.8702,7.8702,7.8702,7.8702,7.8666,7.8557,7.8557,7.8521,7.8448,7.7769,7.737,7.737,7.6646,7.6284,7.6284,7.6284,7.6284,7.6284,7.6284,7.6211,5.7254,0.0,0.0,0.0,5.7325,5.7686,5.7734,5.8592,5.9073,5.811,5.8528,5.9101,5.9101,6.0152,6.134,0.0,6.3411,6.4787,6.6706,6.7575,6.8553,7.0074,7.0545,7.1124,7.2102,7.2501,7.3297,7.4682,7.4991,7.5317,7.5768,7.6139,7.6284,7.6284,7.6284,7.6284,7.6284,7.6284,7.6284,7.6284,7.6284,7.6284,7.6284,7.6284,7.6284,7.6284,7.6284,7.6284,7.6284,7.6284,7.6284,7.6284,7.6284,7.6284,7.6284,7.6284,7.6284,7.6284,7.6284,7.6284,7.6284,7.6284,7.6284,7.6284,7.6284,7.6284,7.6284,7.6284,7.6284,7.6284,7.6284,7.6646,7.7008,7.7008,7.7615,7.8195,7.8195,7.8448,7.8992,7.9924,8.0105,8.0404,8.1309,8.2034,8.2251,8.1608,8.15,8.15,8.15,8.15,8.15,8.15,8.15,8.15,8.15,8.15,8.1092,8.0142,8.0105,7.9671,7.8738,7.8376,7.8195,7.8195,7.7869,7.7696,7.7696,7.7696,7.7696,7.7696,7.7696,7.7696,5.81,0.0,0.0,5.786,5.8323,5.8835,5.8841,5.9906,6.0481,5.9028,5.9536,6.0254,6.0254,6.1593,6.2824,6.3259,6.4968,6.6822,6.8452,6.9024,7.0147,7.2428,7.2899,7.3116,7.3325,7.3551,7.4319,7.5841,7.5615,7.5687,7.6284,7.6191,7.6182,7.632,7.6089,7.608,7.6284,7.6182,7.6182,7.6284,7.6284,7.6284,7.6284,7.6284,7.6284,7.632,7.6537,7.6646,7.6646,7.6863,7.6972,7.6972,7.6972,7.6972,7.6972,7.6972,7.6682,7.6284,7.6284,7.6284,7.6284,7.6284,7.6284,7.6284,7.6284,7.6465,7.6646,7.6646,7.6791,7.6972,7.6972,7.7398,7.7833,7.7833,7.8448,7.91,7.9309,7.9535,8.0114,8.1482,8.1771,8.2143,8.3311,8.3673,8.3818,8.3818,8.4035,8.3999,8.3573,8.3492,8.3492,8.3492,8.3492,8.3492,8.3492,8.3492,8.2985,8.1844,8.1771,8.1237,8.0078,7.9607,7.9345,7.9345,7.8919,7.8702,7.8702,7.8702,7.8702,7.8702,7.8702,7.8702,0.0,0.0,6.0226,5.8282,5.8111,5.8403,5.8403,5.9048,5.9621,5.9579,6.0833,6.1919,6.1919,6.3237,6.483,6.638,6.7358,6.8488,7.009,7.1603,7.2609,7.2682,7.3398,7.4158,0.0,7.5732,7.5913,7.5208,7.5841,7.6284,7.6284,7.5916,7.5881,7.6275,7.5531,7.5496,7.6275,7.5898,7.5898,7.6284,7.6284,7.6284,7.6284,7.6284,7.6284,7.6356,7.7117,7.7479,7.7507,7.8303,7.8629,7.8629,7.8629,7.8629,7.8629,7.8629,7.7651,7.6284,7.6284,7.6284,7.6284,7.6284,7.6284,7.6284,7.6284,7.6827,7.7479,7.7479,7.8014,7.8629,7.8629,7.8666,7.8666,7.8666,7.9281,8.0069,8.0866,8.1644,8.245,8.3274,8.3419,8.3456,8.3492,8.4144,8.4651,8.4651,8.5339,8.5267,8.3709,8.3492,8.3492,8.3492,8.3492,8.3492,8.3492,8.3492,8.3492,8.3419,8.3419,8.3428,8.3347,8.1853,8.1047,8.1047,7.949,7.8702,7.8702,7.8702,7.8702,7.8702,7.8702,7.8702,6.0772,0.0,5.9363,5.8439,5.8298,5.8528,5.9065,5.9826,6.0405,6.0405,6.2284,6.3916,6.3916,6.519,6.6792,6.8415,6.8304,6.8915,7.1567,7.1921,7.2283,7.3362,7.398,0.0,0.0,0.0,0.0,7.586,7.5633,7.5611,7.5873,7.5522,7.5487,7.5873,7.614,7.641,7.6693,7.787,7.8412,7.8287,7.9086,7.949,7.949,7.949,7.949,7.9499,7.978,7.9888,7.9888,8.0178,8.0287,8.025,7.9707,7.9499,7.9426,7.8883,7.8376,7.7869,7.7869,7.7869,7.7869,7.7869,7.7869,7.7869,7.7869,7.8086,7.8303,7.8303,7.8484,7.8702,7.8702,7.91,7.9635,8.0178,8.0911,8.1717,8.2514,8.2912,8.3228,8.3751,8.4102,8.4386,8.4607,8.5114,8.552,8.552,8.5728,8.5692,8.5158,8.5086,8.5086,8.5086,8.5086,8.5086,8.5086,8.5086,8.4868,8.4325,8.4289,8.4071,8.3528,8.2985,8.2686,8.2686,8.2152,8.1898,8.1898,8.1898,8.1898,8.1898,8.1898,8.1898,6.1035,5.9972,5.8963,5.8849,5.9029,5.9391,5.9898,6.0652,6.1304,6.16,6.3382,6.5056,6.5604,6.6545,6.8077,7.0683,7.0644,7.1233,7.384,7.3986,7.4083,7.4698,7.46,7.4716,0.0,0.0,0.0,7.6019,7.5469,7.5208,7.5478,7.5394,7.5509,7.5908,7.6406,7.6807,7.7109,7.8241,7.8853,7.8881,8.0388,8.0938,8.0685,8.0975,8.1119,8.1119,8.1418,8.1527,8.1563,8.1853,8.1961,8.1925,8.1382,8.1201,8.1128,8.0621,8.0404,8.0268,7.91,7.8702,7.8702,7.8702,7.8702,7.8702,7.8702,7.8883,7.9209,7.9499,7.9752,8.0042,8.0332,8.0802,8.1309,8.1817,8.2369,8.2912,8.3524,8.3824,8.3985,8.4166,8.457,8.4869,8.4952,8.5562,8.6217,8.6641,8.6733,8.6634,8.6344,8.6552,8.6733,8.6733,8.6733,8.6624,8.6298,8.6298,8.5945,8.5194,8.5122,8.4904,8.4397,8.4071,8.3926,8.3926,8.3637,8.3492,8.3492,8.3492,8.3492,8.3492,8.3492,8.3492,5.988,5.9067,5.914,5.9561,6.0224,6.0797,6.0833,6.1448,6.2216,6.3011,6.4057,6.5296,0.0,0.0,6.8702,7.3038,7.4078,7.4908,7.6586,7.7454,7.7498,0.0,0.0,0.0,0.0,0.0,0.0,7.5584,0.0,7.5044,7.5063,7.5447,7.5844,7.6249,7.6354,7.6739,7.7504,7.7211,7.7514,7.8413,8.0334,8.0884,8.0214,8.1011,8.1337,8.1373,8.2152,8.2487,8.2559,8.3311,8.36,8.36,8.3564,8.3564,8.3573,8.3528,8.3492,8.3057,8.0006,7.8955,7.8955,7.8955,7.8955,7.8955,7.8955,7.9499,8.025,8.1011,8.178,8.2559,8.3311,8.3492,8.3492,8.35,8.3537,8.3633,8.3936,8.4374,8.4638,8.4493,8.4869,8.5056,8.4682,8.5621,8.6813,8.7946,8.8176,8.7906,8.7158,8.7737,8.8208,8.8208,8.8208,8.7882,8.7121,8.7049,8.6769,8.6054,8.6018,8.5982,8.5945,8.523,8.4796,8.476,8.3999,8.36,8.36,8.36,8.36,8.36,8.36,8.36,5.9932,5.9685,5.963,6.0323,6.0652,6.0978,6.1557,6.184,6.2125,6.2523,6.3981,6.5349,0.0,0.0,0.0,7.2283,7.2469,0.0,7.5256,7.5728,0.0,7.5035,0.0,7.503,7.5209,7.4577,0.0,0.0,7.4527,7.4422,7.4725,7.507,7.5419,7.5834,7.7032,7.771,7.7852,7.8962,8.0507,8.2495,8.3032,8.3628,8.4388,8.4569,8.4678,8.4678,8.4895,8.4977,8.5013,8.5185,8.5293,8.523,8.4615,8.4397,8.4325,8.3709,8.3492,8.3383,8.255,8.2296,8.2296,8.2296,8.2296,8.2296,8.2296,8.2405,8.2622,8.284,8.3021,8.3247,8.3456,8.3492,8.3563,8.3821,8.3853,8.3963,8.4292,8.4471,8.4462,8.4129,8.4584,8.5326,8.6153,8.6574,8.6893,8.7187,8.7709,8.8029,8.7913,8.8063,8.8208,8.8208,8.8208,8.8135,8.7918,8.7882,8.7809,8.7628,8.7592,8.7384,8.6815,8.6552,8.6153,8.5583,8.5402,8.5293,8.5293,8.5293,8.5293,8.5293,8.5293,8.5293,6.0275,6.0306,6.0405,6.1571,6.186,6.1924,6.2118,6.2436,6.2668,6.258,6.382,0.0,0.0,0.0,0.0,0.0,0.0,0.0,7.6597,7.6791,7.6265,0.0,7.494,0.0,7.4877,7.4354,7.4098,0.0,7.4137,7.4249,7.481,7.5333,7.5876,7.6422,7.7677,7.8312,7.8246,7.9681,8.0987,8.2173,8.3065,8.3804,8.4325,8.4687,8.5049,8.5366,8.5366,8.5583,8.5909,8.5909,8.5909,8.5873,8.5412,8.523,8.5149,8.4723,8.4542,8.4542,8.4542,8.4542,8.4434,8.3745,8.3492,8.3492,8.3492,8.3492,8.3564,8.3926,8.4035,8.407,8.4209,8.4402,8.4548,8.4515,8.4525,8.4515,8.4488,8.4788,8.501,8.4911,8.5075,8.5605,8.689,8.7118,8.729,8.7839,8.8275,8.8538,8.8634,8.8624,8.8731,8.8923,8.8943,8.8869,8.8741,8.8724,8.858,8.8208,8.8208,8.8027,8.7602,8.7556,8.7339,8.6914,8.6914,8.6914,8.6914,8.6914,8.6914,8.6914,8.6914,8.6914,6.0686,6.0942,6.1455,6.2845,6.3214,6.3102,6.2652,6.2937,6.3211,6.289,0.0,6.4561,6.6082,6.7066,6.9184,7.3824,0.0,7.6286,7.8514,7.852,7.7624,7.5781,7.4988,7.4565,7.4517,7.4286,7.415,7.415,7.4256,7.4537,7.5073,7.5951,7.6784,7.7546,7.8223,7.8585,7.8585,7.9658,8.0086,7.999,8.174,8.2554,8.2549,8.3237,8.3997,8.4784,8.484,8.5267,8.5909,8.5909,8.5909,8.5909,8.5909,8.5909,8.5909,8.5909,8.5909,8.5909,8.5909,8.5909,8.5656,8.4252,8.3818,8.3818,8.3818,8.3818,8.3963,8.4651,8.4868,8.4919,8.5137,8.5482,8.5673,8.5159,8.504,8.492,8.4573,8.51,8.5803,8.6183,8.5949,8.6049,8.7264,8.7472,8.783,8.8867,8.9039,8.9039,8.9039,8.9148,8.9364,8.9757,8.9841,8.9786,8.9494,8.9501,8.9277,8.857,8.8534,8.8461,8.8353,8.8353,8.8316,8.8208,8.8208,8.8208,8.8208,8.8208,8.8208,8.8208,8.8208,8.8208,6.0599,6.1788,6.2845,6.3142,6.3214,6.3218,6.3358,6.2456,0.0,0.0,0.0,6.2767,6.3939,6.623,6.8602,7.0599,0.0,0.0,0.0,0.0,7.5872,0.0,0.0,0.0,0.0,0.0,0.0,0.0,7.553,7.567,7.5143,7.6422,7.7581,7.8374,7.8514,7.8585,7.8585,7.8809,7.9544,8.0775,8.0829,8.1846,8.3697,8.386,8.4364,8.512,8.5513,0.0,8.5909,8.5909,8.5909,8.5909,8.5909,8.5909,8.5909,8.5909,8.5909,8.5909,8.5909,8.5909,8.5837,8.5583,8.5475,8.5475,8.5475,8.5475,8.5511,8.5656,8.5692,8.5633,8.5281,8.5258,8.5129,8.4301,8.4148,8.4198,8.4384,8.4989,8.5752,8.6471,8.6566,8.6778,8.7666,8.7818,8.7888,8.8075,8.8121,8.8121,8.8121,8.8741,8.921,8.9321,8.9662,8.9878,8.9806,9.0153,9.0328,9.0183,9.0183,8.9893,8.9205,8.9205,8.8869,8.8208,8.8208,8.8208,8.8208,8.8208,8.8208,8.8208,8.8208,8.8208,6.1086,6.1998,6.2693,6.3099,6.3214,6.3107,6.2647,0.0,0.0,0.0,0.0,6.249,6.3419,0.0,0.0,0.0,0.0,0.0,0.0,0.0,0.0,0.0,0.0,0.0,0.0,0.0,0.0,0.0,7.6187,7.6703,7.6327,7.7415,7.8188,7.8595,7.8585,7.8585,7.8585,7.8585,7.9102,8.0084,8.0299,8.1134,8.2444,8.2874,8.3637,8.4607,8.4811,8.5275,8.5909,8.5909,8.5909,8.5909,8.5909,8.5909,8.5909,8.5909,8.5909,8.5909,8.5909,8.5909,8.5909,8.5909,8.5909,8.5909,8.5909,8.5721,8.5548,8.5548,8.5366,8.5064,8.462,8.4682,8.4753,8.4514,8.4789,8.519,8.5511,8.5865,8.6368,8.7187,8.7328,8.7433,8.7831,8.7901,8.7901,8.7901,8.7901,8.7901,8.7901,8.8247,8.8585,8.8819,8.9039,8.9364,8.9877,9.0115,9.034,9.0561,9.0581,9.0436,9.0038,9.0002,8.9857,8.9449,8.9449,8.9449,8.9449,8.9449,8.9449,8.9449,8.9449,8.9449,6.1512,6.2136,6.2607,6.3099,6.3323,6.3178,6.2106,6.2101,0.0,0.0,6.1756,6.2409,6.3215,0.0,6.7696,0.0,7.2246,0.0,0.0,0.0,0.0,0.0,0.0,0.0,0.0,0.0,0.0,0.0,7.7265,7.8062,7.7932,7.8644,7.9111,7.9111,7.8936,7.8865,7.8865,7.8865,7.9059,7.9489,8.0155,8.08,8.1392,8.2023,8.2967,8.4101,8.4199,8.4867,8.5909,8.5909,8.5909,8.5909,8.5909,8.5909,8.5909,8.609,8.6126,8.6163,8.6344,8.638,8.638,8.638,8.6271,8.6126,8.6126,8.5839,8.546,8.546,8.5125,8.4649,8.4234,8.4489,8.492,8.5054,8.5722,8.6375,8.6659,8.6825,8.7141,8.7761,8.7901,8.7901,8.7901,8.7901,8.7901,8.7901,8.7901,8.7901,8.7901,8.7901,8.8017,8.8338,8.8439,8.8841,8.9673,8.983,9.0105,9.0551,9.0581,9.0581,9.0581,9.0581,9.0581,9.0581,9.0581,9.0581,9.0581,9.0581,9.0581,9.0581,9.0581,9.0581,6.1359,6.2505,6.4004,6.3352,6.3751,6.4034,6.3019,0.0,0.0,6.1358,6.1416,6.164,6.2438,0.0,0.0,0.0,7.3047,7.5225,0.0,0.0,0.0,0.0,0.0,0.0,0.0,0.0,0.0,7.8163,7.9698,8.0284,7.9627,8.0284,8.0705,8.0705,8.0049,7.9673,7.9673,7.9673,7.9894,8.0283,8.0679,8.1461,8.254,8.2601,8.3323,8.4477,8.4896,8.5417,0.0,8.5909,8.5909,8.5909,8.5909,8.5909,8.5982,8.666,8.6914,8.7013,8.7737,8.799,8.799,8.799,8.7483,8.6914,8.6914,8.6597,8.6281,8.6281,8.5959,8.5484,8.5028,8.5484,8.5938,8.5566,8.6074,8.666,8.6684,8.7258,8.7796,8.7878,8.7901,8.7901,8.7901,8.7901,8.7901,8.7901,8.7901,8.7901,8.7901,8.7901,8.7925,8.7971,8.8281,8.8708,8.9235,8.9652,9.0105,9.0551,9.0581,9.0581,9.0581,9.0581,9.0581,9.0581,9.0581,9.0581,9.0581,9.0581,9.0581,9.0581,9.0581,9.0581,6.0966,6.1847,6.2868,6.2542,6.4002,6.4788,6.2053,0.0,6.2177,6.1591,6.1451,6.181,6.304,6.4743,6.6859,6.9545,7.1363,7.3013,7.4711,0.0,0.0,0.0,0.0,0.0,0.0,0.0,7.7791,7.9827,8.0997,8.1499,8.1183,8.0997,8.0905,8.0905,8.06,8.0459,8.0459,8.0459,8.0555,8.0725,8.1329,8.1867,8.2378,8.3104,8.4087,8.5258,8.5722,8.6437,0.0,8.7276,8.7276,8.7276,8.7276,8.7276,8.7312,8.7592,8.7737,8.7773,8.8099,8.8208,8.8159,8.7877,8.7895,8.7931,8.7463,8.6486,8.5651,8.615,8.5926,8.5548,8.5359,8.5914,8.6467,8.6274,8.6836,8.7433,8.7433,8.7691,8.7901,8.7901,8.7901,8.7901,8.7901,8.7901,8.7901,8.7901,8.7901,8.7901,8.7901,8.7901,8.7983,8.8224,8.8382,8.8697,8.9145,8.9631,9.0105,9.0551,9.0581,9.0581,9.0581,9.0581,9.0581,9.0581,9.0581,9.0581,9.0581,9.0581,9.0581,9.0581,9.0581,9.0581,6.1017,6.1484,6.1949,6.1695,6.3775,6.4977,0.0,0.0,6.2921,6.1827,6.1533,6.191,6.3248,6.451,6.6299,6.9218,7.0817,7.2477,7.4623,7.5495,0.0,0.0,0.0,0.0,0.0,0.0,7.922,8.1091,8.198,8.2447,8.2447,8.1909,8.1583,8.1583,8.1372,8.1232,8.1232,8.1232,8.1232,8.1267,8.205,8.2447,8.2458,8.3711,8.4592,8.5213,8.6291,8.7098,0.0,8.805,8.8208,8.8208,8.8208,8.8208,8.8244,8.8461,8.8534,8.858,8.8833,8.8817,8.8658,8.832,8.8269,8.8265,8.7897,8.682,8.584,8.6382,8.6215,8.5912,8.6169,8.6614,8.7035,8.7035,8.7468,8.7901,8.7901,8.7901,8.7901,8.7901,8.7901,8.7901,8.7901,8.7901,8.7901,8.7901,8.7901,8.7901,8.7901,8.7901,8.7994,8.8293,8.8416,8.8752,8.9364,8.9704,9.0105,9.0551,9.0581,9.0581,9.0581,9.0581,9.0581,9.0581,9.0581,9.0581,9.0581,9.0581,9.0521,9.039,9.0521,9.0511,6.1734,6.1692,6.1811,6.1014,6.2937,6.4453,0.0,0.0,6.222,6.1873,6.1639,6.1749,6.256,6.4634,6.6969,6.9329,7.2437,7.4879,7.5837,7.7935,0.0,0.0,0.0,0.0,0.0,7.9638,8.1196,8.2026,8.2787,0.0,8.3197,8.3162,8.3162,8.3162,8.2482,8.2107,8.2107,8.2107,8.2107,8.2107,8.2822,8.3197,8.322,8.4488,8.4669,8.4039,8.6527,8.7154,0.0,8.7726,8.8208,8.8208,8.8208,8.8208,8.8316,8.9096,8.9396,8.9505,9.0292,9.0263,8.9882,8.9882,8.8753,8.7548,8.827,8.7987,8.7396,8.7396,8.7037,8.686,8.7656,8.7866,8.7878,8.7878,8.7901,8.7901,8.7901,8.7901,8.7901,8.7901,8.7901,8.7901,8.7901,8.7901,8.7901,8.7901,8.7901,8.7901,8.7901,8.7901,8.7901,8.7913,8.8258,8.8885,8.9799,8.9908,9.0105,9.0551,9.0581,9.0581,9.0581,9.0581,9.0581,9.0581,9.0581,9.0581,9.0581,9.0581,9.036,8.9929,9.038,9.035,6.1253,6.2236,6.3314,6.1894,6.4119,6.5726,6.222,0.0,6.3302,6.2044,6.1694,6.1975,6.328,6.4074,6.5858,6.9886,7.1886,7.3953,7.684,0.0,0.0,0.0,0.0,7.742,0.0,0.0,8.1442,8.2752,8.3057,8.3197,8.3197,8.3197,8.3197,8.3197,8.2963,8.2857,8.2857,8.2857,8.2857,8.2857,8.3092,8.3197,8.322,8.3947,8.4457,8.4772,8.5838,8.6952,8.8064,8.8437,8.9092,8.9847,8.9847,8.9847,8.9883,9.011,9.0219,9.0216,9.013,9.0033,8.9778,8.9148,8.8564,8.8132,8.8085,8.7523,8.7031,8.7605,8.7631,8.7585,8.7831,8.7901,8.7901,8.7901,8.7901,8.7901,8.7901,8.7901,8.7901,8.7901,8.7901,8.7901,8.7901,8.7901,8.7901,8.7901,8.7901,8.7901,8.7901,8.7901,8.7994,8.8281,8.8405,8.8752,8.9375,8.9704,9.0105,9.0551,9.0581,9.0581,9.0581,9.0581,9.0581,9.0581,9.0581,9.0581,9.0581,9.0581,9.0511,9.036,8.9862,8.9567,0.0,6.2165,6.2837,6.2118,6.4222,0.0,0.0,0.0,6.3919,6.2562,6.2173,6.248,6.3755,6.4144,6.554,6.9433,7.1199,7.3175,7.625,0.0,0.0,0.0,0.0,0.0,0.0,8.0418,8.1548,8.3092,8.3197,8.3197,8.3197,8.3197,8.3197,8.3197,8.3197,8.3197,8.3197,8.3197,8.3197,8.3197,8.3197,8.3197,8.322,8.3983,8.436,8.4442,8.5653,8.6631,0.0,8.8424,8.925,8.9973,9.0413,9.0581,9.0581,9.0581,9.0481,9.0289,9.0012,8.9662,8.9278,8.8686,8.8406,8.8224,8.7995,8.755,8.7258,8.7761,8.7901,8.7901,8.7901,8.7901,8.7901,8.7901,8.7901,8.7901,8.7901,8.7901,8.7901,8.7901,8.7901,8.7901,8.7901,8.7901,8.7901,8.7901,8.7901,8.7901,8.7901,8.7901,8.7983,8.8247,8.827,8.8463,8.8907,8.9525,9.0033,9.032,9.0491,9.0581,9.0581,9.0581,9.0581,9.0581,9.0581,9.0581,9.0581,9.0258,9.0058,9.0038,8.93,8.8951,0.0,0.0,0.0,0.0,0.0,0.0,0.0,0.0,0.0,6.3158,6.2891,6.3115,6.4083,6.4678,6.5898,6.8617,7.0815,7.2852,7.4764,7.6593,0.0,0.0,0.0,0.0,8.1229,8.1136,8.1548,8.3092,8.3197,8.3197,8.3197,8.3197,8.3197,8.3197,8.3197,8.3197,8.3197,8.3197,8.3197,8.3197,8.3197,8.3197,8.3255,8.442,8.4306,0.0,8.5639,8.6094,8.5401,8.7719,8.8763,8.9035,9.0152,9.0561,9.0469,9.0541,9.0222,8.9758,8.9788,8.9235,8.8495,8.8461,8.819,8.7901,8.7901,8.7901,8.7901,8.7901,8.7901,8.7901,8.7901,8.7901,8.7901,8.7901,8.7901,8.7901,8.7901,8.7901,8.7901,8.7901,8.7901,8.7901,8.7901,8.7901,8.7901,8.7901,8.7901,8.7901,8.7901,8.7901,8.7901,8.7901,8.7901,8.8052,8.844,8.9278,8.9799,8.9866,9.0269,9.0491,9.0491,9.0491,9.0491,9.0491,9.0491,9.0491,9.0491,8.9599,8.9192,8.9202,8.8697,8.8461,6.0851,0.0,6.2295,6.1205,0.0,0.0,0.0,0.0,0.0,0.0,0.0,6.2768,6.5512,6.5473,6.6643,7.164,7.3809,7.5463,7.7146,0.0,0.0,0.0,7.7581,7.8343,8.2654,8.1769,8.1548,8.3092,8.3197,8.3197,8.3197,8.3197,8.3197,8.3197,8.3197,8.3197,8.3197,8.3197,8.3197,8.3197,8.3197,8.3197,8.3208,8.3495,8.3484,8.3208,8.3838,8.5002,8.6538,8.7106,8.8455,9.0198,9.0479,9.0029,8.9276,8.9868,8.9408,8.8546,8.8749,8.8686,8.8439,8.8156,8.7995,8.7901,8.7901,8.7901,8.7901,8.7901,8.7901,8.7901,8.7901,8.7901,8.7901,8.7901,8.7901,8.7901,8.7901,8.7901,8.7901,8.7901,8.7901,8.7901,8.7901,8.7901,8.7901,8.7901,8.7901,8.7901,8.7901,8.7901,8.7901,8.7901,8.7901,8.7948,8.8029,8.8542,8.8984,8.9353,8.9482,8.9546,8.9546,8.9546,8.9546,8.9546,8.9546,8.9546,8.9546,8.8951,8.8863,8.9167,8.8395,8.8225,5.9886,6.1501,6.297,6.2444,6.2637,0.0,0.0,0.0,0.0,0.0,0.0,0.0,6.5623,6.5707,6.71,7.2255,7.3545,7.4938,0.0,0.0,0.0,0.0,7.8763,7.9465,0.0,8.1283,8.1548,8.3092,8.3197,8.3197,8.3197,8.3197,8.3197,8.3197,8.3197,8.3197,8.3197,8.3197,8.3197,8.3197,8.3197,8.3197,8.3197,8.3197,8.3197,8.3208,8.3838,8.483,8.6116,8.6883,8.8018,8.9216,8.9216,8.9039,8.8758,8.9017,8.8753,8.8284,8.8443,8.8395,8.8202,8.7959,8.7901,8.7901,8.7901,8.7901,8.7901,8.7901,8.7901,8.7901,8.7901,8.7901,8.7901,8.7901,8.7901,8.7901,8.7901,8.7901,8.7901,8.7901,8.7901,8.7901,8.7901,8.7901,8.7901,8.7901,8.7901,8.7901,8.7901,8.7901,8.7901,8.7901,8.7901,8.7901,8.7901,8.811,8.8418,8.8863,8.9058,8.9178,8.9178,8.9178,8.9178,8.9178,8.9178,8.908,8.8885,8.8619,8.8529,8.8598,8.8121,8.8006,5.9591,6.1209,6.2948,6.3416,6.3844,0.0,0.0,0.0,0.0,0.0,0.0,0.0,0.0,0.0,0.0,0.0,7.2795,0.0,7.7792,0.0,0.0,7.9326,8.0069,0.0,8.0555,8.0772,8.1548,8.3092,8.3197,8.3197,8.3197,8.3197,8.3197,8.3197,8.3197,8.3197,8.3197,8.3197,8.3197,8.3197,8.3197,8.3312,8.3484,8.3277,8.3312,8.3552,8.4496,8.5031,8.5312,8.6793,8.7518,8.7703,8.775,8.8028,8.8398,8.8242,8.8204,8.8241,8.8358,8.8202,8.7901,8.7901,8.7901,8.7901,8.7901,8.7901,8.7901,8.7901,8.7901,8.7901,8.7901,8.7901,8.7901,8.7901,8.7901,8.7901,8.7901,8.7901,8.7901,8.7901,8.7901,8.7901,8.7901,8.7901,8.7901,8.7901,8.7901,8.7901,8.7901,8.7901,8.7901,8.7901,8.7901,8.7901,8.7901,8.7901,8.8041,8.8406,8.8775,8.9006,8.9006,8.9006,8.9006,8.9006,8.9006,8.8808,8.8429,8.8429,8.8224,8.7901,8.7901,8.7901,6.1022,6.1502,6.1322,6.0317,6.1698,0.0,0.0,0.0,0.0,0.0,0.0,0.0,0.0,0.0,0.0,0.0,0.0,7.6533,0.0,0.0,7.7118,7.9642,0.0,7.9578,8.3643,8.2145,8.1548,8.3092,8.3197,8.3197,8.3197,8.3197,8.3197,8.3197,8.3197,8.3197,8.3197,8.3197,8.3197,8.3197,8.3197,8.3781,8.4763,8.3677,8.3781,8.4784,8.4318,8.467,8.5639,8.6296,8.721,8.8153,8.8407,8.7966,8.7293,8.8146,8.7808,8.7069,8.776,8.7971,8.7901,8.7901,8.7901,8.7901,8.7901,8.7901,8.7901,8.7901,8.7901,8.7901,8.7901,8.7901,8.7901,8.7901,8.7901,8.7901,8.7901,8.7901,8.7901,8.7901,8.7901,8.7901,8.7901,8.7901,8.7901,8.7901,8.7901,8.7901,8.7901,8.7901,8.7901,8.7901,8.7901,8.7901,8.7901,8.7901,8.7936,8.7971,8.8052,8.8098,8.8098,8.8098,8.8098,8.8098,8.8098,8.8052,8.7983,8.7983,8.7971,8.7901,8.7901,8.7901,6.0234,6.1329,6.1846,6.0123,0.0,0.0,0.0,0.0,0.0,0.0,0.0,0.0,0.0,0.0,0.0,0.0,0.0,7.8526,7.7563,7.8684,7.9701,0.0,0.0,8.0672,8.1964,8.1377,8.1548,8.3092,8.3197,8.3373,8.3829,8.3443,8.3197,8.3197,8.3197,8.3197,8.3197,8.3197,8.3197,8.3197,8.3197,8.3637,8.4446,8.3831,8.4028,8.4793,8.5114,8.5555,8.6081,8.6309,8.6967,8.7767,8.6986,8.6881,8.7237,8.7938,8.7841,8.7398,8.7761,8.7901,8.7901,8.7901,8.7901,8.7901,8.7901,8.7901,8.7901,8.7901,8.7901,8.7901,8.7901,8.7901,8.7901,8.7901,8.7901,8.7901,8.7901,8.7901,8.7901,8.7901,8.7901,8.7901,8.7901,8.7901,8.7901,8.7901,8.7901,8.7901,8.7901,8.7901,8.7901,8.7901,8.7901,8.7901,8.7901,8.7901,8.7901,8.7901,8.7901,8.7901,8.7901,8.7901,8.7901,8.7901,8.7901,8.7901,8.7901,8.7901,8.7901,8.7901,8.7901,8.7901,5.9783,6.112,6.2163,0.0,0.0,0.0,0.0,0.0,0.0,0.0,0.0,0.0,0.0,0.0,0.0,0.0,7.7412,7.9098,7.7576,7.9902,8.111,7.942,8.0637,8.1127,7.994,8.047,8.1477,8.2857,8.3092,8.3478,8.4075,8.3513,8.3197,8.3197,8.3197,8.3197,8.3197,8.3197,8.3197,8.3197,8.3319,8.3695,8.4322,8.4145,8.4361,8.4973,8.5671,8.5961,8.5951,8.6167,8.6577,8.6988,8.5977,8.6365,8.755,8.7795,8.7901,8.7901,8.7901,8.7901,8.7901,8.7901,8.7901,8.7901,8.7901,8.7901,8.7901,8.7901,8.7901,8.7901,8.7901,8.7901,8.7901,8.7901,8.7901,8.7901,8.7901,8.7901,8.7901,8.7901,8.7901,8.7901,8.7901,8.7901,8.7901,8.7901,8.7901,8.7901,8.7901,8.7901,8.7901,8.7901,8.7901,8.7901,8.7901,8.7901,8.7901,8.7901,8.7901,8.7901,8.7901,8.7901,8.7901,8.7901,8.7901,8.7901,8.7901,8.7901,8.7901,8.7901,8.7901,8.7901,6.121,6.0968,6.0804,6.2928,0.0,0.0,0.0,0.0,0.0,0.0,0.0,0.0,0.0,0.0,7.8997,7.8332,7.8222,7.7323,7.4696,0.0,7.677,7.6578,7.7948,7.9132,7.9743,8.047,8.1267,8.2096,8.2822,8.3233,8.3268,8.3233,8.3197,8.3197,8.3197,8.3197,8.3197,8.3197,8.3197,8.3208,8.3657,8.4461,8.5542,8.4793,8.51,8.6185,8.5121,8.4636,8.4697,8.5436,8.5783,8.5909,8.6841,8.7493,8.7878,8.789,8.7901,8.7901,8.7901,8.7901,8.7901,8.7901,8.7901,8.7901,8.7901,8.7901,8.7901,8.7901,8.7901,8.7901,8.7901,8.7901,8.7901,8.7901,8.7901,8.7901,8.7901,8.7901,8.7901,8.7901,8.7901,8.7901,8.7901,8.7901,8.7901,8.7901,8.7901,8.7901,8.7901,8.7901,8.7901,8.7901,8.7901,8.7901,8.7901,8.7901,8.7901,8.7901,8.7901,8.7901,8.7901,8.7901,8.7901,8.7901,8.7901,8.7901,8.7901,8.7901,8.7901,8.7901,8.7901,8.7901,6.0079,6.0521,6.1124,6.2588,0.0,0.0,0.0,0.0,0.0,0.0,0.0,0.0,0.0,0.0,7.7016,7.7412,7.6781,7.5878,7.4827,7.5636,7.6302,7.6302,7.7672,7.8725,7.9006,7.9768,8.054,8.1313,8.2085,8.2717,8.3162,8.3197,8.3197,8.3197,8.3197,8.3197,8.3197,8.3197,8.3197,8.3208,8.3689,8.4265,8.4952,8.4931,8.5213,8.564,8.5157,8.5033,8.5257,8.5259,8.5841,8.6827,8.7469,8.7783,8.7901,8.7901,8.7901,8.7901,8.7901,8.7901,8.7901,8.7901,8.7901,8.7901,8.7901,8.7901,8.7901,8.7901,8.7901,8.7901,8.7901,8.7901,8.7901,8.7901,8.7901,8.7901,8.7901,8.7901,8.7901,8.7901,8.7901,8.7901,8.7901,8.7901,8.7901,8.7901,8.7901,8.7901,8.7901,8.7901,8.762,8.6868,8.6795,8.6795,8.6795,8.7466,8.7901,8.7901,8.7901,8.7901,8.7901,8.7901,8.7901,8.7901,8.7901,8.7901,8.7901,8.7901,8.7901,8.7901,8.7901,8.7901,5.9154,6.0367,6.1731,0.0,0.0,0.0,0.0,0.0,0.0,0.0,0.0,0.0,0.0,0.0,0.0,0.0,7.593,7.5054,7.497,7.5744,7.6302,7.6302,7.7672,7.8585,7.8585,7.9322,8.0119,8.0835,8.1629,8.2412,8.3162,8.3197,8.3197,8.3197,8.3197,8.3197,8.3197,8.3197,8.3275,8.3429,8.3754,8.4039,8.4317,8.4924,8.5139,8.4964,8.5074,8.5268,8.5489,8.5514,8.6351,8.7575,8.7818,8.7901,8.7901,8.7901,8.7901,8.7901,8.7901,8.7901,8.7901,8.7901,8.7901,8.7901,8.7901,8.7901,8.7901,8.7901,8.7901,8.7901,8.7901,8.7901,8.7901,8.7901,8.7901,8.7901,8.7901,8.7901,8.7901,8.7901,8.7901,8.7901,8.7901,8.7901,8.7901,8.7901,8.7901,8.7749,8.7395,8.7347,8.688,8.5684,8.6221,8.6516,8.6147,8.7205,8.7901,8.7901,8.7901,8.7901,8.7901,8.7901,8.7901,8.7901,8.7901,8.7901,8.7901,8.7901,8.7901,8.7901,8.7901,8.7901,5.8803,6.0597,6.2374,0.0,0.0,0.0,0.0,0.0,0.0,0.0,0.0,0.0,0.0,0.0,0.0,7.7483,7.6095,7.5006,7.465,7.5577,7.6302,7.6302,7.7672,7.8585,7.8585,7.9322,8.0084,8.0845,8.1629,8.2412,8.3127,8.3197,8.3197,8.3197,8.3197,8.3197,8.3197,8.3197,8.344,8.3904,8.3915,8.3915,8.3957,8.4783,8.4944,8.4518,8.4865,8.5004,8.5078,8.6235,8.7187,8.7901,8.7901,8.7901,8.7901,8.7901,8.7901,8.7901,8.7901,8.7901,8.7901,8.7901,8.7901,8.7901,8.7901,8.7901,8.7901,8.7901,8.7901,8.7901,8.7901,8.7901,8.7901,8.7901,8.7901,8.7901,8.7901,8.7901,8.7901,8.7901,8.7901,8.7901,8.7901,8.7901,8.7901,8.7901,8.7901,8.7443,8.6234,8.605,8.5634,8.453,8.6466,8.7395,8.6209,8.7205,8.7901,8.7901,8.7901,8.7901,8.7901,8.7901,8.7901,8.7901,8.7901,8.7901,8.7901,8.7901,8.7901,8.7901,8.7901,8.7901,6.0208,6.0645,0.0,0.0,0.0,0.0,0.0,0.0,0.0,0.0,0.0,0.0,0.0,0.0,0.0,7.7695,7.6533,7.5389,7.5016,7.5961,7.6624,7.6333,7.7672,7.8585,7.8585,7.883,7.9287,8.0084,8.0821,8.1593,8.2377,8.2928,8.3197,8.3197,8.3197,8.3197,8.3197,8.3197,8.3275,8.3418,8.3754,8.4207,8.4793,8.4753,8.4625,8.4518,8.4865,8.5148,8.5472,8.6929,8.7691,8.7901,8.7901,8.7901,8.7901,8.7901,8.7901,8.7901,8.7901,8.7901,8.7901,8.7901,8.7901,8.7901,8.7901,8.7901,8.7901,8.7901,8.7901,8.7901,8.7901,8.7901,8.7901,8.7901,8.7901,8.7901,8.7901,8.7901,8.7901,8.7901,8.7901,8.7901,8.7901,8.7901,8.7901,8.7901,8.7181,8.6209,8.5055,8.419,8.39,8.4357,8.5016,8.563,8.6072,8.7205,8.7901,8.7901,8.7901,8.7901,8.7901,8.7901,8.7901,8.7901,8.7901,8.7901,8.7901,8.7901,8.7901,8.7901,8.7901,8.7901,6.0177,6.0822,0.0,0.0,0.0,0.0,0.0,0.0,0.0,0.0,0.0,0.0,0.0,7.6208,0.0,7.7229,7.6421,7.5558,7.5154,7.6133,7.6763,7.6343,7.7672,7.8585,7.8585,7.8585,7.9041,8.0154,8.0635,8.1372,8.2482,8.2963,8.3197,8.3197,8.3197,8.3197,8.3197,8.3197,8.3297,8.3483,8.3592,8.4081,8.4914,8.4441,8.4328,8.4517,8.5322,8.5962,8.652,8.7515,8.7901,8.7901,8.7901,8.7901,8.7901,8.7901,8.7901,8.7901,8.7901,8.7901,8.7901,8.7901,8.7901,8.7901,8.7901,8.7901,8.7901,8.7901,8.7901,8.7901,8.7901,8.7901,8.7901,8.7901,8.7901,8.7901,8.7901,8.7901,8.7901,8.7901,8.7901,8.7901,8.7901,8.7901,8.7901,8.7901,8.6479,8.5185,8.4504,8.3395,8.2951,8.3656,8.451,8.5352,8.6025,8.6783,8.7395,8.7878,8.7454,8.7407,8.789,8.7901,8.7901,8.7901,8.7901,8.7901,8.7901,8.7901,8.7901,8.7901,8.7901,8.7901,5.9412,0.0,0.0,0.0,0.0,0.0,0.0,0.0,0.0,0.0,0.0,7.5136,7.5208,7.5804,7.6284,7.6284,7.5941,7.5558,7.5154,7.6133,7.6763,7.6343,7.7672,7.8585,7.8585,7.8585,7.9252,8.0764,8.0905,8.1583,8.3127,8.3197,8.3197,8.3197,8.3197,8.3197,8.3197,8.3197,8.3418,8.384,8.3407,8.3657,8.4476,8.4113,8.4167,8.4707,8.6076,8.7152,8.7901,8.7901,8.7901,8.7901,8.7901,8.7901,8.7901,8.7901,8.7901,8.7901,8.7901,8.7901,8.7901,8.7901,8.7901,8.7901,8.7901,8.7901,8.7901,8.7901,8.7901,8.7901,8.7901,8.7901,8.7901,8.7901,8.7901,8.7901,8.7901,8.7901,8.7901,8.7901,8.7901,8.7901,8.7901,8.7901,8.7843,8.762,8.5845,8.449,8.4277,8.334,8.2746,8.2825,8.4602,8.5824,8.5924,8.5937,8.6429,8.7502,8.6553,8.6454,8.7561,8.7773,8.7901,8.7901,8.7784,8.7784,8.7901,8.7784,8.7784,8.7901,8.7901,8.7855,6.0974,6.1672,0.0,0.0,6.6719,6.9095,7.0157,7.1965,7.3434,7.3615,7.4412,7.5281,7.5913,7.6175,7.6284,7.6284,7.5941,7.5558,7.5154,7.6133,7.6763,7.6343,7.7672,7.8585,7.8585,7.8585,7.9252,8.0764,8.0905,8.1583,8.3127,8.3197,8.3197,8.3197,8.3197,8.3197,8.3197,8.3197,8.3253,8.3352,8.3253,8.3624,8.441,8.4346,8.4984,8.6216,8.6579,8.7152,8.7901,8.7901,8.7901,8.7901,8.7901,8.7901,8.7901,8.7901,8.7901,8.7901,8.7901,8.7901,8.7901,8.7901,8.7901,8.7901,8.7901,8.7901,8.7901,8.7901,8.7901,8.7901,8.7901,8.7901,8.7901,8.7901,8.7901,8.7901,8.7901,8.7901,8.7901,8.7901,8.7901,8.7901,8.7901,8.7901,8.7288,8.5451,8.5481,8.5107,8.3298,8.2872,8.3035,8.3941,8.3683,8.3772,8.4702,8.4781,8.4886,8.5133,8.4912,8.4886,8.5133,8.6939,8.7901,8.7901,8.6965,8.6941,8.7901,8.6941,8.6965,8.7901,8.7901,8.7395,6.0929,0.0,0.0,6.5906,0.0,6.959,7.114,7.2754,7.4013,7.4412,7.5108,7.5804,7.6211,7.6284,7.6225,7.6055,7.5829,7.5505,7.4942,7.6054,7.6763,7.6343,7.7672,7.8585,7.8585,7.8585,7.9252,8.0764,8.0905,8.1583,8.3127,8.3197,8.3197,8.3197,8.3197,8.3197,8.3197,8.3197,8.3197,8.3197,8.3197,8.3805,8.4953,8.5339,8.5936,8.6719,8.7117,8.7503,8.7901,8.7901,8.7901,8.7901,8.7901,8.7901,8.7901,8.7901,8.7901,8.7901,8.7901,8.7901,8.7901,8.7901,8.7901,8.7901,8.7901,8.7901,8.7901,8.7901,8.7901,8.7901,8.7901,8.7901,8.7901,8.7901,8.7901,8.7901,8.7901,8.7901,8.7901,8.7901,8.7901,8.7901,8.7901,8.7901,8.7478,8.6256,8.6097,8.5481,8.3751,8.3035,8.2942,8.3519,8.3035,8.316,8.4304,8.3914,8.3833,8.4371,8.39,8.3833,8.4384,8.5579,8.6231,8.6231,8.5596,8.5617,8.6219,8.557,8.5596,8.6231,8.6231,8.5883,6.0318,0.0,6.484,6.7528,6.8713,0.0,7.2175,7.3325,7.4122,7.4919,7.5732,7.6284,7.6284,7.6284,7.6165,7.576,7.5646,7.5353,7.4688,7.5871,7.6683,7.6343,7.7672,7.8585,7.8585,7.8585,7.9252,8.0764,8.0905,8.1583,8.3127,8.3197,8.3197,8.3197,8.3197,8.3197,8.3197,8.3197,8.3197,8.3197,8.3478,8.4321,8.5736,8.6544,8.6895,8.693,8.762,8.7901,8.7901,8.7901,8.7901,8.7901,8.7901,8.7901,8.7901,8.7901,8.7901,8.7901,8.7901,8.7901,8.7901,8.7901,8.7901,8.7901,8.7901,8.7749,8.7608,8.7608,8.7608,8.7608,8.7608,8.7737,8.7901,8.7901,8.7901,8.7901,8.7901,8.7901,8.7901,8.7901,8.7901,8.7819,8.7632,8.7608,8.7514,8.7335,8.6454,8.5404,8.4264,8.3285,8.2704,8.2704,8.252,8.2788,8.3724,8.2956,8.2816,8.3751,8.2942,8.283,8.3778,8.3806,8.3806,8.3806,8.4009,8.421,8.4411,8.421,8.421,8.4411,8.4411,8.4304,5.9855,0.0,6.4639,0.0,6.9127,6.9808,0.0,0.0,7.4122,0.0,7.5732,7.6284,7.6284,7.6284,7.6165,7.576,7.5407,7.5026,7.465,7.5617,7.6363,7.6302,7.7672,7.8585,7.8585,7.8585,7.9252,8.0764,8.0905,8.1583,8.3127,8.3197,8.3197,8.3197,8.3197,8.3197,8.3197,8.3197,8.3197,8.3233,8.4543,8.5666,8.6579,8.7363,8.7726,8.7761,8.7831,8.7901,8.7901,8.7901,8.7901,8.7901,8.7901,8.7901,8.7901,8.7901,8.7901,8.7901,8.7901,8.7901,8.7901,8.7901,8.7901,8.7901,8.7901,8.7169,8.6333,8.6333,8.6333,8.6333,8.6333,8.7121,8.7901,8.7901,8.7901,8.7901,8.7901,8.7901,8.7901,8.7901,8.7901,8.7549,8.6528,8.6333,8.6009,8.5016,8.4728,8.4224,8.3063,8.2802,8.2704,8.2704,8.181,8.129,8.1452,8.1319,8.129,8.1452,8.1304,8.129,8.1467,8.1434,8.1434,8.1434,8.2439,8.3409,8.4411,8.3409,8.3436,8.4411,8.4411,8.3873,6.1784,6.3045,6.4602,0.0,6.9199,6.9916,7.2718,7.3659,7.4267,7.5506,7.6058,7.6284,7.6284,7.6284,7.6097,7.546,7.5218,7.5066,7.49,7.571,7.6432,7.6879,7.7907,7.8585,7.8585,7.9006,7.9733,8.08,8.1313,8.205,8.3127,8.3197,8.3197,8.3197,8.3197,8.3197,8.3197,8.3197,8.3443,8.3899,8.5455,8.6368,8.6696,8.6844,8.7253,8.7901,8.7901,8.7901,8.7901,8.7901,8.7502,8.6893,8.6893,8.6893,8.6893,8.6893,8.7335,8.7901,8.7901,8.7901,8.7901,8.7901,8.7443,8.6893,8.6893,8.6072,8.5288,8.5912,8.6109,8.6259,8.6929,8.7502,8.7901,8.7901,8.7901,8.7901,8.7901,8.7901,8.7901,8.7901,8.7371,8.6712,8.6196,8.557,8.499,8.4477,8.4411,8.3995,8.2858,8.2704,8.2449,8.181,8.1304,8.0995,8.0995,8.0995,8.0995,8.0995,8.0995,8.0995,8.0995,8.0995,8.0995,8.0995,8.1478,8.1999,8.2496,8.1999,8.2013,8.2496,8.2496,8.221,0.0,0.0,6.4526,6.7869,6.9031,7.0163,0.0,0.0,7.4347,7.5958,7.6284,7.6284,7.6284,7.6465,7.6254,7.5262,7.5278,7.533,7.5122,7.5811,7.6573,7.729,7.8118,7.8585,7.8585,7.9322,8.0119,8.0835,8.1629,8.2412,8.3162,8.3197,8.3197,8.3197,8.3197,8.3197,8.3197,8.3408,8.3899,8.4707,8.6041,8.6651,8.6556,8.6554,8.688,8.7443,8.7443,8.7632,8.7901,8.7901,8.7193,8.6109,8.6109,8.6109,8.6109,8.6109,8.6868,8.7901,8.7901,8.7702,8.7443,8.7443,8.6626,8.5672,8.5672,8.4886,8.4224,8.5352,8.5672,8.5959,8.7145,8.7679,8.7901,8.7901,8.7901,8.7831,8.7502,8.7443,8.7253,8.6698,8.6084,8.5583,8.5301,8.4523,8.3968,8.3968,8.3724,8.3215,8.2382,8.2268,8.1941,8.11,8.0995,8.0995,8.0995,8.0995,8.0995,8.0995,8.0995,8.0995,8.0995,8.0995,8.0995,8.0995,8.0995,8.0995,8.0995,8.0995,8.0995,8.0995,8.0995,8.0995,0.0,6.1932,0.0,6.6776,6.8571,7.05,0.0,7.3905,7.4347,7.5958,7.6284,7.6284,7.6284,7.6936,7.6904,7.537,7.5724,7.5962,7.5202,7.5811,7.6573,7.729,7.8118,7.8585,7.8585,7.9322,8.0119,8.0835,8.1629,8.2412,8.3162,8.3197,8.3197,8.3197,8.3197,8.3197,8.3197,8.397,8.4707,8.5455,8.6298,8.6485,8.6165,8.73,8.7217,8.6196,8.6196,8.6856,8.7901,8.7901,8.7193,8.6109,8.6109,8.6109,8.6109,8.6109,8.6868,8.7901,8.7901,8.7157,8.6196,8.6196,8.5417,8.4504,8.4504,8.3697,8.3021,8.4184,8.4504,8.4755,8.5921,8.7026,8.7901,8.7901,8.7901,8.7608,8.642,8.6196,8.5557,8.3395,8.3806,8.4157,8.3049,8.2844,8.2802,8.2802,8.1868,8.1174,8.11,8.11,8.107,8.101,8.0995,8.0995,8.0995,8.0995,8.0995,8.0995,8.0995,8.0995,8.0995,8.0995,8.0995,8.0995,8.0995,8.0995,8.0995,8.0995,8.0995,8.0995,8.0995,8.0995,0.0,0.0,0.0,6.6391,6.7936,6.9791,7.2876,7.3768,7.4347,7.5958,7.6284,7.6284,7.6284,7.6306,7.6049,7.5253,7.5146,7.5365,7.5821,7.6127,7.6759,7.8012,7.8409,7.8585,7.8585,7.9768,8.06,8.087,8.2074,8.2928,8.3197,8.3197,8.2884,8.2188,8.285,8.3443,8.397,8.4707,8.5135,8.5184,8.5948,8.5846,8.5029,8.5476,8.582,8.6109,8.6109,8.6761,8.7855,8.705,8.6059,8.5016,8.5016,8.5016,8.5107,8.5824,8.6358,8.6724,8.6724,8.5984,8.5016,8.5016,8.4251,8.3312,8.3312,8.2491,8.1999,8.3873,8.4411,8.4846,8.6759,8.7596,8.7702,8.6929,8.6206,8.5327,8.4163,8.506,8.5646,8.4103,8.3533,8.3174,8.2774,8.2081,8.161,8.161,8.126,8.0995,8.0995,8.0995,8.0995,8.0995,8.0995,8.0995,8.0995,8.0995,8.0995,8.0995,8.0995,8.0995,8.0995,8.0995,8.0995,8.0995,8.0995,8.0995,8.0995,8.0995,8.0995,8.0995,8.0995,8.0995,0.0,0.0,0.0,0.0,6.7449,6.9004,7.2936,7.3695,7.405,7.5595,7.6094,7.6284,7.6284,7.595,7.5567,7.5163,7.5137,7.5427,7.6197,7.6423,7.7017,7.843,7.8585,7.8469,7.8127,7.9797,8.0751,8.041,8.2155,8.3029,8.2668,8.2646,8.2361,8.1615,8.2634,8.3584,8.4391,8.4762,8.4956,8.5018,8.5366,8.5133,8.4411,8.4411,8.482,8.5532,8.5532,8.6184,8.7229,8.6442,8.5211,8.3873,8.4264,8.417,8.3982,8.512,8.5532,8.5532,8.5532,8.476,8.3833,8.3833,8.3082,8.2124,8.2124,8.1868,8.197,8.3873,8.4411,8.4846,8.6795,8.7024,8.6503,8.571,8.4964,8.4103,8.297,8.388,8.4602,8.3478,8.2633,8.2124,8.2124,8.1493,8.0995,8.0995,8.0995,8.0995,8.0995,8.0995,8.0995,8.0995,8.0995,8.0995,8.0995,8.0995,8.0995,8.0995,8.0995,8.0995,8.0995,8.0995,8.0995,8.0995,8.0995,8.0995,8.0995,8.0995,8.0995,8.0995,8.0995,8.1125,0.0,0.0,0.0,0.0,6.7077,6.8261,7.3311,7.3673,7.3389,7.4779,7.5732,7.6284,7.6284,7.595,7.5575,7.5181,7.576,7.6273,7.6293,7.6618,7.7318,7.8426,7.8595,7.8202,7.7254,7.9358,8.0454,7.9522,8.174,8.2691,8.1651,8.1568,8.1568,8.1603,8.26,8.3539,8.4381,8.3991,8.4186,8.4941,8.4546,8.4331,8.4304,8.4344,8.4357,8.4357,8.4397,8.5016,8.5987,8.5987,8.4694,8.283,8.3928,8.3683,8.2858,8.3982,8.4384,8.4357,8.4357,8.3601,8.2647,8.2647,8.1897,8.0995,8.0995,8.1781,8.2942,8.4049,8.4384,8.4662,8.5748,8.5211,8.4357,8.4357,8.4331,8.4009,8.29,8.2647,8.2325,8.1201,8.0995,8.0995,8.0995,8.0995,8.0995,8.0995,8.0995,8.0995,8.0995,8.0995,8.0995,8.0995,8.0995,8.0995,8.0995,8.0995,8.0995,8.0995,8.0995,8.0995,8.0995,8.0995,8.0995,8.0995,8.0995,8.0995,8.0995,8.0995,8.0995,8.0995,8.1028,8.1431,5.8242,0.0,0.0,0.0,0.0,0.0,6.9988,7.1523,7.2569,7.4127,7.5452,7.6284,7.6284,7.595,7.5663,7.5549,7.5277,7.5255,7.5793,7.6206,7.6775,7.7626,7.8269,7.849,7.8202,7.8639,7.9372,8.0408,8.0969,8.1367,8.1581,8.0861,8.08,8.158,8.1897,8.2661,8.3942,8.3861,8.3632,8.334,8.3212,8.2732,8.197,8.2802,8.316,8.3215,8.4049,8.413,8.3656,8.3656,8.3271,8.2732,8.3035,8.2998,8.2858,8.3982,8.3887,8.316,8.316,8.2439,8.1463,8.1463,8.1245,8.0995,8.0995,8.1781,8.2774,8.3077,8.3765,8.4477,8.4794,8.4036,8.316,8.316,8.2553,8.1839,8.1537,8.1463,8.1393,8.107,8.0995,8.0995,8.0995,8.0995,8.0995,8.0995,8.0995,8.0995,8.0995,8.0995,8.0995,8.0995,8.0995,8.0995,8.0995,8.0995,8.0995,8.0995,8.0995,8.0995,8.0995,8.0995,8.0995,8.0995,8.0995,8.0995,8.0995,8.0995,8.0995,8.0995,8.1561,8.2176,0.0,0.0,0.0,0.0,0.0,0.0,6.9264,7.0762,7.1876,7.3712,7.5255,7.6284,7.6284,7.6114,7.5969,7.5969,7.546,7.5227,7.5632,7.6331,7.7025,7.7631,7.7863,7.8092,7.8437,7.8132,7.8454,7.9747,8.05,8.0903,8.0924,8.0763,8.0751,8.0921,8.1675,8.2637,8.3784,8.321,8.2817,8.2704,8.2225,8.1897,8.1727,8.1912,8.2253,8.2718,8.29,8.2591,8.1999,8.1999,8.1999,8.2056,8.2506,8.2392,8.2124,8.3257,8.2984,8.1999,8.1999,8.1551,8.0995,8.0995,8.0995,8.0995,8.0995,8.1781,8.2704,8.2704,8.3174,8.3587,8.311,8.2496,8.1999,8.1999,8.1478,8.0995,8.0995,8.0995,8.0995,8.0995,8.0995,8.0995,8.0995,8.0995,8.0995,8.0995,8.0995,8.0995,8.0995,8.0995,8.0995,8.0995,8.0995,8.0995,8.0995,8.0995,8.0995,8.0995,8.0995,8.0995,8.0995,8.0995,8.0995,8.0995,8.0995,8.1157,8.1464,8.1157,8.1157,8.1496,8.2223,8.2936,0.0,0.0,0.0,0.0,0.0,0.0,6.9538,7.0456,7.1108,7.275,7.4351,7.5473,7.5582,7.5654,7.5726,7.5726,7.5644,7.563,7.5681,7.6612,7.7459,7.79,7.7424,7.7378,7.8245,7.7782,7.7774,7.8527,8.0305,8.0936,8.0047,8.0958,8.0982,7.9854,8.1637,8.2869,8.3441,8.2194,8.1924,8.2491,8.1478,8.1522,8.2463,8.1449,8.1551,8.2449,8.1419,8.0995,8.0995,8.0995,8.0995,8.1115,8.211,8.1897,8.1129,8.2139,8.1868,8.0995,8.0995,8.0995,8.0995,8.0995,8.0995,8.0995,8.0995,8.1781,8.2704,8.2704,8.2605,8.2282,8.126,8.0995,8.0995,8.0995,8.0995,8.0995,8.0995,8.0995,8.0995,8.0995,8.0995,8.0995,8.0995,8.0995,8.0995,8.0995,8.0995,8.0995,8.0995,8.0995,8.0995,8.0995,8.0995,8.0995,8.0995,8.0995,8.0995,8.0995,8.0995,8.0995,8.0995,8.0995,8.0995,8.0995,8.1093,8.1431,8.2111,8.1431,8.1546,8.2338,8.3001,8.3681,0.0,0.0,0.0,0.0,0.0,0.0,6.5752,6.7523,6.9344,6.8194,6.9159,7.0386,7.1035,7.1667,7.2119,7.2119,7.3754,7.5208,7.563,7.588,7.6309,7.7036,7.6928,7.7237,7.8427,7.7676,7.7878,7.9691,8.0567,8.0697,8.0043,8.065,8.0315,7.875,8.0902,8.1754,8.1136,8.144,8.1519,8.1334,8.1115,8.1129,8.1319,8.1115,8.1129,8.1319,8.11,8.0995,8.0995,8.0995,8.0995,8.1025,8.123,8.1186,8.1025,8.1245,8.1186,8.0995,8.0995,8.0995,8.0995,8.0995,8.0995,8.0995,8.0995,8.1781,8.2704,8.2704,8.2056,8.1275,8.1055,8.0995,8.0995,8.0995,8.0995,8.0995,8.0995,8.0995,8.0995,8.0995,8.0995,8.0995,8.0995,8.0995,8.0995,8.0995,8.0995,8.0995,8.0995,8.0995,8.0995,8.0995,8.0995,8.0995,8.0995,8.0995,8.0995,8.0995,8.0995,8.0995,8.0995,8.0995,8.0995,8.0995,8.1593,8.1949,8.2111,8.1949,8.2532,8.381,8.394,8.4393,0.0,0.0,0.0,6.6323,0.0,0.0,0.0,6.6835,6.7869,6.8811,6.8522,6.869,7.0697,7.0409,7.0301,7.1472,7.3133,7.4373,7.4546,7.5195,7.5976,7.681,7.6547,7.6897,7.8458,7.7807,7.796,7.9566,8.0524,8.0462,7.9265,8.0807,8.0662,7.8478,8.0502,8.1267,8.0504,8.1044,8.1193,8.0995,8.0995,8.0995,8.0995,8.0995,8.0995,8.0995,8.0995,8.0995,8.0995,8.0995,8.0995,8.0995,8.0995,8.0995,8.0995,8.0995,8.0995,8.0995,8.0995,8.0995,8.0995,8.0995,8.0995,8.0995,8.0995,8.1408,8.1854,8.1854,8.1419,8.0995,8.0995,8.0995,8.0995,8.0995,8.0995,8.0995,8.0995,8.0995,8.0995,8.0995,8.0995,8.0995,8.0995,8.0995,8.0995,8.0995,8.0995,8.0995,8.0995,8.0995,8.0995,8.0995,8.0995,8.0995,8.0995,8.0995,8.0995,8.0995,8.0995,8.0995,8.0995,8.0995,8.1157,8.1528,8.1917,8.2435,8.3163,8.3163,8.3519,8.4199,8.4588,8.4959,0.0,0.0,0.0,0.0,0.0,6.7987,0.0,0.0,0.0,6.9025,6.7775,6.7093,6.9832,6.889,6.8307,7.0187,7.1745,7.2576,7.2265,7.3529,7.4963,7.6195,7.6051,7.6562,7.8387,7.7821,7.8006,7.9529,8.0183,7.9954,7.8617,8.088,8.0941,7.817,8.0025,8.0803,8.0192,8.0717,8.0995,8.0995,8.0995,8.0995,8.0995,8.0995,8.0995,8.0995,8.0995,8.0995,8.0995,8.0995,8.0995,8.0995,8.0995,8.0995,8.0995,8.0995,8.0995,8.0995,8.0995,8.0995,8.0995,8.0995,8.0995,8.0995,8.0995,8.0995,8.0995,8.0995,8.0995,8.0995,8.0995,8.0995,8.0995,8.0995,8.0995,8.0995,8.0995,8.0995,8.0995,8.0995,8.0995,8.0995,8.0995,8.0995,8.0995,8.0995,8.0995,8.0995,8.0995,8.0995,8.0995,8.0995,8.0995,8.0995,8.0995,8.0995,8.0995,8.0995,8.0995,8.0995,8.0995,8.0995,8.1352,8.2079,8.2241,8.2936,8.4199,8.4328,8.4393,8.4426,8.5024,8.5283,0.0,0.0,0.0,0.0,7.0968,0.0,0.0,0.0,6.4874,6.2873,0.0,6.2197,6.337,0.0,0.0,6.4347,6.6992,6.8789,6.8083,6.9426,7.141,7.4011,7.5097,7.6372,7.8245,7.7293,7.7821,8.0922,7.9454,7.8649,7.9079,8.0353,7.9833,7.7078,7.8939,7.9687,7.9072,8.0372,8.0995,8.0995,8.0995,8.0995,8.0995,8.0995,8.0995,8.0995,8.0995,8.0995,8.0995,8.0995,8.0995,8.0995,8.0995,8.0995,8.0995,8.0995,8.0995,8.0995,8.0995,8.0995,8.0995,8.0995,8.0995,8.0995,8.0995,8.0995,8.0995,8.0995,8.0995,8.0995,8.0995,8.0995,8.0995,8.0995,8.0995,8.0995,8.0995,8.0995,8.0995,8.0995,8.0995,8.0995,8.0995,8.0995,8.0995,8.0995,8.0995,8.0995,8.0995,8.0995,8.0995,8.0995,8.0995,8.0995,8.0995,8.0995,8.0995,8.0995,8.0995,8.0995,8.0995,8.0995,8.1352,8.2079,8.2742,8.3454,8.4199,8.4862,8.5186,8.5186,8.5251,8.5283,0.0,0.0,0.0,0.0,0.0,0.0,6.5105,0.0,6.3564,0.0,0.0,0.0,0.0,0.0,0.0,0.0,6.5756,6.6909,6.6475,6.8024,6.9961,7.2073,7.2691,7.4217,7.7468,7.6795,7.7172,7.9635,7.9478,7.8785,7.7682,7.9418,7.9319,7.6868,7.8742,7.9521,7.8902,8.0298,8.0995,8.0995,8.0995,8.0995,8.0995,8.0995,8.0995,8.0995,8.0995,8.0995,8.0995,8.0995,8.0995,8.0995,8.0995,8.0995,8.0995,8.0995,8.0995,8.0995,8.0995,8.0995,8.0995,8.0995,8.0995,8.0995,8.0995,8.0995,8.0995,8.0995,8.0995,8.0995,8.0995,8.0995,8.0995,8.0995,8.0995,8.0995,8.0995,8.0995,8.0995,8.0995,8.0995,8.0995,8.0995,8.0995,8.0995,8.0995,8.0995,8.0995,8.0995,8.0995,8.0995,8.0995,8.0995,8.0995,8.0995,8.0995,8.0995,8.0995,8.0995,8.0995,8.0995,8.1431,8.1982,8.2709,8.3422,8.4134,8.4847,8.5154,8.5283,8.5283,8.5283,8.5283,7.4267,0.0,0.0,0.0,0.0,0.0,0.0,0.0,0.0,0.0,0.0,0.0,0.0,0.0,0.0,0.0,0.0,6.547,6.4935,6.6228,6.7936,6.9751,7.0755,7.2575,7.59,7.5662,7.6192,7.8408,7.9102,7.8821,7.7422,7.9097,7.9215,7.7311,7.8925,7.9606,7.9148,8.0387,8.0995,8.0995,8.0995,8.0995,8.0995,8.0995,8.0995,8.0995,8.0995,8.0995,8.0995,8.0995,8.0995,8.0995,8.0995,8.0995,8.0995,8.0995,8.0995,8.0995,8.0995,8.0995,8.0995,8.0995,8.0995,8.0995,8.0995,8.0995,8.0995,8.0995,8.0995,8.0995,8.0995,8.0995,8.0995,8.0995,8.0995,8.0995,8.0995,8.0995,8.0995,8.0995,8.0995,8.0995,8.0995,8.0995,8.0995,8.0995,8.0995,8.0995,8.0995,8.0995,8.0995,8.0995,8.0995,8.0995,8.0995,8.0995,8.0995,8.0995,8.0995,8.0995,8.0995,8.1723,8.245,8.321,8.3843,8.4555,8.5283,8.5283,8.5283,8.5283,8.5283,8.5283,0.0,0.0,0.0,7.0873,0.0,0.0,0.0,0.0,6.4579,0.0,0.0,0.0,0.0,0.0,0.0,0.0,0.0,0.0,0.0,6.3079,6.4479,6.6835,6.9986,7.2375,7.3433,7.3488,7.4807,7.7989,7.7873,7.8205,7.9451,7.9871,7.9577,7.8477,7.9325,7.9772,7.9758,8.0592,8.0995,8.0995,8.0995,8.0995,8.0995,8.0995,8.0995,8.0995,8.0995,8.0995,8.0995,8.0995,8.0995,8.0995,8.0995,8.0995,8.0995,8.0995,8.0995,8.0995,8.0995,8.0995,8.0995,8.0995,8.0995,8.0995,8.0995,8.0995,8.0995,8.0995,8.0995,8.0995,8.0995,8.0995,8.0995,8.0995,8.0995,8.0995,8.0995,8.0995,8.0995,8.0995,8.0995,8.0995,8.0995,8.0995,8.0995,8.0995,8.0995,8.0995,8.0995,8.0995,8.0995,8.0995,8.0995,8.0995,8.0995,8.0995,8.0995,8.0995,8.0995,8.0995,8.0995,8.1723,8.245,8.321,8.3843,8.4555,8.5283,8.5283,8.5283,8.5283,8.5283,8.5283,7.6676,7.6964,7.6348,7.2853,0.0,0.0,0.0,0.0,0.0,0.0,0.0,0.0,0.0,0.0,0.0,0.0,0.0,0.0,0.0,6.0943,6.1771,6.3678,6.6355,6.8565,6.9972,7.213,7.3899,7.4927,7.7386,7.8588,7.7972,7.9087,7.9204,7.7932,7.913,7.962,7.922,8.0401,8.0995,8.0995,8.0995,8.0995,8.0995,8.0995,8.0995,8.0995,8.0995,8.0995,8.0995,8.0995,8.0995,8.0995,8.0995,8.0995,8.0995,8.0995,8.0995,8.0995,8.0995,8.0995,8.0995,8.0995,8.0995,8.0995,8.0995,8.0995,8.0995,8.0995,8.0995,8.0995,8.0995,8.0995,8.0995,8.0995,8.0995,8.0995,8.0995,8.0995,8.0995,8.0995,8.0995,8.0995,8.0995,8.0995,8.0995,8.0995,8.0995,8.0995,8.0995,8.0995,8.0995,8.0995,8.0995,8.0995,8.0995,8.0995,8.0995,8.0995,8.0995,8.1222,8.1723,8.245,8.3163,8.3843,8.4555,8.5057,8.5283,8.5283,8.5283,8.5283,8.5283,8.5283,7.6085,7.6339,7.5923,7.3184,7.1604,6.984,6.6568,0.0,0.0,0.0,0.0,0.0,0.0,0.0,0.0,0.0,0.0,0.0,0.0,5.9901,6.0372,6.1707,6.3768,6.5934,6.819,7.0159,7.2263,7.4585,7.6628,7.7969,7.8311,7.913,7.9274,7.8551,7.9352,7.9687,7.9488,8.0504,8.0995,8.0995,8.0995,8.0995,8.0995,8.0995,8.0995,8.0995,8.0995,8.0995,8.0995,8.0995,8.0995,8.0995,8.0995,8.0995,8.0995,8.0995,8.0995,8.0995,8.0995,8.0995,8.0995,8.0995,8.0995,8.0995,8.0995,8.0995,8.106,8.1319,8.119,8.106,8.1319,8.119,8.0995,8.0995,8.0995,8.0995,8.0995,8.0995,8.0995,8.0995,8.0995,8.0995,8.0995,8.0995,8.0995,8.0995,8.0995,8.0995,8.0995,8.0995,8.0995,8.0995,8.0995,8.0995,8.0995,8.0995,8.0995,8.0995,8.1254,8.1593,8.2079,8.3033,8.3648,8.3843,8.4797,8.5186,8.4927,8.5186,8.5283,8.5283,8.5283,8.5283]},{"header":{"parameterUnit":"m.s-1","parameterCategory":1,"la1":30.6,"la2":29.2853,"lo1":-89.7004,"lo2":-87.6739,"dy":0.0162,"dx":0.0183,"nx":112,"ny":82,"refTime":"2023-10-29T06:00:00:Z","depth":0,"parameterNumber":3,"parameterNumberName":"V-component_of_WINDS"},"data":[0.0,0.0,0.0,0.0,0.0,0.0,0.0,0.0,0.0,0.0,0.0,0.0,0.0,0.0,0.0,0.0,0.0,0.0,0.0,0.0,0.0,0.0,0.0,0.0,0.0,0.0,0.0,0.0,0.0,0.0,0.0,0.0,0.0,0.0,0.0,0.0,0.0,0.0,0.0,0.0,0.0,0.0,0.0,0.0,0.0,0.0,0.0,0.0,0.0,0.0,0.0,0.0,0.0,0.0,0.0,0.0,0.0,0.0,0.0,0.0,0.0,0.0,0.0,0.0,0.0,0.0,0.0,0.0,0.0,0.0,0.0,0.0,0.0,0.0,0.0,0.0,0.0,0.0,0.0,0.0,0.0,0.0,0.0,0.0,0.0,0.0,0.0,0.0,0.0,0.0,0.0,1.3595,1.3803,1.3904,1.3904,1.3731,1.3407,1.284,0.0,0.0,0.0,0.0,0.0,0.0,0.0,0.0,0.0,0.0,0.0,0.0,0.0,0.0,0.0,0.0,0.0,0.0,0.0,0.0,0.0,0.0,0.0,0.0,0.0,0.0,0.0,0.0,0.0,0.0,0.0,0.0,0.0,0.0,0.0,0.0,0.0,0.0,0.0,0.0,0.0,0.0,0.0,0.0,0.0,0.0,0.0,0.0,0.0,0.0,0.0,0.0,0.0,0.0,0.0,0.0,0.0,0.0,0.0,0.0,0.0,0.0,0.0,0.0,0.0,0.0,0.0,0.0,0.0,0.0,0.0,0.0,0.0,0.0,0.0,0.0,0.0,0.0,0.0,0.0,0.0,0.0,0.0,0.0,0.0,0.0,0.0,0.0,0.0,0.0,0.0,0.0,0.0,0.0,0.0,0.0,0.0,0.0,0.0,0.0,0.0,0.0,0.0,0.0,1.253,1.3729,1.3891,1.3904,1.3904,1.388,1.3554,1.2848,0.0,0.0,0.0,0.0,0.0,0.0,0.0,0.0,0.0,0.0,0.0,0.0,0.0,0.0,0.0,0.0,0.0,0.0,0.0,0.0,0.0,0.0,0.0,0.0,0.0,0.0,0.0,0.0,0.0,0.0,0.0,0.0,0.0,0.0,0.0,0.0,0.0,0.0,0.0,0.0,0.0,0.0,0.0,0.0,0.0,0.0,0.0,0.0,0.0,0.0,0.0,0.0,0.0,0.0,0.0,0.0,0.0,0.0,0.0,0.0,0.0,0.0,0.0,0.0,0.0,0.0,0.0,0.0,0.0,0.0,0.0,0.0,0.0,0.0,0.0,0.0,0.0,0.0,0.0,0.0,0.0,0.0,0.0,0.0,0.0,0.0,0.0,0.0,0.0,0.0,0.0,0.0,0.0,0.0,0.0,0.0,0.0,0.0,0.0,0.0,0.0,0.0,0.0,1.2669,1.3178,1.3824,1.3904,1.3904,1.3904,1.4626,1.444,1.2897,1.3157,0.0,0.0,0.0,0.0,0.0,0.0,0.0,0.0,0.0,0.0,0.0,0.0,0.0,0.0,0.0,0.0,0.0,0.0,0.0,0.0,0.0,0.0,0.0,0.0,0.0,0.0,0.0,0.0,0.0,0.0,0.0,0.0,0.0,0.0,0.0,0.0,0.0,0.0,0.0,0.0,0.0,0.0,0.0,0.0,0.0,0.0,0.0,0.0,0.0,0.0,0.0,0.0,0.0,0.0,0.0,0.0,0.0,0.0,0.0,0.0,0.0,0.0,0.0,0.0,0.0,0.0,0.0,0.0,0.0,0.0,0.0,0.0,0.0,0.0,0.0,0.0,0.0,0.0,0.0,0.0,0.0,0.0,0.0,0.0,0.0,0.0,0.0,0.0,0.0,0.0,0.0,0.0,0.0,0.0,0.0,0.0,0.0,0.0,0.0,0.0,0.0,0.0,1.3994,1.4503,1.4929,1.5124,1.5141,1.4973,1.6317,1.6092,1.3615,1.442,0.0,0.0,0.0,0.0,0.0,0.0,0.0,0.0,0.0,0.0,0.0,0.0,0.0,0.0,0.0,0.0,0.0,0.0,0.0,0.0,0.0,0.0,0.0,0.0,0.0,0.0,0.0,0.0,0.0,0.0,0.0,0.0,0.0,0.0,0.0,0.0,0.0,0.0,0.0,0.0,0.0,0.0,0.0,0.0,0.0,0.0,0.0,0.0,0.0,0.0,0.0,0.0,0.0,0.0,0.0,0.0,0.0,0.0,0.0,0.0,0.0,0.0,0.0,0.0,0.0,0.0,0.0,0.0,0.0,0.0,0.0,0.0,0.0,0.0,0.0,0.0,0.0,0.0,0.0,0.0,0.0,0.0,0.0,0.0,0.0,0.0,0.0,0.0,0.0,0.0,0.0,0.0,0.0,0.0,0.0,0.0,0.0,0.0,0.0,0.0,0.0,0.0,1.5306,1.6488,1.7942,1.87,1.884,1.8135,1.9438,1.8885,1.5613,1.5998,0.0,0.0,0.0,0.0,0.0,0.0,0.0,0.0,0.0,0.0,0.0,0.0,0.0,0.0,0.0,0.0,0.0,0.0,0.0,0.0,0.0,0.0,0.0,0.0,0.0,0.0,0.0,0.0,0.0,0.0,0.0,0.0,0.0,0.0,0.0,0.0,0.0,0.0,0.0,0.0,0.0,0.0,0.0,0.0,0.0,0.0,0.0,0.0,0.0,0.0,0.0,0.0,0.0,0.0,0.0,0.0,0.0,0.0,0.0,0.0,0.0,0.0,0.0,0.0,0.0,0.0,0.0,0.0,0.0,0.0,0.0,0.0,0.0,0.0,0.0,0.0,0.0,0.0,0.0,0.0,0.0,0.0,0.0,0.0,0.0,0.0,0.0,0.0,0.0,0.0,0.0,0.0,0.0,0.0,0.0,0.0,0.0,0.0,0.0,0.0,0.0,0.0,1.6707,1.8434,0.0,2.0027,2.0079,1.9802,2.1116,2.0353,1.6599,0.0,0.0,0.0,0.0,0.0,0.0,0.0,0.0,0.0,0.0,0.0,0.0,0.0,0.0,0.0,0.0,0.0,0.0,0.0,0.0,0.0,0.0,0.0,0.0,0.0,0.0,0.0,0.0,0.0,0.0,0.0,0.0,0.0,0.0,0.0,0.0,0.0,0.0,0.0,0.0,0.0,0.0,0.0,0.0,0.0,0.0,0.0,0.0,0.0,0.0,0.0,0.0,0.0,0.0,0.0,0.0,0.0,0.0,0.0,0.0,0.0,0.0,0.0,0.0,0.0,0.0,0.0,0.0,0.0,0.0,0.0,0.0,0.0,0.0,0.0,0.0,0.0,0.0,0.0,0.0,0.0,0.0,0.0,0.0,0.0,0.0,0.0,0.0,0.0,0.0,0.0,0.0,0.0,0.0,0.0,0.0,0.0,0.0,0.0,0.0,0.0,0.0,1.614,1.8621,2.0714,0.0,2.2215,2.2249,2.2022,2.3355,2.233,1.7943,0.0,0.0,0.0,0.0,0.0,0.0,0.0,0.0,0.0,0.0,0.0,0.0,0.0,0.0,0.0,0.0,0.0,0.0,0.0,0.0,0.0,0.0,0.0,0.0,0.0,0.0,0.0,0.0,0.0,0.0,0.0,0.0,0.0,0.0,0.0,0.0,0.0,0.0,0.0,0.0,0.0,0.0,0.0,0.0,0.0,0.0,0.0,0.0,0.0,0.0,0.0,0.0,0.0,0.0,0.0,0.0,0.0,0.0,0.0,0.0,0.0,0.0,0.0,0.0,0.0,0.0,0.0,0.0,0.0,0.0,0.0,0.0,0.0,0.0,0.0,0.0,0.0,0.0,0.0,0.0,0.0,0.0,0.0,0.0,0.0,0.0,0.0,0.0,0.0,0.0,0.0,0.0,0.0,0.0,0.0,0.0,0.0,0.0,0.0,0.0,0.0,0.0,1.8359,2.1095,2.3403,2.4883,2.5678,2.5829,2.5102,2.6365,2.5022,0.0,0.0,0.0,0.0,0.0,0.0,0.0,0.0,0.0,0.0,0.0,0.0,0.0,0.0,0.0,0.0,0.0,0.0,0.0,0.0,0.0,0.0,0.0,0.0,0.0,0.0,0.0,0.0,0.0,0.0,0.0,0.0,0.0,0.0,0.0,0.0,0.0,0.0,0.0,0.0,0.0,0.0,0.0,0.0,0.0,0.0,0.0,0.0,0.0,0.0,0.0,0.0,0.0,0.0,0.0,0.0,0.0,0.0,0.0,0.0,0.0,0.0,0.0,0.0,0.0,0.0,0.0,0.0,0.0,0.0,0.0,0.0,0.0,0.0,0.0,0.0,0.0,0.0,0.0,0.0,0.0,0.0,0.0,0.0,0.0,0.0,0.0,0.0,0.0,0.0,0.0,0.0,0.0,0.0,0.0,0.0,0.0,0.0,0.0,0.0,0.0,0.0,0.0,1.9886,2.3233,2.5929,2.713,2.7453,2.7487,2.7264,2.7659,2.5911,2.1263,0.0,0.0,0.0,0.0,0.0,0.0,0.0,0.0,0.0,0.0,0.0,0.0,0.0,0.0,0.0,0.0,0.0,0.0,0.0,0.0,0.0,0.0,0.0,0.0,0.0,0.0,0.0,0.0,0.0,0.0,0.0,0.0,0.0,0.0,0.0,0.0,0.0,0.0,0.0,0.0,0.0,0.0,0.0,0.0,0.0,0.0,0.0,0.0,0.0,0.0,0.0,0.0,0.0,0.0,0.0,0.0,0.0,0.0,0.0,0.0,0.0,0.0,0.0,0.0,0.0,0.0,0.0,0.0,0.0,0.0,0.0,0.0,0.0,0.0,0.0,0.0,0.0,0.0,0.0,0.0,0.0,0.0,0.0,0.0,0.0,0.0,0.0,0.0,0.0,0.0,0.0,0.0,0.0,0.0,0.0,0.0,0.0,0.0,0.0,0.0,0.0,0.0,2.0801,2.4628,2.7497,2.8132,2.82,2.82,2.82,2.82,2.6693,2.3187,0.0,0.0,0.0,0.0,0.0,0.0,0.0,0.0,0.0,0.0,0.0,0.0,0.0,0.0,0.0,0.0,0.0,0.0,0.0,0.0,0.0,0.0,0.0,0.0,0.0,0.0,0.0,0.0,0.0,0.0,0.0,0.0,0.0,0.0,0.0,0.0,0.0,0.0,0.0,0.0,0.0,0.0,0.0,0.0,0.0,0.0,0.0,0.0,0.0,0.0,0.0,0.0,0.0,0.0,0.0,0.0,0.0,0.0,0.0,0.0,0.0,0.0,0.0,0.0,0.0,0.0,0.0,0.0,0.0,0.0,0.0,0.0,0.0,0.0,0.0,0.0,0.0,0.0,0.0,0.0,0.0,0.0,0.0,0.0,0.0,0.0,0.0,0.0,0.0,0.0,0.0,0.0,0.0,0.0,0.0,0.0,0.0,0.0,0.0,0.0,0.0,0.0,2.1378,2.5434,2.8264,2.8295,2.8311,2.8311,2.8311,2.8311,2.7389,2.522,0.0,0.0,0.0,0.0,0.0,0.0,0.0,0.0,0.0,0.0,0.0,0.0,0.0,0.0,0.0,0.0,0.0,0.0,0.0,0.0,0.0,0.0,0.0,0.0,0.0,0.0,0.0,0.0,0.0,0.0,0.0,0.0,0.0,0.0,0.0,0.0,0.0,0.0,0.0,0.0,0.0,0.0,0.0,0.0,0.0,0.0,0.0,0.0,0.0,0.0,0.0,0.0,0.0,0.0,0.0,0.0,0.0,0.0,0.0,0.0,1.7558,0.0,0.0,0.0,0.0,0.0,0.0,0.0,0.0,0.0,0.0,0.0,0.0,0.0,0.0,0.0,0.0,0.0,0.0,0.0,0.0,0.0,0.0,0.0,0.0,0.0,0.0,0.0,0.0,0.0,0.0,0.0,0.0,0.0,0.0,0.0,0.0,0.0,0.0,0.0,0.0,0.0,2.267,2.623,2.8775,2.9043,2.9075,2.9075,2.9075,2.9075,2.809,2.5857,2.5048,0.0,0.0,0.0,0.0,0.0,0.0,0.0,0.0,0.0,0.0,0.0,0.0,0.0,0.0,0.0,0.0,0.0,0.0,0.0,0.0,0.0,0.0,0.0,0.0,0.0,0.0,0.0,0.0,0.0,0.0,0.0,0.0,0.0,0.0,0.0,0.0,0.0,0.0,0.0,0.0,0.0,0.0,0.0,0.0,0.0,0.0,0.0,0.0,0.0,0.0,0.0,0.0,0.0,0.0,0.0,0.0,0.0,0.0,0.0,0.0,1.8034,0.0,0.0,0.0,0.0,0.0,0.0,0.0,0.0,0.0,0.0,0.0,0.0,0.0,0.0,0.0,0.0,0.0,0.0,0.0,0.0,0.0,0.0,0.0,0.0,0.0,0.0,0.0,0.0,0.0,0.0,0.0,0.0,0.0,0.0,0.0,0.0,0.0,0.0,0.0,0.0,2.3073,2.6616,2.9109,2.9282,2.9298,2.9298,2.9298,2.9298,2.8792,2.7612,2.6386,0.0,0.0,0.0,0.0,0.0,0.0,0.0,0.0,0.0,0.0,0.0,0.0,0.0,0.0,0.0,0.0,0.0,0.0,0.0,0.0,0.0,0.0,0.0,0.0,0.0,0.0,0.0,0.0,0.0,0.0,0.0,0.0,0.0,0.0,0.0,0.0,0.0,0.0,0.0,0.0,0.0,0.0,0.0,0.0,0.0,0.0,0.0,0.0,0.0,0.0,0.0,0.0,0.0,2.0143,2.0357,2.0608,2.0608,2.108,2.1778,2.0284,2.0381,2.1445,1.9559,0.0,0.0,0.0,0.0,0.0,0.0,0.0,0.0,0.0,0.0,0.0,0.0,0.0,0.0,0.0,0.0,0.0,0.0,0.0,0.0,0.0,0.0,0.0,0.0,2.0414,2.0661,1.9477,0.0,0.0,0.0,0.0,0.0,0.0,0.0,0.0,0.0,0.0,0.0,2.3742,2.7102,2.9409,2.9472,2.9472,2.9472,2.9472,2.9425,2.9393,2.9393,2.7577,2.6248,0.0,0.0,0.0,0.0,0.0,0.0,0.0,0.0,0.0,0.0,0.0,0.0,0.0,0.0,0.0,0.0,0.0,0.0,0.0,0.0,0.0,0.0,0.0,0.0,0.0,0.0,0.0,0.0,0.0,0.0,0.0,0.0,1.6794,1.722,0.0,0.0,0.0,0.0,0.0,0.0,0.0,0.0,0.0,0.0,0.0,0.0,0.0,1.9814,2.0014,2.0858,2.131,2.1357,2.2217,2.2668,2.2699,2.2699,2.2778,2.2887,2.266,0.0,2.1569,2.1276,0.0,0.0,0.0,0.0,0.0,0.0,0.0,0.0,0.0,0.0,0.0,0.0,0.0,0.0,0.0,0.0,0.0,0.0,0.0,0.0,0.0,0.0,2.409,2.4223,2.4355,2.4446,0.0,2.1111,1.8258,1.8861,1.8907,0.0,0.0,0.0,0.0,0.0,0.0,0.0,2.6282,2.843,2.9851,3.0137,3.0169,3.0169,3.0169,2.9899,2.974,2.974,2.9186,2.812,2.6529,2.582,0.0,0.0,0.0,0.0,0.0,0.0,0.0,0.0,0.0,0.0,0.0,0.0,0.0,0.0,0.0,0.0,0.0,0.0,0.0,0.0,0.0,0.0,0.0,0.0,0.0,0.0,0.0,0.0,0.0,1.616,1.7169,1.7716,1.7203,1.6774,0.0,0.0,0.0,0.0,0.0,0.0,0.0,0.0,0.0,2.0919,2.1097,2.1464,2.2054,2.2513,2.282,2.3021,2.3454,2.3662,2.3662,2.3662,2.3662,2.3662,2.3662,2.3422,2.2929,2.1989,2.1064,2.0205,0.0,0.0,0.0,0.0,1.974,1.9781,2.0628,2.0818,2.0541,1.9813,0.0,0.0,0.0,0.0,0.0,0.0,0.0,0.0,0.0,0.0,2.392,2.5062,2.5315,2.5403,2.5722,2.4073,2.2415,0.0,2.1338,2.0397,1.8888,0.0,0.0,0.0,0.0,2.5273,2.6989,2.8884,3.0137,3.028,3.0296,3.0296,3.0296,3.0169,3.009,3.009,2.9772,2.9231,2.8426,2.7041,2.5374,0.0,0.0,0.0,0.0,0.0,0.0,0.0,0.0,0.0,0.0,0.0,0.0,0.0,0.0,0.0,0.0,0.0,0.0,0.0,0.0,0.0,0.0,0.0,0.0,0.0,0.0,0.0,0.0,1.7265,1.8003,1.8442,1.8403,1.8175,0.0,0.0,0.0,0.0,0.0,0.0,2.0167,2.0715,2.135,2.2086,2.2396,2.2962,2.3837,2.3853,2.4029,2.4368,2.4368,2.4368,2.4368,2.4368,2.4368,2.4368,2.4368,2.4368,2.4243,2.2833,2.2127,2.1874,2.1378,2.1067,2.0956,2.1569,2.1648,2.1635,2.2792,2.3098,2.2849,2.2182,2.1703,2.1159,2.0046,0.0,0.0,0.0,0.0,2.1342,2.3177,2.3461,2.3667,2.5261,2.5634,2.5722,2.6058,2.6018,2.5594,0.0,2.3876,2.2789,2.0814,0.0,0.0,0.0,0.0,2.6456,2.7832,2.9322,3.0348,3.065,3.0685,3.0722,3.0836,3.0677,3.0566,3.0566,3.0169,2.9931,2.9931,2.8302,2.7048,2.6205,0.0,0.0,0.0,0.0,0.0,0.0,0.0,0.0,0.0,0.0,0.0,0.0,0.0,0.0,0.0,0.0,0.0,0.0,0.0,0.0,0.0,0.0,0.0,0.0,0.0,0.0,0.0,0.0,0.0,2.0115,2.0579,0.0,0.0,0.0,0.0,1.964,2.0318,2.097,2.1472,2.2258,2.2923,2.3477,2.3817,2.417,2.4543,2.4558,2.4719,2.5042,2.5042,2.5042,2.5042,2.5042,2.5042,2.5042,2.5042,2.5042,2.4998,2.4273,2.3515,2.2836,2.28,2.2323,2.1735,2.2532,2.3008,2.3334,2.386,2.4231,2.4378,2.3714,2.251,2.1437,2.2176,2.1358,0.0,0.0,2.2856,2.3242,2.4941,2.5356,2.5443,2.588,2.5971,2.6058,2.6395,2.6028,2.5774,0.0,2.6583,2.639,2.5185,0.0,2.5676,2.6043,2.6247,2.7232,2.965,3.0053,3.0522,3.1619,3.1722,3.188,3.2261,3.1713,3.1331,3.1331,3.068,3.0264,3.0264,2.9857,2.8821,2.7066,2.6189,0.0,0.0,0.0,0.0,0.0,0.0,0.0,0.0,0.0,0.0,0.0,0.0,0.0,0.0,0.0,0.0,0.0,0.0,0.0,0.0,0.0,0.0,0.0,0.0,0.0,0.0,0.0,0.0,2.0273,2.0916,0.0,2.0437,2.0793,2.1104,2.1168,2.2057,2.27,2.2873,2.3573,2.4055,2.4249,2.4573,2.4878,2.5183,2.5403,2.5666,2.6006,2.6211,2.6313,2.6313,2.6313,2.6313,2.6313,2.6313,2.6313,2.6299,2.6064,2.531,2.4319,2.4502,2.4278,2.3935,2.4391,2.4544,2.4526,2.4678,2.4832,2.4876,2.4635,2.4313,2.4066,2.4371,2.4218,2.4075,2.4747,2.4925,2.5069,2.5679,2.5985,2.6219,2.6559,2.6808,2.7042,2.7345,2.7239,2.7215,2.7632,2.7159,2.641,2.5571,2.6561,2.7311,2.6857,2.7903,2.9197,3.0571,3.0746,3.0897,3.1301,3.1352,3.1412,3.1536,3.1339,3.1354,3.1649,3.0971,3.069,3.1014,3.0439,2.9724,2.8852,2.8099,2.6143,0.0,0.0,0.0,0.0,0.0,0.0,0.0,0.0,0.0,0.0,0.0,0.0,0.0,0.0,0.0,0.0,0.0,0.0,0.0,0.0,0.0,0.0,0.0,0.0,0.0,0.0,2.1333,2.0593,2.1461,2.1897,2.1384,2.1907,2.2398,2.269,2.3479,2.3941,2.3941,2.454,2.4966,2.5069,2.5391,2.5772,2.6161,2.6398,2.6658,2.698,2.7184,2.7301,2.7301,2.7301,2.7301,2.7301,2.7301,2.7301,2.7301,2.7301,2.6808,2.6035,2.5883,2.5666,2.542,2.5605,2.5564,2.5391,2.5391,2.5391,2.5391,2.5391,2.552,2.5678,2.5678,2.5824,2.6029,2.6132,2.6161,2.6219,2.6457,2.6676,2.691,2.7232,2.7569,2.7842,2.8028,2.8247,2.8471,2.8691,2.7973,2.7196,2.6862,2.7995,2.8535,2.7437,2.8805,3.0001,3.015,3.0558,3.0962,3.1209,3.1224,3.1305,3.1447,3.0851,3.0821,3.1681,3.0659,3.0475,3.1495,3.0213,2.9426,2.9359,2.8283,2.6449,2.387,0.0,0.0,0.0,0.0,0.0,0.0,0.0,0.0,0.0,0.0,0.0,0.0,0.0,0.0,0.0,0.0,0.0,0.0,0.0,0.0,0.0,0.0,0.0,2.0515,2.1142,2.1529,2.1217,2.2312,2.2942,2.2501,2.3166,2.378,2.4088,2.4439,2.4646,2.4646,2.5227,2.5705,2.6029,2.6383,2.6852,2.7514,2.7543,2.7686,2.7955,2.797,2.7951,2.7951,2.7951,2.7951,2.7951,2.7951,2.7951,2.7951,2.7951,2.797,2.7849,2.6907,2.6336,2.6044,2.6044,2.6044,2.6029,2.6029,2.6029,2.6029,2.6029,2.6029,2.6044,2.6044,2.6044,2.6132,2.6457,2.6544,2.6705,2.7353,2.7529,2.7617,2.7882,2.8204,2.8437,2.8437,2.8959,2.9418,2.9418,2.9169,2.9052,2.9359,2.9681,2.9442,2.8076,2.9058,0.0,2.8503,2.9569,3.0666,3.1348,3.1419,3.16,3.205,3.0299,2.9882,3.1477,2.9829,2.9689,3.1711,2.9295,2.8091,2.8518,2.6765,2.5618,2.5197,0.0,0.0,0.0,0.0,0.0,0.0,0.0,0.0,0.0,0.0,0.0,0.0,0.0,0.0,0.0,0.0,0.0,0.0,0.0,0.0,0.0,0.0,2.1438,2.1284,2.2097,2.2744,2.2891,2.3235,2.3506,2.3621,2.4054,2.4351,2.4456,2.5169,2.5622,2.5622,2.6457,2.6983,2.7071,2.7375,2.7707,2.815,2.8388,2.8666,2.8988,2.9222,2.9359,2.9359,2.9359,2.9359,2.9359,2.9359,2.9359,2.9359,2.9359,2.9213,2.8886,2.7901,2.7345,2.7089,2.7089,2.6925,2.672,2.672,2.672,2.672,2.672,2.6881,2.7089,2.7089,2.7214,2.74,2.7488,2.7517,2.7619,2.8047,2.8344,2.8578,2.8915,2.9237,2.9491,2.9491,2.9623,2.9833,3.0082,3.0053,2.995,2.9789,3.0038,3.0136,2.9733,3.0182,0.0,3.0153,3.0458,3.0404,2.9621,2.9551,2.9593,2.9718,2.9216,2.9658,3.143,3.0795,3.0759,3.1619,3.07,2.9887,2.9234,2.7492,2.6112,0.0,0.0,0.0,0.0,0.0,0.0,0.0,0.0,0.0,0.0,0.0,0.0,0.0,0.0,0.0,0.0,0.0,0.0,0.0,0.0,0.0,0.0,2.1569,2.2286,2.2428,2.2932,2.3384,2.3574,2.3853,2.4146,2.4499,2.4805,2.5081,2.5376,2.6032,2.6486,2.6617,2.7422,2.7934,2.8085,2.8369,2.8691,2.9032,2.9227,2.9418,2.9608,2.9818,2.9906,2.9906,2.9906,2.9906,2.9906,2.9906,2.9906,2.9906,2.9906,2.9789,0.0,0.0,0.0,0.0,0.0,2.7535,2.7375,2.7375,2.7375,2.7375,2.7375,2.7506,2.7682,2.7832,2.7989,2.8174,2.8457,2.853,2.8603,2.8925,2.9164,2.9359,2.9549,2.9877,3.0111,3.0111,3.0194,3.032,3.053,3.0574,0.0,3.0325,3.0443,3.0374,2.9816,3.0348,3.0588,3.0046,3.0442,3.0505,2.9718,2.9635,2.9635,2.9635,2.9008,0.0,0.0,0.0,2.9969,3.0129,3.0136,0.0,0.0,0.0,2.6963,2.6913,2.6046,0.0,0.0,2.4048,2.3701,0.0,0.0,0.0,0.0,0.0,0.0,0.0,0.0,0.0,0.0,0.0,0.0,0.0,0.0,0.0,0.0,2.2519,2.3265,2.3603,2.372,2.3764,2.3764,2.4293,2.4807,2.5217,2.5505,2.5927,2.6574,2.6983,2.7353,2.7646,0.0,0.0,0.0,0.0,2.9628,2.995,2.9965,2.998,2.9989,2.9989,2.9989,2.9989,2.9989,2.9989,2.9989,2.9989,2.9989,2.9989,2.9989,2.9989,2.998,2.9593,2.909,2.8525,2.8233,2.8131,2.8131,2.8131,0.0,0.0,2.8131,2.8131,2.8174,2.8467,2.8574,2.8691,2.93,2.9447,2.952,2.9877,2.9965,2.9965,2.9989,3.0229,3.0448,3.0448,3.0627,3.0796,3.0796,3.0796,3.0796,3.0796,3.0796,3.0401,2.9195,3.0046,3.038,2.9174,3.0067,3.0734,3.0588,0.0,0.0,3.0567,2.9271,2.9111,3.0699,2.9464,2.8586,2.8411,2.8798,2.8677,2.7927,2.761,2.8131,2.9467,2.9154,2.9022,2.892,2.5519,2.4727,0.0,0.0,0.0,0.0,0.0,0.0,0.0,0.0,0.0,0.0,0.0,0.0,0.0,0.0,0.0,2.2133,2.2941,2.3618,2.3956,2.447,2.4807,2.4807,2.4924,2.5335,2.6135,2.6515,2.6884,2.728,2.807,2.8568,2.8627,2.9257,2.9637,2.9696,2.9774,2.9965,3.0287,3.0302,3.0399,3.0642,0.0,0.0,3.0642,3.0642,3.0642,3.0642,3.0642,3.0642,3.0642,3.0642,3.0642,3.0583,3.0018,2.971,2.9593,2.9535,2.9505,2.9505,2.9505,2.9505,2.9505,2.9505,2.9505,2.952,2.9593,2.9608,0.0,2.9774,2.9804,2.9877,3.0214,3.0302,3.0361,3.0568,3.0685,3.0709,3.0709,3.0753,3.0796,3.0796,3.0796,3.0796,3.0796,3.0796,3.0713,3.0442,3.063,3.0713,3.0442,3.063,3.038,2.93,2.9195,2.9195,2.9195,2.8909,2.9314,3.0713,3.0509,3.0327,3.0275,3.0358,3.0234,2.9868,2.9795,2.9786,2.9804,2.9745,2.9716,2.9681,2.8404,2.799,0.0,0.0,0.0,0.0,0.0,0.0,0.0,0.0,0.0,0.0,0.0,1.9933,0.0,0.0,2.222,2.2889,2.3613,2.4219,2.4558,2.501,2.5244,2.5132,2.5657,2.6299,2.6943,2.7258,2.773,2.8393,2.8729,2.9052,2.9374,2.9877,3.0141,3.0141,3.0282,3.0422,3.0604,3.0604,3.0671,3.0796,3.0796,3.0796,3.0796,3.0796,3.0796,3.0796,3.0796,3.0796,3.0796,3.0796,3.0796,3.0767,3.0466,3.0267,3.0126,2.9965,2.9906,2.9906,2.9906,2.9906,2.9906,2.9906,2.9906,2.9936,3.0097,3.0141,3.0185,3.0325,3.0349,3.0378,3.0574,3.0604,3.0627,3.0767,3.0796,3.0796,3.0796,3.0796,3.0855,3.1016,3.1045,3.1103,3.1264,3.1315,3.1235,3.1074,3.1177,3.1315,3.1315,3.1315,3.1025,3.0368,3.0305,3.0305,3.0305,3.0305,3.0509,3.1018,3.1045,3.0972,3.0811,3.0796,3.0744,3.0583,3.0604,3.053,3.0349,3.0349,3.0349,3.0334,3.0012,2.969,0.0,0.0,0.0,0.0,0.0,0.0,0.0,0.0,1.9035,1.9939,2.0474,2.1033,2.1839,2.2392,2.3,2.3838,2.438,2.4851,2.5305,2.5666,2.5783,2.5511,2.643,2.7261,2.7719,2.8018,2.853,2.9344,2.9271,2.9418,2.9965,3.0302,3.0478,3.0478,3.0685,3.0796,3.0796,3.0796,3.0796,3.0796,3.0796,3.0796,3.0796,3.0796,3.0796,3.0796,3.0796,3.0796,3.0796,3.0796,3.0796,3.0796,3.0796,3.0671,3.0448,3.0164,3.0077,3.0077,3.0077,3.0077,3.0077,3.0077,3.0077,3.012,3.0405,3.0478,3.0516,3.0738,3.0796,3.0796,3.0796,3.0796,3.0796,3.0796,3.0855,3.0899,3.0899,3.0943,3.1074,3.1337,3.1402,3.149,3.1754,3.19,3.1856,3.1461,3.1622,3.1798,3.1798,3.1798,3.1798,3.1798,3.1798,3.1798,3.1798,3.1798,3.1681,3.1417,3.1402,3.1285,3.1001,3.0928,3.0899,3.0899,3.084,3.0796,3.0796,3.0796,3.0796,3.0796,3.0796,3.0554,1.6372,1.7121,0.0,1.881,1.9074,1.9681,0.0,0.0,2.1219,2.2433,2.2951,2.3242,2.337,2.3676,2.4218,2.5149,2.5157,2.5349,2.6208,2.6866,2.7148,2.6826,2.7177,2.7792,2.8671,2.9052,2.9286,2.9388,2.9921,3.0258,3.0331,3.0618,3.0753,3.0753,3.0782,3.0796,3.0796,3.0796,3.0796,3.0796,3.0796,3.0796,3.0796,3.0796,3.0796,3.0796,3.0796,3.0796,3.0796,3.0796,3.0796,3.0796,3.0796,3.0782,3.0738,3.0709,3.0694,3.0694,3.0694,3.0694,3.0694,3.0694,3.0694,3.0709,3.0738,3.0753,3.0753,3.0796,3.0796,3.0796,3.0796,3.0796,3.0796,3.0796,3.103,3.1235,3.1235,3.149,3.1695,3.1739,3.1739,3.1754,3.1783,3.228,3.2478,3.1827,3.1768,3.1798,3.1798,3.1798,3.1798,3.1798,3.1798,3.1798,3.1798,3.1798,3.1783,3.1739,3.1739,3.1724,3.1695,3.1396,3.1235,3.1235,3.0943,3.0796,3.0796,3.0796,3.0796,3.0796,3.0796,3.0767,1.9087,0.0,0.0,0.0,2.067,2.1049,2.2036,2.2198,2.2362,2.322,2.3647,2.3897,2.3897,2.4322,2.4822,0.0,2.564,2.6196,2.6972,2.7324,2.7719,2.8334,2.8524,2.8759,2.9154,2.9315,2.9637,3.0173,3.0346,3.0478,3.0612,3.0738,3.0796,3.0796,3.0796,3.0796,3.0796,3.0796,3.0796,3.0796,3.0796,3.0796,3.0796,3.0796,3.0796,3.0796,3.0796,3.0796,3.0796,3.0796,3.0796,3.0796,3.0796,3.0796,3.0796,3.0796,3.0796,3.0796,3.0796,3.0796,3.0796,3.0796,3.0796,3.0796,3.0796,3.0796,3.0796,3.0796,3.0796,3.0796,3.0796,3.0943,3.1089,3.1089,3.1359,3.1593,3.1593,3.1695,3.1915,3.2317,3.239,3.2485,3.2851,3.3144,3.3232,3.2946,3.2902,3.2902,3.2902,3.2902,3.2902,3.2902,3.2902,3.2902,3.2902,3.2902,3.2763,3.2405,3.239,3.2214,3.1812,3.1666,3.1593,3.1593,3.1461,3.1367,3.1367,3.1367,3.1367,3.1367,3.1367,3.1367,2.0236,0.0,0.0,2.1256,2.1915,2.2327,2.2422,2.2809,2.3273,2.3662,2.4073,2.4382,2.4382,2.4924,2.5423,2.5598,2.6269,2.6998,2.7656,2.7909,2.8363,2.9286,2.9476,2.9564,2.9672,2.974,3.0027,3.0642,3.0574,3.0604,3.0796,3.1025,3.1046,3.0811,3.1274,3.1295,3.0796,3.1046,3.1046,3.0796,3.0796,3.0796,3.0796,3.0796,3.0796,3.0811,3.0899,3.0943,3.0943,3.103,3.1074,3.1074,3.1074,3.1074,3.1074,3.1074,3.0957,3.0796,3.0796,3.0796,3.0796,3.0796,3.0796,3.0796,3.0796,3.0869,3.0943,3.0943,3.1001,3.1074,3.1074,3.1271,3.1446,3.1446,3.1695,3.1959,3.2068,3.2134,3.2368,3.2947,3.3064,3.3188,3.3633,3.3779,3.3838,3.3838,3.3926,3.3911,3.3713,3.3706,3.3706,3.3706,3.3706,3.3706,3.3706,3.3706,3.3502,3.3093,3.3064,3.2822,3.2354,3.2163,3.2083,3.2083,3.1885,3.1798,3.1798,3.1798,3.1798,3.1798,3.1798,3.1798,0.0,0.0,2.0903,2.1465,2.258,2.3541,2.3541,2.382,2.407,2.4071,2.4617,2.5056,2.5056,2.5549,2.6193,2.684,2.7236,2.7671,2.8296,2.893,2.9359,2.9388,2.9701,3.0009,0.0,3.0598,3.0671,3.0434,3.0642,3.0796,3.0796,3.1591,3.1674,3.0817,3.25,3.2582,3.0817,3.1632,3.1632,3.0796,3.0796,3.0796,3.0796,3.0796,3.0796,3.0826,3.1133,3.1279,3.1315,3.1637,3.1768,3.1768,3.1768,3.1768,3.1768,3.1768,3.1373,3.0796,3.0796,3.0796,3.0796,3.0796,3.0796,3.0796,3.0796,3.1016,3.1279,3.1279,3.152,3.1768,3.1768,3.1783,3.1783,3.1783,3.2032,3.2375,3.2698,3.2961,3.326,3.3619,3.3677,3.3692,3.3706,3.397,3.4174,3.4174,3.4452,3.4423,3.3794,3.3706,3.3706,3.3706,3.3706,3.3706,3.3706,3.3706,3.3706,3.3677,3.3677,3.3654,3.3648,3.3071,3.2771,3.2771,3.2141,3.1798,3.1798,3.1798,3.1798,3.1798,3.1798,3.1798,1.9893,0.0,2.1808,2.2707,2.3277,2.3647,2.3883,2.419,2.4424,2.4424,2.4672,2.4896,2.4896,2.5392,2.6016,2.6691,2.7186,2.7865,2.8915,2.9081,2.9227,2.9687,3.0549,0.0,0.0,0.0,0.0,3.0698,3.1861,3.2314,3.1694,3.252,3.2603,3.1694,3.2467,3.2631,3.2062,3.218,3.2404,3.2703,3.2305,3.2141,3.2141,3.2141,3.2141,3.212,3.2258,3.2302,3.2302,3.2419,3.2463,3.2449,3.2229,3.212,3.209,3.1871,3.1666,3.1461,3.1461,3.1461,3.1461,3.1461,3.1461,3.1461,3.1461,3.1549,3.1637,3.1637,3.171,3.1798,3.1798,3.1959,3.22,3.2419,3.269,3.299,3.3312,3.3472,3.3838,3.4825,3.4487,3.4308,3.5208,3.4902,3.4525,3.4525,3.4636,3.4622,3.4379,3.435,3.435,3.435,3.435,3.435,3.435,3.435,3.4262,3.4043,3.4028,3.394,3.3721,3.3502,3.3407,3.3407,3.3165,3.3063,3.3063,3.3063,3.3063,3.3063,3.3063,3.3063,2.1072,2.1735,2.2321,2.3478,2.3868,2.4014,2.4219,2.4543,2.4807,2.4908,2.4867,2.4871,2.508,2.5461,2.5941,2.6559,2.7317,2.8172,2.9226,2.9284,2.9462,3.0133,3.1091,3.1523,0.0,0.0,0.0,3.1342,3.2644,3.324,3.2623,3.3592,3.3718,3.2809,3.3719,3.3971,3.3378,3.3514,3.3573,3.3508,3.3041,3.2727,3.2624,3.2742,3.28,3.28,3.2895,3.2939,3.2954,3.3071,3.3115,3.31,3.288,3.2807,3.2778,3.2573,3.2485,3.2405,3.1959,3.1798,3.1798,3.1798,3.1798,3.1798,3.1798,3.1871,3.2002,3.212,3.2222,3.2339,3.2456,3.2646,3.2851,3.3056,3.3253,3.3577,3.425,3.4133,3.4359,3.6052,3.5599,3.529,3.6498,3.5962,3.53,3.5088,3.507,3.5002,3.4885,3.4997,3.507,3.507,3.507,3.5026,3.4894,3.4894,3.4724,3.4394,3.4364,3.4277,3.4072,3.394,3.3882,3.3882,3.3765,3.3706,3.3706,3.3706,3.3706,3.3706,3.3706,3.3706,2.1758,2.2158,2.2517,2.38,2.4351,2.4602,2.4617,2.4866,2.5157,2.5378,2.5072,2.4901,0.0,0.0,2.5943,2.6494,2.7628,2.8637,2.9279,2.9635,3.0064,0.0,0.0,0.0,0.0,0.0,0.0,3.2376,0.0,3.3608,3.3567,3.4707,3.4965,3.4073,3.6087,3.6371,3.471,3.5544,3.507,3.331,3.307,3.2756,3.2434,3.2756,3.2888,3.2903,3.3165,3.3274,3.3304,3.3633,3.375,3.375,3.3736,3.3736,3.3713,3.3721,3.3706,3.3531,3.2324,3.19,3.19,3.19,3.19,3.19,3.19,3.212,3.2449,3.2756,3.3041,3.3304,3.3633,3.3706,3.3706,3.3789,3.3804,3.4189,3.5494,3.5057,3.5031,3.726,3.6985,3.6653,3.7509,3.7118,3.6515,3.5924,3.5877,3.5712,3.5269,3.5504,3.5694,3.5694,3.5694,3.5562,3.5255,3.5225,3.5084,3.4768,3.4753,3.4739,3.4724,3.4408,3.4233,3.4218,3.3911,3.375,3.375,3.375,3.375,3.375,3.375,3.375,2.2184,2.2948,2.3733,2.4315,2.4543,2.4675,2.491,2.5044,2.4962,2.4491,2.4181,2.3866,0.0,0.0,0.0,2.6398,2.7796,0.0,3.0,3.0188,0.0,3.1369,0.0,3.3063,3.3142,3.4726,0.0,0.0,3.4926,3.5149,3.4498,3.5606,3.5872,3.4985,3.6023,3.6418,3.6019,3.669,3.6319,3.4991,3.4925,3.4613,3.4095,3.4168,3.4212,3.4212,3.43,3.4306,3.4321,3.4417,3.4461,3.4408,3.416,3.4072,3.4043,3.3794,3.3706,3.3663,3.3326,3.3224,3.3224,3.3224,3.3224,3.3224,3.3224,3.3268,3.3355,3.3443,3.3516,3.3581,3.3692,3.3706,3.3947,3.4961,3.5189,3.5532,3.6843,3.6921,3.7137,3.8451,3.877,3.8745,3.8527,3.8348,3.8206,3.8023,3.8194,3.765,3.5798,3.5636,3.5694,3.5694,3.5694,3.5665,3.5577,3.5562,3.5533,3.546,3.5445,3.5333,3.5075,3.4997,3.4835,3.4578,3.4505,3.4461,3.4461,3.4461,3.4461,3.4461,3.4461,3.4461,2.3156,2.3831,2.4424,2.4876,2.4993,2.494,2.4665,2.4712,2.4548,2.369,2.3268,0.0,0.0,0.0,0.0,0.0,0.0,0.0,3.0221,3.0685,3.1152,0.0,3.317,0.0,3.4074,3.5291,3.5915,0.0,3.5834,3.5963,3.5607,3.6412,3.6726,3.64,3.6946,3.7248,3.7295,3.7368,3.6775,3.5544,3.5446,3.49,3.4043,3.4189,3.4335,3.449,3.449,3.4578,3.471,3.471,3.471,3.4695,3.4481,3.4408,3.4402,3.4204,3.413,3.413,3.413,3.413,3.4087,3.3809,3.3706,3.3706,3.3706,3.3706,3.3736,3.3882,3.3926,3.4047,3.4638,3.4476,3.4428,3.563,3.5906,3.6229,3.7368,3.775,3.8211,3.9369,4.0124,4.0374,3.9741,3.9616,3.9522,3.9252,3.9331,3.8929,3.7623,3.7448,3.7293,3.6833,3.6785,3.6555,3.5938,3.5875,3.5817,3.5694,3.5694,3.5621,3.5421,3.543,3.5343,3.5143,3.5143,3.5143,3.5143,3.5143,3.5143,3.5143,3.5143,3.5143,2.425,2.4661,2.4849,2.5371,2.55,2.5255,2.4266,2.4179,2.4008,2.2968,0.0,2.223,2.2613,2.3708,2.4861,2.5803,0.0,2.9188,3.036,3.1202,3.1856,3.2411,3.3829,3.4844,3.4946,3.5706,3.6166,3.6166,3.6217,3.6354,3.659,3.7018,3.745,3.7848,3.8152,3.8302,3.8302,3.7782,3.6867,3.5562,3.5462,3.475,3.3536,3.3815,3.4124,3.447,3.4331,3.4423,3.471,3.471,3.471,3.471,3.471,3.471,3.471,3.471,3.471,3.471,3.471,3.471,3.4607,3.4013,3.3838,3.3838,3.3838,3.3838,3.3896,3.4174,3.4262,3.4552,3.5865,3.5545,3.5186,3.6312,3.6591,3.6869,3.7848,3.8391,3.9018,4.0245,4.1197,4.1621,4.1069,4.0993,4.0781,4.0206,4.0109,4.0109,4.0109,3.9866,3.9379,3.8476,3.828,3.7708,3.6471,3.6246,3.607,3.5841,3.5826,3.5797,3.5753,3.5753,3.5738,3.5694,3.5694,3.5694,3.5694,3.5694,3.5694,3.5694,3.5694,3.5694,2.4465,2.4964,2.5371,2.5471,2.55,2.5281,2.4499,2.4014,0.0,0.0,0.0,2.144,2.1142,2.2542,2.4167,2.5543,0.0,0.0,0.0,0.0,3.2597,0.0,0.0,0.0,0.0,0.0,0.0,0.0,3.6813,3.6881,3.6625,3.7299,3.7865,3.8199,3.8267,3.8302,3.8302,3.8198,3.7383,3.5911,3.665,3.6387,3.5258,3.5273,3.5485,3.5803,3.4957,0.0,3.471,3.471,3.471,3.471,3.471,3.471,3.471,3.471,3.471,3.471,3.471,3.471,3.468,3.4578,3.4534,3.4534,3.4534,3.4534,3.4549,3.4607,3.4622,3.487,3.5925,3.608,3.6382,3.8168,3.8598,3.8955,4.0305,4.0851,4.1247,4.1825,4.2075,4.2266,4.2403,4.2447,4.2392,4.2275,4.2268,4.2268,4.2268,4.0764,3.9631,3.9477,3.8696,3.8093,3.7861,3.7026,3.6495,3.6436,3.6436,3.6319,3.6041,3.6041,3.5934,3.5694,3.5694,3.5694,3.5694,3.5694,3.5694,3.5694,3.5694,3.5694,2.4719,2.5069,2.533,2.5474,2.55,2.5137,2.3735,0.0,0.0,0.0,0.0,2.0795,2.0721,0.0,0.0,0.0,0.0,0.0,0.0,0.0,0.0,0.0,0.0,0.0,0.0,0.0,0.0,0.0,3.7159,3.7436,3.7227,3.7758,3.8135,3.828,3.8302,3.8302,3.8302,3.8302,3.7677,3.6496,3.7151,3.6922,3.5901,3.6088,3.6096,3.5914,3.5428,3.5023,3.471,3.471,3.471,3.471,3.471,3.471,3.471,3.471,3.471,3.471,3.471,3.471,3.471,3.471,3.471,3.471,3.471,3.5069,3.549,3.549,3.5824,3.6436,3.7454,3.7316,3.7347,3.9017,3.9538,4.0064,4.1476,4.1908,4.2125,4.2495,4.2563,4.2615,4.2779,4.2813,4.2813,4.2813,4.2813,4.2813,4.2813,4.1914,4.1102,4.0594,4.0109,3.9379,3.8295,3.7731,3.7189,3.6647,3.6597,3.6539,3.6378,3.6363,3.6305,3.6168,3.6168,3.6168,3.6168,3.6168,3.6168,3.6168,3.6168,3.6168,2.4813,2.5144,2.5335,2.5474,2.5544,2.5066,2.2951,2.2622,0.0,0.0,1.9898,2.0165,2.0464,0.0,2.3083,0.0,2.6273,0.0,0.0,0.0,0.0,0.0,0.0,0.0,0.0,0.0,0.0,0.0,3.7711,3.8126,3.8036,3.8357,3.8558,3.8558,3.8473,3.8439,3.8439,3.8439,3.7948,3.704,3.7643,3.7463,3.6638,3.6949,3.675,3.6105,3.5876,3.5397,3.471,3.471,3.471,3.471,3.471,3.471,3.471,3.4783,3.4797,3.4812,3.4885,3.49,3.49,3.49,3.4856,3.4797,3.4797,3.5501,3.6303,3.6303,3.6986,3.7965,3.8972,3.8699,3.8505,3.9802,4.0401,4.0939,4.2062,4.2347,4.2501,4.2745,4.2813,4.2813,4.2813,4.2813,4.2813,4.2813,4.2813,4.2813,4.2813,4.2813,4.2484,4.1722,4.1416,4.0546,3.8671,3.8304,3.7755,3.6671,3.6597,3.6597,3.6597,3.6597,3.6597,3.6597,3.6597,3.6597,3.6597,3.6597,3.6597,3.6597,3.6597,3.6597,2.446,2.5274,2.5839,2.5576,2.5737,2.5345,2.2957,0.0,0.0,1.9346,1.9162,1.9491,1.9818,0.0,0.0,0.0,2.542,2.7566,0.0,0.0,0.0,0.0,0.0,0.0,0.0,0.0,0.0,3.8096,3.8871,3.9184,3.8837,3.9184,3.939,3.939,3.9042,3.8832,3.8832,3.8832,3.8375,3.7463,3.8725,3.8992,3.8352,3.8408,3.8055,3.7391,3.6529,3.56,0.0,3.471,3.471,3.471,3.471,3.471,3.4739,3.504,3.5143,3.5211,3.5504,3.5606,3.5606,3.5606,3.5401,3.5143,3.5143,3.5814,3.6569,3.6569,3.732,3.8396,3.9395,3.9805,4.0216,4.1272,4.1836,4.215,4.2279,4.2529,4.2762,4.2772,4.2813,4.2813,4.2813,4.2813,4.2813,4.2813,4.2813,4.2813,4.2813,4.2813,4.2765,4.2669,4.1842,4.0836,3.9672,3.872,3.7755,3.6671,3.6597,3.6597,3.6597,3.6597,3.6597,3.6597,3.6597,3.6597,3.6597,3.6597,3.6597,3.6597,3.6597,3.6597,2.4285,2.5027,2.542,2.5288,2.5211,2.4587,2.2413,0.0,2.0747,1.9125,1.8916,1.9211,1.9858,2.0433,2.1382,2.3101,2.4311,2.6102,2.9147,0.0,0.0,0.0,0.0,0.0,0.0,0.0,3.7968,3.8961,3.9505,3.9722,3.9568,3.9505,3.9515,3.9515,3.9338,3.927,3.927,3.927,3.9072,3.872,3.9447,3.9681,3.943,3.9084,3.8543,3.7848,3.6884,3.5997,0.0,3.5289,3.5289,3.5289,3.5289,3.5289,3.5304,3.5445,3.5504,3.5518,3.565,3.5694,3.5814,3.64,3.666,3.6675,3.648,3.7381,3.8499,3.8723,3.9499,4.0404,4.08,4.118,4.1562,4.1962,4.2324,4.2615,4.2615,4.271,4.2813,4.2813,4.2813,4.2813,4.2813,4.2813,4.2813,4.2813,4.2813,4.2813,4.2813,4.2813,4.2556,4.1963,4.1537,4.086,3.9777,3.8769,3.7755,3.6671,3.6597,3.6597,3.6597,3.6597,3.6597,3.6597,3.6597,3.6597,3.6597,3.6597,3.6597,3.6597,3.6597,3.6597,2.3728,2.4568,2.5088,2.4985,2.4721,2.3971,0.0,0.0,2.0103,1.8755,1.8648,1.902,1.9715,2.0262,2.1083,2.2469,2.3609,2.5155,2.7507,2.9715,0.0,0.0,0.0,0.0,0.0,0.0,3.8692,3.9578,3.9984,4.0184,4.0184,3.995,3.9818,3.9818,3.9715,3.9647,3.9647,3.9647,3.9647,3.9664,4.0018,4.0184,4.0162,3.9537,3.8941,3.833,3.7241,3.644,0.0,3.577,3.5694,3.5694,3.5694,3.5694,3.5709,3.5797,3.5826,3.5817,3.5919,3.6166,3.6554,3.7263,3.798,3.8579,3.8447,3.9138,4.0056,4.0281,4.1094,4.1902,4.1998,4.2244,4.245,4.245,4.2632,4.2813,4.2813,4.2813,4.2813,4.2813,4.2813,4.2813,4.2813,4.2813,4.2813,4.2813,4.2813,4.2813,4.2813,4.2813,4.2532,4.1818,4.1464,4.0739,3.9379,3.8598,3.7755,3.6671,3.6597,3.6597,3.6597,3.6597,3.6597,3.6597,3.6597,3.6597,3.6597,3.6597,3.6745,3.7066,3.6745,3.677,2.2603,2.3933,2.5012,2.469,2.4396,2.3698,0.0,0.0,1.973,1.8053,1.8295,1.8878,1.9164,2.0127,2.1296,2.2505,2.3558,2.5009,2.7369,2.88,0.0,0.0,0.0,0.0,0.0,3.8547,3.963,3.9979,4.0378,0.0,4.0606,4.0589,4.0589,4.0589,4.0201,3.9991,3.9991,3.9991,3.9991,3.9991,4.0395,4.0606,4.0561,3.9904,3.9426,3.9021,3.7679,3.6911,0.0,3.5945,3.5694,3.5694,3.5694,3.5694,3.5738,3.5997,3.609,3.6134,3.648,3.7273,3.8182,3.8182,3.9313,4.0737,4.1132,4.1,4.0695,4.0695,4.1456,4.2364,4.2693,4.2796,4.2772,4.2772,4.2813,4.2813,4.2813,4.2813,4.2813,4.2813,4.2813,4.2813,4.2813,4.2813,4.2813,4.2813,4.2813,4.2813,4.2813,4.2813,4.2813,4.2789,4.189,4.0449,3.8378,3.8222,3.7755,3.6671,3.6597,3.6597,3.6597,3.6597,3.6597,3.6597,3.6597,3.6597,3.6597,3.6597,3.714,3.8173,3.7091,3.7165,2.1278,2.2249,2.2947,2.2508,2.2313,2.1832,2.0367,0.0,1.8732,1.7883,1.811,1.8671,1.9347,1.9953,2.0923,2.2686,2.3357,2.4453,2.6763,0.0,0.0,0.0,0.0,3.685,0.0,0.0,3.975,4.0361,4.0538,4.0606,4.0606,4.0606,4.0606,4.0606,4.0464,4.0412,4.0412,4.0412,4.0412,4.0412,4.0555,4.0606,4.0561,3.9676,3.9327,3.9389,3.8274,3.7582,3.7268,3.7085,3.6732,3.6329,3.6329,3.6329,3.6344,3.6407,3.6451,3.6564,3.7391,3.7927,3.8427,3.9866,4.0682,4.1243,4.2073,4.2069,4.1832,4.2079,4.2386,4.2659,4.2779,4.2813,4.2813,4.2813,4.2813,4.2813,4.2813,4.2813,4.2813,4.2813,4.2813,4.2813,4.2813,4.2813,4.2813,4.2813,4.2813,4.2813,4.2813,4.2813,4.2532,4.1842,4.1488,4.0739,3.9355,3.8598,3.7755,3.6671,3.6597,3.6597,3.6597,3.6597,3.6597,3.6597,3.6597,3.6597,3.6597,3.6597,3.677,3.714,3.8231,3.8916,0.0,2.1027,2.1598,2.1408,2.1158,0.0,0.0,0.0,1.8291,1.7921,1.814,1.8619,1.9264,1.986,2.0763,2.2309,2.3198,2.444,2.6674,0.0,0.0,0.0,0.0,0.0,0.0,3.9087,3.9801,4.0555,4.0606,4.0606,4.0606,4.0606,4.0606,4.0606,4.0606,4.0606,4.0606,4.0606,4.0606,4.0606,4.0606,4.0606,4.0561,3.9693,3.9534,3.991,3.8781,3.8316,0.0,3.7819,3.7369,3.6952,3.6701,3.6597,3.6597,3.6597,3.6844,3.7312,3.7976,3.8696,3.9574,4.0885,4.1577,4.1963,4.2621,4.2642,4.2529,4.2745,4.2813,4.2813,4.2813,4.2813,4.2813,4.2813,4.2813,4.2813,4.2813,4.2813,4.2813,4.2813,4.2813,4.2813,4.2813,4.2813,4.2813,4.2813,4.2813,4.2813,4.2813,4.2813,4.2556,4.1914,4.1866,4.1457,4.04,3.9014,3.7927,3.7239,3.6819,3.6597,3.6597,3.6597,3.6597,3.6597,3.6597,3.6597,3.6597,3.7386,3.7765,3.7814,3.9526,4.0303,0.0,0.0,0.0,0.0,0.0,0.0,0.0,0.0,0.0,1.811,1.8331,1.8677,1.8982,1.9851,2.0797,2.1655,2.3116,2.4907,2.712,2.9042,0.0,0.0,0.0,0.0,3.8663,3.9217,3.9801,4.0555,4.0606,4.0606,4.0606,4.0606,4.0606,4.0606,4.0606,4.0606,4.0606,4.0606,4.0606,4.0606,4.0606,4.0606,4.0578,3.9956,4.0014,0.0,3.9282,3.9037,3.9427,3.817,3.762,3.7478,3.6825,3.6647,3.6667,3.6696,3.7371,3.8274,3.8402,3.9672,4.1295,4.1368,4.2035,4.2813,4.2813,4.2813,4.2813,4.2813,4.2813,4.2813,4.2813,4.2813,4.2813,4.2813,4.2813,4.2813,4.2813,4.2813,4.2813,4.2813,4.2813,4.2813,4.2813,4.2813,4.2813,4.2813,4.2813,4.2813,4.2813,4.2813,4.2813,4.2813,4.2813,4.2412,4.1505,3.9574,3.8378,3.832,3.7362,3.6819,3.6819,3.6819,3.6819,3.6819,3.6819,3.6819,3.6819,3.8843,3.9769,3.9745,4.086,4.1368,1.779,0.0,1.8693,1.8384,0.0,0.0,0.0,0.0,0.0,0.0,0.0,1.8611,1.9386,2.0056,2.1032,2.2588,2.376,2.5479,2.8341,0.0,0.0,0.0,3.7056,3.7815,3.9396,3.9523,3.9801,4.0555,4.0606,4.0606,4.0606,4.0606,4.0606,4.0606,4.0606,4.0606,4.0606,4.0606,4.0606,4.0606,4.0606,4.0606,4.0583,4.0442,4.0464,4.0583,4.027,3.9637,3.8812,3.8498,3.7746,3.6815,3.6642,3.6918,3.7408,3.7714,3.8297,3.9105,4.0182,4.0885,4.1416,4.2196,4.2621,4.2813,4.2813,4.2813,4.2813,4.2813,4.2813,4.2813,4.2813,4.2813,4.2813,4.2813,4.2813,4.2813,4.2813,4.2813,4.2813,4.2813,4.2813,4.2813,4.2813,4.2813,4.2813,4.2813,4.2813,4.2813,4.2813,4.2813,4.2813,4.2813,4.2813,4.2717,4.246,4.1288,4.0231,3.9404,3.9111,3.8965,3.8965,3.8965,3.8965,3.8965,3.8965,3.8965,3.8965,4.0303,4.0497,3.9729,4.1601,4.2052,1.719,1.7653,1.8056,1.7906,1.7942,0.0,0.0,0.0,0.0,0.0,0.0,0.0,1.9147,2.0226,2.1398,2.2587,2.4809,2.7669,0.0,0.0,0.0,0.0,3.7753,3.8276,0.0,3.9452,3.9801,4.0555,4.0606,4.0606,4.0606,4.0606,4.0606,4.0606,4.0606,4.0606,4.0606,4.0606,4.0606,4.0606,4.0606,4.0606,4.0606,4.0606,4.0606,4.0583,4.027,3.9726,3.899,3.8229,3.7475,3.6841,3.6841,3.7166,3.7733,3.8417,3.9313,4.0262,4.1036,4.1601,4.21,4.2604,4.2813,4.2813,4.2813,4.2813,4.2813,4.2813,4.2813,4.2813,4.2813,4.2813,4.2813,4.2813,4.2813,4.2813,4.2813,4.2813,4.2813,4.2813,4.2813,4.2813,4.2813,4.2813,4.2813,4.2813,4.2813,4.2813,4.2813,4.2813,4.2813,4.2813,4.2813,4.2813,4.2813,4.2292,4.1553,4.0497,3.9972,3.9704,3.9704,3.9704,3.9704,3.9704,3.9704,3.9923,4.0449,4.103,4.1223,4.1167,4.2268,4.2508,1.7087,1.7678,1.8273,1.8203,1.8269,0.0,0.0,0.0,0.0,0.0,0.0,0.0,0.0,0.0,0.0,0.0,2.6248,0.0,3.4255,0.0,0.0,3.7571,3.8191,0.0,3.9072,3.9341,3.9801,4.0555,4.0606,4.0606,4.0606,4.0606,4.0606,4.0606,4.0606,4.0606,4.0606,4.0606,4.0606,4.0606,4.0606,4.055,4.0464,4.0532,4.055,4.0413,3.9795,3.9481,3.9245,3.7654,3.6952,3.6918,3.7107,3.7451,3.7979,3.9115,4.0342,4.147,4.1496,4.21,4.2813,4.2813,4.2813,4.2813,4.2813,4.2813,4.2813,4.2813,4.2813,4.2813,4.2813,4.2813,4.2813,4.2813,4.2813,4.2813,4.2813,4.2813,4.2813,4.2813,4.2813,4.2813,4.2813,4.2813,4.2813,4.2813,4.2813,4.2813,4.2813,4.2813,4.2813,4.2813,4.2813,4.2813,4.2813,4.2813,4.2436,4.1577,4.0691,4.0182,4.0182,4.0182,4.0182,4.0182,4.0182,4.0618,4.1529,4.1529,4.1963,4.2813,4.2813,4.2813,1.748,1.8345,1.8803,1.7527,1.7673,0.0,0.0,0.0,0.0,0.0,0.0,0.0,0.0,0.0,0.0,0.0,0.0,3.153,0.0,0.0,3.6938,3.7907,0.0,3.8491,3.9952,3.9733,3.9801,4.0555,4.0606,4.0606,4.0606,4.0606,4.0606,4.0606,4.0606,4.0606,4.0606,4.0606,4.0606,4.0606,4.0606,4.0298,3.9779,4.0333,4.0298,3.9733,3.9346,3.8865,3.8241,3.7131,3.6375,3.6036,3.7157,3.7992,3.8751,4.0374,4.1472,4.2202,4.2478,4.2669,4.2813,4.2813,4.2813,4.2813,4.2813,4.2813,4.2813,4.2813,4.2813,4.2813,4.2813,4.2813,4.2813,4.2813,4.2813,4.2813,4.2813,4.2813,4.2813,4.2813,4.2813,4.2813,4.2813,4.2813,4.2813,4.2813,4.2813,4.2813,4.2813,4.2813,4.2813,4.2813,4.2813,4.2813,4.2813,4.2813,4.2741,4.258,4.2412,4.2316,4.2316,4.2316,4.2316,4.2316,4.2316,4.2412,4.2556,4.2556,4.2669,4.2813,4.2813,4.2813,1.7254,1.7966,1.8558,1.8184,0.0,0.0,0.0,0.0,0.0,0.0,0.0,0.0,0.0,0.0,0.0,0.0,0.0,3.2126,3.4483,3.5988,3.7139,0.0,0.0,3.883,3.948,3.9526,3.9801,4.0555,4.0606,4.0692,4.0915,4.0726,4.0606,4.0606,4.0606,4.0606,4.0606,4.0606,4.0606,4.0606,4.0606,4.0145,3.935,3.9649,3.9322,3.8503,3.7979,3.7562,3.7234,3.6803,3.6552,3.6663,3.819,3.9194,4.0015,4.1562,4.231,4.2597,4.2745,4.2813,4.2813,4.2813,4.2813,4.2813,4.2813,4.2813,4.2813,4.2813,4.2813,4.2813,4.2813,4.2813,4.2813,4.2813,4.2813,4.2813,4.2813,4.2813,4.2813,4.2813,4.2813,4.2813,4.2813,4.2813,4.2813,4.2813,4.2813,4.2813,4.2813,4.2813,4.2813,4.2813,4.2813,4.2813,4.2813,4.2813,4.2813,4.2813,4.2813,4.2813,4.2813,4.2813,4.2813,4.2813,4.2813,4.2813,4.2813,4.2813,4.2813,4.2813,4.2813,4.2813,1.7125,1.7706,1.845,0.0,0.0,0.0,0.0,0.0,0.0,0.0,0.0,0.0,0.0,0.0,0.0,0.0,3.1547,3.2688,3.5405,3.6519,3.7258,3.7828,3.8543,3.8967,3.8908,3.9248,3.9767,4.0412,4.0555,4.0743,4.1035,4.076,4.0606,4.0606,4.0606,4.0606,4.0606,4.0606,4.0606,4.0606,4.0356,3.9753,3.8873,3.8791,3.8224,3.7334,3.7001,3.6821,3.6844,3.6937,3.7169,3.7598,3.9295,4.0502,4.1379,4.2406,4.2813,4.2813,4.2813,4.2813,4.2813,4.2813,4.2813,4.2813,4.2813,4.2813,4.2813,4.2813,4.2813,4.2813,4.2813,4.2813,4.2813,4.2813,4.2813,4.2813,4.2813,4.2813,4.2813,4.2813,4.2813,4.2813,4.2813,4.2813,4.2813,4.2813,4.2813,4.2813,4.2813,4.2813,4.2813,4.2813,4.2813,4.2813,4.2813,4.2813,4.2813,4.2813,4.2813,4.2813,4.2813,4.2813,4.2813,4.2813,4.2813,4.2813,4.2813,4.2813,4.2813,4.2813,4.2813,4.2813,1.7534,1.8222,1.9026,1.9822,0.0,0.0,0.0,0.0,0.0,0.0,0.0,0.0,0.0,0.0,2.9193,3.1251,3.2251,3.3571,3.5754,0.0,3.721,3.7246,3.7913,3.8515,3.8866,3.9248,3.9664,4.0013,4.0395,4.0623,4.064,4.0623,4.0606,4.0606,4.0606,4.0606,4.0606,4.0606,4.0606,4.0583,3.9651,3.8853,3.817,3.7835,3.7334,3.6694,3.7288,3.7516,3.7571,3.7927,3.8109,3.8305,4.0034,4.1498,4.2683,4.2748,4.2813,4.2813,4.2813,4.2813,4.2813,4.2813,4.2813,4.2813,4.2813,4.2813,4.2813,4.2813,4.2813,4.2813,4.2813,4.2813,4.2813,4.2813,4.2813,4.2813,4.2813,4.2813,4.2813,4.2813,4.2813,4.2813,4.2813,4.2813,4.2813,4.2813,4.2813,4.2813,4.2813,4.2813,4.2813,4.2813,4.2813,4.2813,4.2813,4.2813,4.2813,4.2813,4.2813,4.2813,4.2813,4.2813,4.2813,4.2813,4.2813,4.2813,4.2813,4.2813,4.2813,4.2813,4.2813,4.2813,1.7227,1.8215,1.9309,1.9734,0.0,0.0,0.0,0.0,0.0,0.0,0.0,0.0,0.0,0.0,2.9902,3.0177,3.1951,3.356,3.4372,3.6051,3.7189,3.7189,3.7857,3.837,3.8507,3.8905,3.9282,3.9659,4.0036,4.0344,4.0589,4.0606,4.0606,4.0606,4.0606,4.0606,4.0606,4.0606,4.0606,4.0583,3.9582,3.8624,3.7767,3.7039,3.6583,3.638,3.6614,3.7194,3.8042,3.8799,3.9403,3.9971,4.1457,4.2341,4.2813,4.2813,4.2813,4.2813,4.2813,4.2813,4.2813,4.2813,4.2813,4.2813,4.2813,4.2813,4.2813,4.2813,4.2813,4.2813,4.2813,4.2813,4.2813,4.2813,4.2813,4.2813,4.2813,4.2813,4.2813,4.2813,4.2813,4.2813,4.2813,4.2813,4.2813,4.2813,4.2813,4.2813,4.2813,4.2813,4.3298,4.4531,4.4673,4.4673,4.4673,4.352,4.2813,4.2813,4.2813,4.2813,4.2813,4.2813,4.2813,4.2813,4.2813,4.2813,4.2813,4.2813,4.2813,4.2813,4.2813,4.2813,1.747,1.8456,1.9593,0.0,0.0,0.0,0.0,0.0,0.0,0.0,0.0,0.0,0.0,0.0,0.0,0.0,3.1962,3.3588,3.387,3.5824,3.7189,3.7189,3.7857,3.8302,3.8302,3.8661,3.9077,3.948,3.9813,4.0167,4.0589,4.0606,4.0606,4.0606,4.0606,4.0606,4.0606,4.0606,4.0447,4.0129,3.9445,3.8742,3.8037,3.6761,3.6359,3.6668,3.7102,3.7825,3.8763,4.0018,4.0899,4.1508,4.2447,4.2813,4.2813,4.2813,4.2813,4.2813,4.2813,4.2813,4.2813,4.2813,4.2813,4.2813,4.2813,4.2813,4.2813,4.2813,4.2813,4.2813,4.2813,4.2813,4.2813,4.2813,4.2813,4.2813,4.2813,4.2813,4.2813,4.2813,4.2813,4.2813,4.2813,4.2813,4.2813,4.2813,4.2813,4.3035,4.3663,4.3758,4.4507,4.6523,4.5604,4.5127,4.5745,4.3955,4.2813,4.2813,4.2813,4.2813,4.2813,4.2813,4.2813,4.2813,4.2813,4.2813,4.2813,4.2813,4.2813,4.2813,4.2813,4.2813,1.8488,1.9033,1.9891,0.0,0.0,0.0,0.0,0.0,0.0,0.0,0.0,0.0,0.0,0.0,0.0,3.106,3.2472,3.3788,3.4661,3.6175,3.7189,3.7189,3.7857,3.8302,3.8302,3.8661,3.9059,3.9458,3.9813,4.0167,4.0572,4.0606,4.0606,4.0606,4.0606,4.0606,4.0606,4.0606,4.0106,3.9125,3.9102,3.9102,3.9011,3.7085,3.6715,3.7685,3.9095,3.9723,3.9842,4.1595,4.2495,4.2813,4.2813,4.2813,4.2813,4.2813,4.2813,4.2813,4.2813,4.2813,4.2813,4.2813,4.2813,4.2813,4.2813,4.2813,4.2813,4.2813,4.2813,4.2813,4.2813,4.2813,4.2813,4.2813,4.2813,4.2813,4.2813,4.2813,4.2813,4.2813,4.2813,4.2813,4.2813,4.2813,4.2813,4.2813,4.2813,4.3567,4.558,4.5844,4.6616,4.8589,4.5222,4.3663,4.5627,4.3955,4.2813,4.2813,4.2813,4.2813,4.2813,4.2813,4.2813,4.2813,4.2813,4.2813,4.2813,4.2813,4.2813,4.2813,4.2813,4.2813,1.7763,1.914,0.0,0.0,0.0,0.0,0.0,0.0,0.0,0.0,0.0,0.0,0.0,0.0,0.0,3.0311,3.153,3.2829,3.3768,3.527,3.6522,3.7127,3.7857,3.8302,3.8302,3.8422,3.8644,3.9059,3.9419,3.9796,4.015,4.0446,4.0606,4.0606,4.0606,4.0606,4.0606,4.0606,4.0447,4.0152,3.9445,3.8375,3.7062,3.7154,3.7346,3.7685,3.9095,4.0244,4.1198,4.2222,4.271,4.2813,4.2813,4.2813,4.2813,4.2813,4.2813,4.2813,4.2813,4.2813,4.2813,4.2813,4.2813,4.2813,4.2813,4.2813,4.2813,4.2813,4.2813,4.2813,4.2813,4.2813,4.2813,4.2813,4.2813,4.2813,4.2813,4.2813,4.2813,4.2813,4.2813,4.2813,4.2813,4.2813,4.2813,4.2813,4.4002,4.5627,4.7664,4.9098,4.9668,4.8888,4.7733,4.6705,4.5886,4.3955,4.2813,4.2813,4.2813,4.2813,4.2813,4.2813,4.2813,4.2813,4.2813,4.2813,4.2813,4.2813,4.2813,4.2813,4.2813,4.2813,1.9064,2.024,0.0,0.0,0.0,0.0,0.0,0.0,0.0,0.0,0.0,0.0,0.0,3.0356,0.0,3.0324,3.1289,3.2438,3.3363,3.4897,3.6229,3.7106,3.7857,3.8302,3.8302,3.8302,3.8524,3.9094,3.9355,3.9715,4.0201,4.0464,4.0606,4.0606,4.0606,4.0606,4.0606,4.0606,4.0402,4.0015,3.9787,3.8651,3.6784,3.7761,3.8486,3.9103,4.0241,4.1261,4.217,4.2625,4.2813,4.2813,4.2813,4.2813,4.2813,4.2813,4.2813,4.2813,4.2813,4.2813,4.2813,4.2813,4.2813,4.2813,4.2813,4.2813,4.2813,4.2813,4.2813,4.2813,4.2813,4.2813,4.2813,4.2813,4.2813,4.2813,4.2813,4.2813,4.2813,4.2813,4.2813,4.2813,4.2813,4.2813,4.2813,4.2813,4.5198,4.7432,4.8635,5.0512,5.1238,5.0079,4.8546,4.7129,4.5891,4.4696,4.3663,4.2861,4.3544,4.3639,4.2837,4.2813,4.2813,4.2813,4.2813,4.2813,4.2813,4.2813,4.2813,4.2813,4.2813,4.2813,2.1331,0.0,0.0,0.0,0.0,0.0,0.0,0.0,0.0,0.0,0.0,3.0405,3.0434,3.0627,3.0796,3.0796,3.1529,3.2438,3.3363,3.4897,3.6229,3.7106,3.7857,3.8302,3.8302,3.8302,3.8627,3.9446,3.9515,3.9818,4.0572,4.0606,4.0606,4.0606,4.0606,4.0606,4.0606,4.0606,4.0152,3.9262,4.0175,3.9651,3.797,3.886,4.0033,4.1343,4.2011,4.2478,4.2813,4.2813,4.2813,4.2813,4.2813,4.2813,4.2813,4.2813,4.2813,4.2813,4.2813,4.2813,4.2813,4.2813,4.2813,4.2813,4.2813,4.2813,4.2813,4.2813,4.2813,4.2813,4.2813,4.2813,4.2813,4.2813,4.2813,4.2813,4.2813,4.2813,4.2813,4.2813,4.2813,4.2813,4.2813,4.2813,4.2933,4.3298,4.6308,4.8658,4.9026,5.0603,5.1643,5.1441,4.8385,4.6266,4.6078,4.6055,4.5292,4.3448,4.5056,4.5245,4.3418,4.2988,4.2813,4.2813,4.2964,4.2964,4.2813,4.2964,4.2964,4.2813,4.2813,4.2909,1.9904,2.1499,0.0,0.0,2.5987,2.7522,2.8234,2.9076,2.9716,2.9789,3.0111,3.0463,3.0671,3.0753,3.0796,3.0796,3.1529,3.2438,3.3363,3.4897,3.6229,3.7106,3.7857,3.8302,3.8302,3.8302,3.8627,3.9446,3.9515,3.9818,4.0572,4.0606,4.0606,4.0606,4.0606,4.0606,4.0606,4.0606,4.0493,4.0288,4.0493,4.0532,4.0431,4.0655,4.122,4.208,4.2227,4.2478,4.2813,4.2813,4.2813,4.2813,4.2813,4.2813,4.2813,4.2813,4.2813,4.2813,4.2813,4.2813,4.2813,4.2813,4.2813,4.2813,4.2813,4.2813,4.2813,4.2813,4.2813,4.2813,4.2813,4.2813,4.2813,4.2813,4.2813,4.2813,4.2813,4.2813,4.2813,4.2813,4.2813,4.2813,4.2813,4.2813,4.3877,4.7032,4.6896,4.7571,5.0671,5.1439,5.1102,4.9599,5.0034,4.9808,4.8289,4.815,4.7965,4.7524,4.7919,4.7965,4.7524,4.4477,4.2813,4.2813,4.4341,4.4388,4.2813,4.4388,4.4341,4.2813,4.2813,4.3663,2.0535,0.0,0.0,2.5382,0.0,2.8072,2.872,2.9418,2.995,3.0111,3.0369,3.0627,3.0767,3.0796,3.0942,3.1357,3.1798,3.2561,3.3931,3.5162,3.6229,3.7106,3.7857,3.8302,3.8302,3.8302,3.8627,3.9446,3.9515,3.9818,4.0572,4.0606,4.0606,4.0606,4.0606,4.0606,4.0606,4.0606,4.0606,4.0606,4.0606,4.0875,4.1463,4.1651,4.1943,4.2296,4.246,4.2649,4.2813,4.2813,4.2813,4.2813,4.2813,4.2813,4.2813,4.2813,4.2813,4.2813,4.2813,4.2813,4.2813,4.2813,4.2813,4.2813,4.2813,4.2813,4.2813,4.2813,4.2813,4.2813,4.2813,4.2813,4.2813,4.2813,4.2813,4.2813,4.2813,4.2813,4.2813,4.2813,4.2813,4.2813,4.2813,4.2813,4.3496,4.5622,4.5839,4.6896,4.9919,5.1102,5.1326,5.0307,5.1102,5.0898,4.898,4.9645,4.9782,4.8865,4.9668,4.9782,4.8842,4.6798,4.5669,4.5669,4.6686,4.6728,4.5693,4.6733,4.6686,4.5669,4.5669,4.6237,2.123,0.0,2.332,2.6706,2.774,0.0,2.9183,2.9672,2.9994,3.0317,3.0598,3.0796,3.0796,3.0796,3.1087,3.1963,3.2232,3.2911,3.458,3.5556,3.6397,3.7106,3.7857,3.8302,3.8302,3.8302,3.8627,3.9446,3.9515,3.9818,4.0572,4.0606,4.0606,4.0606,4.0606,4.0606,4.0606,4.0606,4.0606,4.0606,4.0743,4.1154,4.1816,4.221,4.2381,4.2399,4.2676,4.2813,4.2813,4.2813,4.2813,4.2813,4.2813,4.2813,4.2813,4.2813,4.2813,4.2813,4.2813,4.2813,4.2813,4.2813,4.2813,4.2813,4.2813,4.3035,4.3322,4.3322,4.3322,4.3322,4.3322,4.3059,4.2813,4.2813,4.2813,4.2813,4.2813,4.2813,4.2813,4.2813,4.2813,4.2892,4.3275,4.3322,4.3424,4.3782,4.5245,4.7036,4.9049,5.0694,5.171,5.171,5.2003,5.1575,4.9965,5.1304,5.153,4.9919,5.1326,5.1507,4.9874,4.9828,4.9828,4.9828,4.9485,4.9141,4.8796,4.9141,4.9141,4.8796,4.8796,4.898,1.9304,0.0,2.4429,0.0,2.7863,2.816,0.0,0.0,2.9994,0.0,3.0598,3.0796,3.0796,3.0796,3.1087,3.1963,3.2788,3.3649,3.4661,3.6093,3.7064,3.7189,3.7857,3.8302,3.8302,3.8302,3.8627,3.9446,3.9515,3.9818,4.0572,4.0606,4.0606,4.0606,4.0606,4.0606,4.0606,4.0606,4.0606,4.0623,4.1234,4.1782,4.2227,4.258,4.2727,4.2745,4.2779,4.2813,4.2813,4.2813,4.2813,4.2813,4.2813,4.2813,4.2813,4.2813,4.2813,4.2813,4.2813,4.2813,4.2813,4.2813,4.2813,4.2813,4.2813,4.4026,4.5392,4.5392,4.5392,4.5392,4.5392,4.4121,4.2813,4.2813,4.2813,4.2813,4.2813,4.2813,4.2813,4.2813,4.2813,4.3353,4.5104,4.5392,4.6003,4.7733,4.8242,4.9118,5.1057,5.1552,5.171,5.171,5.3255,5.4188,5.3944,5.4143,5.4188,5.3944,5.4166,5.4188,5.3922,5.39,5.39,5.39,5.2204,5.0489,4.8796,5.0489,5.0444,4.8796,4.8796,4.9714,2.0317,2.2422,2.4637,0.0,2.7892,2.8204,2.9403,2.9784,3.0053,3.053,3.0729,3.0796,3.0796,3.0796,3.1253,3.2664,3.3219,3.4036,3.56,3.662,3.7279,3.7522,3.7998,3.8302,3.8302,3.8507,3.8888,3.9463,3.9659,4.0018,4.0572,4.0606,4.0606,4.0606,4.0606,4.0606,4.0606,4.0606,4.0726,4.0949,4.1679,4.2125,4.2343,4.3803,4.386,4.2813,4.2813,4.2813,4.2813,4.2813,4.3448,4.4483,4.4483,4.4483,4.4483,4.4483,4.3782,4.2813,4.2813,4.2813,4.2813,4.2813,4.3567,4.4483,4.4483,4.5886,4.7246,4.6102,4.5815,4.5533,4.4412,4.3448,4.2813,4.2813,4.2813,4.2813,4.2813,4.2813,4.2813,4.2813,4.3711,4.4749,4.5651,4.6733,4.778,4.8681,4.8796,4.9508,5.1462,5.171,5.2116,5.3255,5.4166,5.4696,5.4696,5.4696,5.4696,5.4696,5.4696,5.4696,5.4696,5.4696,5.4696,5.4696,5.3833,5.2965,5.2114,5.2965,5.2943,5.2114,5.2114,5.2563,0.0,0.0,2.3725,2.6585,2.7366,2.7903,0.0,0.0,3.0062,3.0665,3.0796,3.0796,3.0796,3.0869,3.1488,3.3214,3.3565,3.4305,3.631,3.695,3.7347,3.7749,3.8101,3.8302,3.8302,3.8661,3.9077,3.948,3.9813,4.0167,4.0589,4.0606,4.0606,4.0606,4.0606,4.0606,4.0606,4.0709,4.0949,4.1343,4.1994,4.2614,4.3244,4.4459,4.4507,4.3567,4.3567,4.3275,4.2813,4.2813,4.3979,4.5815,4.5815,4.5815,4.5815,4.5815,4.4531,4.2813,4.2813,4.3131,4.3567,4.3567,4.4915,4.6546,4.6546,4.7965,4.9118,4.7129,4.6546,4.6097,4.4074,4.3179,4.2813,4.2813,4.2813,4.2957,4.3448,4.3567,4.386,4.4862,4.5862,4.671,4.7222,4.8523,4.9554,4.9554,4.9965,5.0807,5.2294,5.2473,5.3054,5.4542,5.4696,5.4696,5.4696,5.4696,5.4696,5.4696,5.4696,5.4696,5.4696,5.4696,5.4696,5.4696,5.4696,5.4696,5.4696,5.4696,5.4696,5.4696,5.4696,5.4696,0.0,1.9862,0.0,2.4738,2.5958,2.693,0.0,2.9906,3.0062,3.0665,3.0796,3.0796,3.0796,3.106,3.1757,3.3262,3.3715,3.4518,3.6324,3.695,3.7347,3.7749,3.8101,3.8302,3.8302,3.8661,3.9077,3.948,3.9813,4.0167,4.0589,4.0606,4.0606,4.0606,4.0606,4.0606,4.0606,4.0983,4.1343,4.1679,4.209,4.3474,4.5544,4.3764,4.3931,4.5651,4.5651,4.4554,4.2813,4.2813,4.3979,4.5815,4.5815,4.5815,4.5815,4.5815,4.4531,4.2813,4.2813,4.405,4.5651,4.5651,4.7013,4.8635,4.8635,5.0011,5.1125,4.9187,4.8635,4.8196,4.6167,4.4222,4.2813,4.2813,4.2813,4.3322,4.5227,4.5651,4.6756,5.0512,4.9828,4.9233,5.1079,5.1485,5.1552,5.1552,5.3166,5.4431,5.4542,5.4542,5.4586,5.4674,5.4696,5.4696,5.4696,5.4696,5.4696,5.4696,5.4696,5.4696,5.4696,5.4696,5.4696,5.4696,5.4696,5.4696,5.4696,5.4696,5.4696,5.4696,5.4696,5.4696,0.0,0.0,0.0,2.3388,2.4979,2.6376,2.8043,2.9197,3.0062,3.0665,3.0796,3.0796,3.0796,3.1363,3.2183,3.3333,3.4048,3.5068,3.675,3.7104,3.7412,3.8049,3.8216,3.8302,3.8302,3.8905,3.9338,3.9497,4.0058,4.0446,4.0606,4.0606,4.1155,4.2358,4.1223,4.0726,4.0983,4.1343,4.2331,4.3961,4.4355,4.5645,4.771,4.6985,4.6354,4.5815,4.5815,4.4655,4.2909,4.4175,4.5909,4.7733,4.7733,4.7733,4.7571,4.6266,4.5345,4.4726,4.4726,4.605,4.7733,4.7733,4.9072,5.0648,5.0648,5.2048,5.2965,4.9714,4.8796,4.8034,4.4744,4.3346,4.3131,4.4412,4.5716,4.7176,4.9144,4.7575,4.6593,4.9324,5.0284,5.0875,5.1597,5.2765,5.3633,5.3633,5.4232,5.4696,5.4696,5.4696,5.4696,5.4696,5.4696,5.4696,5.4696,5.4696,5.4696,5.4696,5.4696,5.4696,5.4696,5.4696,5.4696,5.4696,5.4696,5.4696,5.4696,5.4696,5.4696,5.4696,5.4696,5.4696,0.0,0.0,0.0,0.0,2.3678,2.5243,2.7224,2.8635,2.9754,3.0519,3.0744,3.0796,3.0796,3.1508,3.2417,3.3342,3.4069,3.5122,3.6958,3.6939,3.7148,3.8173,3.8302,3.8537,3.9139,3.9378,3.974,4.0338,4.0514,4.0861,4.1499,4.1544,4.2106,4.3367,4.1566,4.0795,4.1189,4.2203,4.355,4.5205,4.629,4.7524,4.8796,4.8796,4.8081,4.6803,4.6803,4.5674,4.3907,4.5269,4.7385,4.9714,4.9049,4.921,4.9531,4.7548,4.6803,4.6803,4.6803,4.8108,4.9782,4.9782,5.11,5.2698,5.2698,5.3166,5.301,4.9714,4.8796,4.8034,4.4673,4.4311,4.5151,4.6476,4.7826,4.9324,5.1281,4.9625,4.8385,5.0376,5.1823,5.2698,5.2698,5.3811,5.4696,5.4696,5.4696,5.4696,5.4696,5.4696,5.4696,5.4696,5.4696,5.4696,5.4696,5.4696,5.4696,5.4696,5.4696,5.4696,5.4696,5.4696,5.4696,5.4696,5.4696,5.4696,5.4696,5.4696,5.4696,5.4696,5.4696,5.4784,0.0,0.0,0.0,0.0,2.1977,2.3483,2.6887,2.8257,2.9094,3.0141,3.0598,3.0796,3.0796,3.1508,3.2397,3.3301,3.373,3.4684,3.6851,3.6443,3.6517,3.8092,3.828,3.899,4.0753,4.0081,4.025,4.1894,4.1172,4.1454,4.33,4.3456,4.3456,4.3389,4.1634,4.0886,4.1298,4.3548,4.4939,4.5432,4.7773,4.8934,4.898,4.8911,4.8888,4.8888,4.8819,4.7733,4.5961,4.5961,4.8223,5.1507,4.9622,5.0034,5.1462,4.9531,4.8842,4.8888,4.8888,5.0171,5.18,5.18,5.3121,5.4696,5.4696,5.33,5.1326,4.9416,4.8842,4.8358,4.6406,4.7385,4.8888,4.8888,4.8934,4.9485,5.1394,5.18,5.2384,5.4321,5.4696,5.4696,5.4696,5.4696,5.4696,5.4696,5.4696,5.4696,5.4696,5.4696,5.4696,5.4696,5.4696,5.4696,5.4696,5.4696,5.4696,5.4696,5.4696,5.4696,5.4696,5.4696,5.4696,5.4696,5.4696,5.4696,5.4696,5.4696,5.4696,5.4696,5.4718,5.4958,1.7789,0.0,0.0,0.0,0.0,0.0,2.4227,2.6653,2.8723,2.9457,3.0246,3.0796,3.0796,3.1508,3.219,3.2458,3.3663,3.4842,3.5721,3.6399,3.7109,3.7861,3.8148,3.8494,3.899,4.0204,4.0743,4.0254,4.1395,4.2498,4.3349,4.4678,4.4788,4.3434,4.2917,4.2973,4.3727,4.4385,4.6447,4.9921,5.0588,5.1665,5.301,5.1552,5.0898,5.0807,4.9416,4.9279,5.0079,5.0079,5.0717,5.1665,5.1102,5.1236,5.1462,4.9531,4.9691,5.0898,5.0898,5.2204,5.3856,5.3856,5.4254,5.4696,5.4696,5.33,5.1597,5.1034,4.9897,4.8681,4.8127,4.9439,5.0898,5.0898,5.2024,5.3211,5.3744,5.3856,5.4033,5.4586,5.4696,5.4696,5.4696,5.4696,5.4696,5.4696,5.4696,5.4696,5.4696,5.4696,5.4696,5.4696,5.4696,5.4696,5.4696,5.4696,5.4696,5.4696,5.4696,5.4696,5.4696,5.4696,5.4696,5.4696,5.4696,5.4696,5.4696,5.4696,5.4696,5.4696,5.5046,5.5461,0.0,0.0,0.0,0.0,0.0,0.0,2.4167,2.6347,2.8245,2.9338,3.0214,3.0796,3.0796,3.1212,3.1565,3.1565,3.2762,3.406,3.5143,3.5771,3.6405,3.7132,3.853,3.9122,3.8336,4.0592,4.1824,4.121,4.1794,4.2876,4.4482,4.4854,4.4876,4.4567,4.4001,4.4025,4.4696,4.6481,4.8814,5.171,5.2541,5.3121,5.3455,5.3099,5.2496,5.1688,5.1394,5.1891,5.2965,5.2965,5.2965,5.2875,5.2026,5.2206,5.2698,5.0739,5.1258,5.2965,5.2965,5.3722,5.4696,5.4696,5.4696,5.4696,5.4696,5.33,5.171,5.171,5.0875,5.0193,5.1055,5.2114,5.2965,5.2965,5.3833,5.4696,5.4696,5.4696,5.4696,5.4696,5.4696,5.4696,5.4696,5.4696,5.4696,5.4696,5.4696,5.4696,5.4696,5.4696,5.4696,5.4696,5.4696,5.4696,5.4696,5.4696,5.4696,5.4696,5.4696,5.4696,5.4696,5.4696,5.4696,5.4696,5.4696,5.4806,5.498,5.4806,5.4806,5.5002,5.546,5.5941,0.0,0.0,0.0,0.0,0.0,0.0,2.5374,2.6716,2.7742,2.9324,3.0158,3.0613,3.0657,3.0686,3.0716,3.0716,3.143,3.2664,3.4664,3.4788,3.5096,3.6196,3.8972,4.0093,3.8374,4.0923,4.2834,4.3165,4.2335,4.3063,4.6041,4.4501,4.4457,4.6453,4.5049,4.4585,4.5334,4.9174,5.1409,5.2048,5.3833,5.3767,5.2093,5.3878,5.3722,5.2116,5.3922,5.4696,5.4696,5.4696,5.4696,5.452,5.272,5.3121,5.4497,5.2675,5.3166,5.4696,5.4696,5.4696,5.4696,5.4696,5.4696,5.4696,5.4696,5.33,5.171,5.171,5.1868,5.2451,5.4232,5.4696,5.4696,5.4696,5.4696,5.4696,5.4696,5.4696,5.4696,5.4696,5.4696,5.4696,5.4696,5.4696,5.4696,5.4696,5.4696,5.4696,5.4696,5.4696,5.4696,5.4696,5.4696,5.4696,5.4696,5.4696,5.4696,5.4696,5.4696,5.4696,5.4696,5.4696,5.4696,5.4696,5.4762,5.4958,5.5417,5.4958,5.5068,5.557,5.5985,5.6443,0.0,0.0,0.0,0.0,0.0,0.0,2.4013,2.5856,2.7425,2.7877,2.8713,2.9425,2.9696,3.0006,3.0242,3.0242,3.0786,3.1562,3.2567,3.4132,3.5356,3.5922,3.8041,3.9169,3.8357,4.0113,4.1327,4.1402,4.3092,4.4731,4.6126,4.5137,4.573,4.8376,4.6356,4.6519,4.9265,5.0489,5.2121,5.4121,5.452,5.4497,5.4143,5.452,5.4497,5.4143,5.4542,5.4696,5.4696,5.4696,5.4696,5.4652,5.4276,5.4343,5.4652,5.4254,5.4343,5.4696,5.4696,5.4696,5.4696,5.4696,5.4696,5.4696,5.4696,5.33,5.171,5.171,5.2875,5.421,5.4608,5.4696,5.4696,5.4696,5.4696,5.4696,5.4696,5.4696,5.4696,5.4696,5.4696,5.4696,5.4696,5.4696,5.4696,5.4696,5.4696,5.4696,5.4696,5.4696,5.4696,5.4696,5.4696,5.4696,5.4696,5.4696,5.4696,5.4696,5.4696,5.4696,5.4696,5.4696,5.4696,5.4696,5.5068,5.5308,5.5417,5.5308,5.5701,5.6531,5.6618,5.6924,0.0,0.0,0.0,2.4386,0.0,0.0,0.0,2.6012,2.6906,2.802,2.8514,2.9025,2.9895,2.9774,2.9728,3.0269,3.055,3.0925,3.1523,3.375,3.5051,3.4349,3.749,3.8891,3.6846,3.8819,4.0583,4.1474,4.2506,4.4429,4.7451,4.4936,4.5115,4.889,4.7894,4.8289,5.0365,5.2067,5.3486,5.4696,5.4696,5.4696,5.4696,5.4696,5.4696,5.4696,5.4696,5.4696,5.4696,5.4696,5.4696,5.4696,5.4696,5.4696,5.4696,5.4696,5.4696,5.4696,5.4696,5.4696,5.4696,5.4696,5.4696,5.4696,5.4696,5.401,5.3188,5.3188,5.3922,5.4696,5.4696,5.4696,5.4696,5.4696,5.4696,5.4696,5.4696,5.4696,5.4696,5.4696,5.4696,5.4696,5.4696,5.4696,5.4696,5.4696,5.4696,5.4696,5.4696,5.4696,5.4696,5.4696,5.4696,5.4696,5.4696,5.4696,5.4696,5.4696,5.4696,5.4696,5.4696,5.4696,5.4806,5.5024,5.5286,5.5636,5.6094,5.6094,5.6334,5.6793,5.7055,5.7272,0.0,0.0,0.0,0.0,0.0,2.4724,0.0,0.0,0.0,2.8217,2.8377,2.8587,2.9732,2.9353,2.9127,2.9996,3.0223,3.0364,3.0698,3.3074,3.4262,3.2834,3.6632,3.8251,3.5414,3.7458,3.9639,4.129,4.1131,4.3242,4.8442,4.4804,4.4693,4.9381,4.9582,5.0033,5.0934,5.3426,5.4696,5.4696,5.4696,5.4696,5.4696,5.4696,5.4696,5.4696,5.4696,5.4696,5.4696,5.4696,5.4696,5.4696,5.4696,5.4696,5.4696,5.4696,5.4696,5.4696,5.4696,5.4696,5.4696,5.4696,5.4696,5.4696,5.4696,5.4696,5.4696,5.4696,5.4696,5.4696,5.4696,5.4696,5.4696,5.4696,5.4696,5.4696,5.4696,5.4696,5.4696,5.4696,5.4696,5.4696,5.4696,5.4696,5.4696,5.4696,5.4696,5.4696,5.4696,5.4696,5.4696,5.4696,5.4696,5.4696,5.4696,5.4696,5.4696,5.4696,5.4696,5.4696,5.4696,5.4696,5.4937,5.5395,5.5505,5.5941,5.6793,5.688,5.6924,5.6946,5.7316,5.749,0.0,0.0,0.0,0.0,2.702,0.0,0.0,0.0,2.6809,2.6931,0.0,2.7408,2.7554,0.0,0.0,2.8439,2.9216,2.9687,2.9449,3.1434,3.292,3.2952,3.4719,3.5867,3.5632,3.6479,3.7458,3.8489,3.9102,4.1873,4.7457,4.5664,4.6645,5.135,5.1509,5.1935,5.2866,5.4084,5.4696,5.4696,5.4696,5.4696,5.4696,5.4696,5.4696,5.4696,5.4696,5.4696,5.4696,5.4696,5.4696,5.4696,5.4696,5.4696,5.4696,5.4696,5.4696,5.4696,5.4696,5.4696,5.4696,5.4696,5.4696,5.4696,5.4696,5.4696,5.4696,5.4696,5.4696,5.4696,5.4696,5.4696,5.4696,5.4696,5.4696,5.4696,5.4696,5.4696,5.4696,5.4696,5.4696,5.4696,5.4696,5.4696,5.4696,5.4696,5.4696,5.4696,5.4696,5.4696,5.4696,5.4696,5.4696,5.4696,5.4696,5.4696,5.4696,5.4696,5.4696,5.4696,5.4696,5.4696,5.4937,5.5395,5.581,5.629,5.6793,5.7207,5.7425,5.7425,5.7469,5.749,0.0,0.0,0.0,0.0,0.0,0.0,2.6139,0.0,2.5782,0.0,0.0,0.0,0.0,0.0,0.0,0.0,2.8826,2.9114,2.9228,2.9976,3.0715,3.1245,3.2936,3.3921,3.3533,3.6707,3.8951,3.9353,3.9843,4.2693,4.8541,4.681,4.7513,5.1665,5.181,5.226,5.3189,5.4194,5.4696,5.4696,5.4696,5.4696,5.4696,5.4696,5.4696,5.4696,5.4696,5.4696,5.4696,5.4696,5.4696,5.4696,5.4696,5.4696,5.4696,5.4696,5.4696,5.4696,5.4696,5.4696,5.4696,5.4696,5.4696,5.4696,5.4696,5.4696,5.4696,5.4696,5.4696,5.4696,5.4696,5.4696,5.4696,5.4696,5.4696,5.4696,5.4696,5.4696,5.4696,5.4696,5.4696,5.4696,5.4696,5.4696,5.4696,5.4696,5.4696,5.4696,5.4696,5.4696,5.4696,5.4696,5.4696,5.4696,5.4696,5.4696,5.4696,5.4696,5.4696,5.4696,5.4696,5.4958,5.533,5.5788,5.6269,5.6749,5.723,5.7403,5.749,5.749,5.749,5.749,2.8671,0.0,0.0,0.0,0.0,0.0,0.0,0.0,0.0,0.0,0.0,0.0,0.0,0.0,0.0,0.0,0.0,2.8701,2.8847,2.8818,2.91,2.9922,3.1525,3.2336,3.173,3.5357,3.8118,3.9013,3.9547,4.2297,4.7998,4.697,4.7686,5.0929,5.153,5.213,5.2823,5.4062,5.4696,5.4696,5.4696,5.4696,5.4696,5.4696,5.4696,5.4696,5.4696,5.4696,5.4696,5.4696,5.4696,5.4696,5.4696,5.4696,5.4696,5.4696,5.4696,5.4696,5.4696,5.4696,5.4696,5.4696,5.4696,5.4696,5.4696,5.4696,5.4696,5.4696,5.4696,5.4696,5.4696,5.4696,5.4696,5.4696,5.4696,5.4696,5.4696,5.4696,5.4696,5.4696,5.4696,5.4696,5.4696,5.4696,5.4696,5.4696,5.4696,5.4696,5.4696,5.4696,5.4696,5.4696,5.4696,5.4696,5.4696,5.4696,5.4696,5.4696,5.4696,5.4696,5.4696,5.5155,5.5613,5.6093,5.6553,5.7033,5.749,5.749,5.749,5.749,5.749,5.749,0.0,0.0,0.0,2.7806,0.0,0.0,0.0,0.0,2.7412,0.0,0.0,0.0,0.0,0.0,0.0,0.0,0.0,0.0,0.0,2.8023,2.8624,2.967,3.0658,3.1235,3.1147,3.1217,3.26,3.5722,3.6805,3.9419,4.4239,4.5563,4.7079,4.9038,5.084,5.1804,5.1826,5.3755,5.4696,5.4696,5.4696,5.4696,5.4696,5.4696,5.4696,5.4696,5.4696,5.4696,5.4696,5.4696,5.4696,5.4696,5.4696,5.4696,5.4696,5.4696,5.4696,5.4696,5.4696,5.4696,5.4696,5.4696,5.4696,5.4696,5.4696,5.4696,5.4696,5.4696,5.4696,5.4696,5.4696,5.4696,5.4696,5.4696,5.4696,5.4696,5.4696,5.4696,5.4696,5.4696,5.4696,5.4696,5.4696,5.4696,5.4696,5.4696,5.4696,5.4696,5.4696,5.4696,5.4696,5.4696,5.4696,5.4696,5.4696,5.4696,5.4696,5.4696,5.4696,5.4696,5.4696,5.5155,5.5613,5.6093,5.6553,5.7033,5.749,5.749,5.749,5.749,5.749,5.749,2.9697,2.9712,2.9355,2.8103,0.0,0.0,0.0,0.0,0.0,0.0,0.0,0.0,0.0,0.0,0.0,0.0,0.0,0.0,0.0,2.7154,2.7502,2.831,3.0261,3.1157,3.0198,3.2943,3.5248,3.6443,3.7639,4.0475,4.5415,4.5202,4.6481,4.9828,5.1143,5.2108,5.2715,5.404,5.4696,5.4696,5.4696,5.4696,5.4696,5.4696,5.4696,5.4696,5.4696,5.4696,5.4696,5.4696,5.4696,5.4696,5.4696,5.4696,5.4696,5.4696,5.4696,5.4696,5.4696,5.4696,5.4696,5.4696,5.4696,5.4696,5.4696,5.4696,5.4696,5.4696,5.4696,5.4696,5.4696,5.4696,5.4696,5.4696,5.4696,5.4696,5.4696,5.4696,5.4696,5.4696,5.4696,5.4696,5.4696,5.4696,5.4696,5.4696,5.4696,5.4696,5.4696,5.4696,5.4696,5.4696,5.4696,5.4696,5.4696,5.4696,5.4696,5.4696,5.4696,5.4849,5.5155,5.5613,5.6094,5.6553,5.7033,5.7338,5.749,5.749,5.749,5.749,5.749,5.749,3.1079,3.0553,2.9907,2.9708,2.8612,2.7445,2.7001,0.0,0.0,0.0,0.0,0.0,0.0,0.0,0.0,0.0,0.0,0.0,0.0,2.6709,2.6899,2.7454,2.925,3.0243,2.9694,3.2274,3.4323,3.5077,3.6422,3.9193,4.3716,4.4173,4.574,4.8846,5.0797,5.1935,5.2239,5.3887,5.4696,5.4696,5.4696,5.4696,5.4696,5.4696,5.4696,5.4696,5.4696,5.4696,5.4696,5.4696,5.4696,5.4696,5.4696,5.4696,5.4696,5.4696,5.4696,5.4696,5.4696,5.4696,5.4696,5.4696,5.4696,5.4696,5.4696,5.4696,5.474,5.4915,5.4828,5.474,5.4915,5.4828,5.4696,5.4696,5.4696,5.4696,5.4696,5.4696,5.4696,5.4696,5.4696,5.4696,5.4696,5.4696,5.4696,5.4696,5.4696,5.4696,5.4696,5.4696,5.4696,5.4696,5.4696,5.4696,5.4696,5.4696,5.4696,5.4696,5.4871,5.5068,5.5395,5.6007,5.6422,5.6553,5.7163,5.7425,5.725,5.7425,5.749,5.749,5.749,5.749]}]]